
Distance (Route):
Temperature : 22.9°C
Humidity : 36.7%
Pressure : 0hPa| Receiver | Frames | First received | Last received |
|---|---|---|---|
| 9A1FER-10 | 489 | 2026-09-02 23:17:06 | 2026-09-03 01:23:17 |
| 9A1FER-3 | 411 | 2026-09-02 23:17:06 | 2026-09-03 01:23:20 |
| PETON7-10 | 220 | 2026-09-03 00:04:24 | 2026-09-03 01:06:47 |
| OE5DRO-10 | 146 | 2026-09-03 00:07:48 | 2026-09-03 01:07:28 |
| PG1ADW-2 | 58 | 2026-09-03 00:31:46 | 2026-09-03 01:03:10 |
| OE5DXL-15 | 49 | 2026-09-03 00:28:27 | 2026-09-03 01:05:21 |
| OE3JTB-15 | 44 | 2026-09-02 23:56:55 | 2026-09-03 00:59:41 |
| OE8JPQ-2 | 35 | 2026-09-03 00:41:40 | 2026-09-03 01:00:08 |
| Receiver | Date | Latitude | Longitude | Direction | Speed | Altitude | Climb | Temperature | Humidity | Pressure | Voltage | Killtimer | Uptime | BKT | XDATA |
|---|---|---|---|---|---|---|---|---|---|---|---|---|---|---|---|
| 9A1FER-3 | 2026-09-03 01:23:20 | 45.39153 | 16.71873 | 287° | 26km/h | 574m | -14.8m/s | 22.9°C | 36.7% | 0hPa | 2.6V | 00:00:00 | 02:18:58 | 00:00:00 | |
| 9A1FER-3 | 2026-09-03 01:23:18 | 45.39150 | 16.71892 | 287° | 26km/h | 602m | -13.5m/s | 22.7°C | 37.0% | 0hPa | 2.6V | 08:05:00 | 02:18:56 | 00:00:00 | |
| 9A1FER-10 | 2026-09-03 01:23:17 | 45.39148 | 16.71901 | 291° | 26km/h | 615m | -15.1m/s | 22.5°C | 37.3% | 0hPa | 2.5V | 00:00:00 | 02:18:55 | 00:00:00 | |
| 9A1FER-3 | 2026-09-03 01:23:16 | 45.39146 | 16.71910 | 287° | 26km/h | 629m | -13.7m/s | 22.4°C | 37.5% | 0hPa | 2.6V | 00:00:00 | 02:18:54 | 00:00:00 | |
| 9A1FER-10 | 2026-09-03 01:23:15 | 45.39144 | 16.71918 | 287° | 27km/h | 643m | -14.7m/s | 22.3°C | 37.6% | 0hPa | 2.6V | 00:00:00 | 02:18:53 | 00:00:00 | |
| 9A1FER-10 | 2026-09-03 01:23:12 | 45.39136 | 16.71944 | 304° | 26km/h | 689m | -15.9m/s | 22.2°C | 37.2% | 0hPa | 2.6V | 00:00:00 | 02:18:50 | 00:00:00 | |
| 9A1FER-10 | 2026-09-03 01:23:08 | 45.39119 | 16.71973 | 320° | 26km/h | 747m | -13.2m/s | 22.2°C | 36.1% | 0hPa | 2.6V | 08:06:00 | 02:18:46 | 00:00:00 | |
| 9A1FER-3 | 2026-09-03 01:23:08 | 45.39119 | 16.71973 | 320° | 26km/h | 747m | -13.2m/s | 22.2°C | 36.1% | 0hPa | 2.6V | 00:00:00 | 02:18:46 | 00:00:00 | |
| 9A1FER-10 | 2026-09-03 01:22:59 | 45.39078 | 16.72052 | 309° | 31km/h | 884m | -15.1m/s | 21.3°C | 36.8% | 0hPa | 2.6V | 00:00:00 | 02:18:37 | 00:00:00 | |
| 9A1FER-10 | 2026-09-03 01:22:54 | 45.39054 | 16.72092 | 311° | 27km/h | 959m | -16.3m/s | 20.7°C | 38.4% | 0hPa | 2.6V | 00:00:00 | 02:18:32 | 00:00:00 | |
| 9A1FER-3 | 2026-09-03 01:22:53 | 45.39049 | 16.72099 | 312° | 22km/h | 974m | -15.3m/s | 20.6°C | 38.4% | 0hPa | 2.6V | 00:00:00 | 02:18:31 | 00:00:00 | |
| 9A1FER-10 | 2026-09-03 01:22:52 | 45.39045 | 16.72106 | 313° | 24km/h | 989m | -15.1m/s | 20.6°C | 37.5% | 0hPa | 2.6V | 00:00:00 | 02:18:30 | 00:00:00 | |
| 9A1FER-10 | 2026-09-03 01:22:48 | 45.39030 | 16.72130 | 308° | 20km/h | 1048m | -15.8m/s | 20.2°C | 38.6% | 0hPa | 2.6V | 00:00:00 | 02:18:26 | 00:00:00 | |
| 9A1FER-3 | 2026-09-03 01:22:46 | 45.39023 | 16.72142 | 310° | 18km/h | 1077m | -15.7m/s | 20.0°C | 39.5% | 0hPa | 2.6V | 00:00:00 | 02:18:24 | 00:00:00 | |
| 9A1FER-10 | 2026-09-03 01:22:43 | 45.39014 | 16.72157 | 309° | 16km/h | 1123m | -15.9m/s | 19.6°C | 40.4% | 0hPa | 2.6V | 00:00:00 | 02:18:21 | 00:00:00 | |
| 9A1FER-3 | 2026-09-03 01:22:41 | 45.39010 | 16.72167 | 303° | 16km/h | 1154m | -15.3m/s | 19.4°C | 40.8% | 0hPa | 2.6V | 00:00:00 | 02:18:19 | 00:00:00 | |
| 9A1FER-10 | 2026-09-03 01:22:38 | 45.39003 | 16.72182 | 312° | 15km/h | 1198m | -14.9m/s | 19.0°C | 41.1% | 0hPa | 2.6V | 00:00:00 | 02:18:16 | 00:00:00 | |
| 9A1FER-3 | 2026-09-03 01:22:36 | 45.38999 | 16.72191 | 308° | 13km/h | 1227m | -14.4m/s | 18.8°C | 41.2% | 0hPa | 2.5V | 00:00:00 | 02:18:14 | 00:00:00 | |
| 9A1FER-10 | 2026-09-03 01:22:33 | 45.38993 | 16.72201 | 294° | 11km/h | 1269m | -14.8m/s | 18.5°C | 42.4% | 0hPa | 2.5V | 00:00:00 | 02:18:11 | 00:00:00 | |
| 9A1FER-3 | 2026-09-03 01:22:31 | 45.38990 | 16.72208 | 309° | 11km/h | 1298m | -14.9m/s | 18.3°C | 42.8% | 0hPa | 2.5V | 00:00:00 | 02:18:09 | 00:00:00 | |
| 9A1FER-10 | 2026-09-03 01:22:28 | 45.38987 | 16.72219 | 291° | 9km/h | 1341m | -15.3m/s | 17.9°C | 43.4% | 0hPa | 2.5V | 00:00:00 | 02:18:06 | 00:00:00 | |
| 9A1FER-3 | 2026-09-03 01:22:26 | 45.38986 | 16.72225 | 285° | 9km/h | 1370m | -14.7m/s | 17.7°C | 44.5% | 0hPa | 2.5V | 00:00:00 | 02:18:04 | 00:00:00 | |
| 9A1FER-10 | 2026-09-03 01:22:23 | 45.38986 | 16.72234 | 271° | 7km/h | 1414m | -15.0m/s | 17.3°C | 46.2% | 0hPa | 2.5V | 08:06:00 | 02:18:01 | 00:00:00 | |
| 9A1FER-3 | 2026-09-03 01:22:21 | 45.38986 | 16.72240 | 257° | 7km/h | 1442m | -14.7m/s | 17.1°C | 47.0% | 0hPa | 2.6V | 08:06:00 | 02:17:59 | 00:00:00 | |
| 9A1FER-10 | 2026-09-03 01:22:18 | 45.38988 | 16.72247 | 256° | 7km/h | 1485m | -14.7m/s | 16.7°C | 48.5% | 0hPa | 2.6V | 00:00:00 | 02:17:56 | 00:00:00 | |
| 9A1FER-3 | 2026-09-03 01:22:16 | 45.38989 | 16.72251 | 247° | 7km/h | 1514m | -14.3m/s | 16.4°C | 49.5% | 0hPa | 2.6V | 00:00:00 | 02:17:54 | 00:00:00 | |
| 9A1FER-10 | 2026-09-03 01:22:13 | 45.38992 | 16.72259 | 260° | 7km/h | 1556m | -14.7m/s | 16.0°C | 50.7% | 0hPa | 2.6V | 00:00:00 | 02:17:51 | 00:00:00 | |
| 9A1FER-3 | 2026-09-03 01:22:11 | 45.38994 | 16.72263 | 229° | 7km/h | 1584m | -15.2m/s | 15.8°C | 51.6% | 0hPa | 2.6V | 00:00:00 | 02:17:49 | 00:00:00 | |
| 9A1FER-10 | 2026-09-03 01:22:08 | 45.38997 | 16.72270 | 228° | 9km/h | 1627m | -15.3m/s | 15.4°C | 52.9% | 0hPa | 2.6V | 00:00:00 | 02:17:46 | 00:00:00 | |
| 9A1FER-3 | 2026-09-03 01:22:06 | 45.38999 | 16.72275 | 249° | 7km/h | 1656m | -14.6m/s | 15.1°C | 54.2% | 0hPa | 2.5V | 00:00:00 | 02:17:44 | 00:00:00 | |
| 9A1FER-10 | 2026-09-03 01:22:03 | 45.39002 | 16.72282 | 229° | 7km/h | 1699m | -14.0m/s | 14.7°C | 55.5% | 0hPa | 2.5V | 00:00:00 | 02:17:41 | 00:00:00 | |
| 9A1FER-3 | 2026-09-03 01:22:01 | 45.39005 | 16.72286 | 226° | 11km/h | 1726m | -15.2m/s | 14.4°C | 57.4% | 0hPa | 2.5V | 00:00:00 | 02:17:39 | 00:00:00 | |
| 9A1FER-10 | 2026-09-03 01:21:58 | 45.39010 | 16.72292 | 232° | 7km/h | 1770m | -15.3m/s | 14.0°C | 59.1% | 0hPa | 2.5V | 00:00:00 | 02:17:36 | 00:00:00 | |
| 9A1FER-10 | 2026-09-03 01:21:53 | 45.39017 | 16.72299 | 210° | 7km/h | 1842m | -15.4m/s | 13.3°C | 66.0% | 0hPa | 2.5V | 00:00:00 | 02:17:31 | 00:00:00 | |
| 9A1FER-10 | 2026-09-03 01:21:48 | 45.39023 | 16.72309 | 305° | 11km/h | 1910m | -14.8m/s | 12.7°C | 68.3% | 0hPa | 2.5V | 00:00:00 | 02:17:26 | 00:00:00 | |
| 9A1FER-10 | 2026-09-03 01:21:43 | 45.39033 | 16.72314 | 178° | 9km/h | 1989m | -14.6m/s | 12.1°C | 68.7% | 0hPa | 2.5V | 00:00:00 | 02:17:21 | 00:00:00 | |
| 9A1FER-10 | 2026-09-03 01:21:37 | 45.39048 | 16.72317 | 190° | 9km/h | 2084m | -16.1m/s | 11.4°C | 68.3% | 0hPa | 2.5V | 08:07:00 | 02:17:15 | 00:00:00 | |
| 9A1FER-10 | 2026-09-03 01:21:27 | 45.39071 | 16.72320 | 192° | 7km/h | 2241m | -16.1m/s | 10.3°C | 73.1% | 0hPa | 2.6V | 00:00:00 | 02:17:05 | 00:00:00 | |
| 9A1FER-10 | 2026-09-03 01:21:17 | 45.39087 | 16.72326 | 178° | 11km/h | 2406m | -16.8m/s | 9.3°C | 67.3% | 0hPa | 2.6V | 00:00:00 | 02:16:55 | 00:00:00 | |
| 9A1FER-10 | 2026-09-03 01:21:07 | 45.39116 | 16.72334 | 202° | 18km/h | 2572m | -16.2m/s | 8.4°C | 50.0% | 0hPa | 2.6V | 00:00:00 | 02:16:45 | 00:00:00 | |
| 9A1FER-10 | 2026-09-03 01:20:57 | 45.39161 | 16.72354 | 204° | 22km/h | 2735m | -17.1m/s | 0°C | 0% | 0hPa | 2.6V | 00:00:00 | 02:16:35 | 00:00:00 | |
| 9A1FER-3 | 2026-09-03 01:20:51 | 45.39194 | 16.72367 | 195° | 22km/h | 2833m | -17.3m/s | 6.2°C | 54.9% | 0hPa | 2.6V | 00:00:00 | 02:16:29 | 00:00:00 | |
| 9A1FER-10 | 2026-09-03 01:20:47 | 45.39216 | 16.72371 | 175° | 26km/h | 2897m | -16.3m/s | 5.6°C | 57.1% | 0hPa | 2.6V | 00:00:00 | 02:16:25 | 00:00:00 | |
| 9A1FER-3 | 2026-09-03 01:20:41 | 45.39249 | 16.72381 | 187° | 22km/h | 2991m | -17.2m/s | 4.7°C | 60.4% | 0hPa | 2.6V | 00:00:00 | 02:16:19 | 00:00:00 | |
| 9A1FER-10 | 2026-09-03 01:20:33 | 45.39292 | 16.72399 | 199° | 24km/h | 3122m | -17.4m/s | 3.4°C | 65.1% | 0hPa | 2.5V | 00:00:00 | 02:16:11 | 00:00:00 | |
| 9A1FER-3 | 2026-09-03 01:20:28 | 45.39321 | 16.72408 | 187° | 16km/h | 3201m | -17.1m/s | 2.7°C | 68.5% | 0hPa | 2.6V | 00:00:00 | 02:16:06 | 00:00:00 | |
| 9A1FER-10 | 2026-09-03 01:20:18 | 45.39379 | 16.72428 | 199° | 18km/h | 3367m | -15.9m/s | 1.1°C | 76.3% | 0hPa | 2.6V | 00:00:00 | 02:15:56 | 00:00:00 | |
| 9A1FER-10 | 2026-09-03 01:20:03 | 45.39445 | 16.72458 | 187° | 13km/h | 3603m | -15.2m/s | 0.1°C | 31.9% | 0hPa | 2.6V | 00:00:00 | 02:15:41 | 00:00:00 | |
| 9A1FER-10 | 2026-09-03 01:19:48 | 45.39494 | 16.72481 | 185° | 11km/h | 3835m | -17.4m/s | -1.5°C | 49.7% | 0hPa | 2.6V | 08:09:00 | 02:15:26 | 00:00:00 | |
| 9A1FER-10 | 2026-09-03 01:19:33 | 45.39537 | 16.72473 | 152° | 15km/h | 4079m | -17.2m/s | -2.8°C | 24.8% | 0hPa | 2.6V | 00:00:00 | 02:15:11 | 00:00:00 | |
| 9A1FER-3 | 2026-09-03 01:19:29 | 45.39546 | 16.72465 | 136° | 15km/h | 4145m | -17.2m/s | -3.2°C | 43.3% | 0hPa | 2.6V | 00:00:00 | 02:15:07 | 00:00:00 | |
| 9A1FER-10 | 2026-09-03 01:19:18 | 45.39573 | 16.72414 | 127° | 22km/h | 4331m | -16.1m/s | -4.3°C | 27.2% | 0hPa | 2.6V | 00:00:00 | 02:14:56 | 00:00:00 | |
| 9A1FER-10 | 2026-09-03 01:19:03 | 45.39622 | 16.72314 | 119° | 24km/h | 4579m | -17.3m/s | -6.1°C | 24.7% | 0hPa | 2.6V | 00:00:00 | 02:14:41 | 00:00:00 | |
| 9A1FER-3 | 2026-09-03 01:18:54 | 45.39654 | 16.72247 | 122° | 24km/h | 4727m | -15.6m/s | -7.1°C | 23.3% | 0hPa | 2.6V | 08:10:00 | 02:14:32 | 00:00:00 | |
| 9A1FER-10 | 2026-09-03 01:18:48 | 45.39673 | 16.72202 | 114° | 26km/h | 4820m | -15.8m/s | -7.9°C | 25.0% | 0hPa | 2.5V | 00:00:00 | 02:14:26 | 00:00:00 | |
| 9A1FER-3 | 2026-09-03 01:18:39 | 45.39689 | 16.72128 | 102° | 31km/h | 4962m | -16.5m/s | -8.6°C | 36.4% | 0hPa | 2.5V | 00:00:00 | 02:14:17 | 00:00:00 | |
| 9A1FER-10 | 2026-09-03 01:18:33 | 45.39699 | 16.72071 | 101° | 31km/h | 5059m | -17.2m/s | -9.2°C | 38.0% | 0hPa | 2.5V | 00:00:00 | 02:14:11 | 00:00:00 | |
| 9A1FER-10 | 2026-09-03 01:18:18 | 45.39727 | 16.71914 | 113° | 35km/h | 5305m | -16.6m/s | -11.5°C | 45.4% | 0hPa | 2.5V | 00:00:00 | 02:13:56 | 00:00:00 | |
| 9A1FER-3 | 2026-09-03 01:18:06 | 45.39764 | 16.71778 | 110° | 42km/h | 5493m | -16.1m/s | -12.8°C | 80.4% | 0hPa | 2.5V | 00:00:00 | 02:13:44 | 00:00:00 | |
| 9A1FER-10 | 2026-09-03 01:18:03 | 45.39776 | 16.71736 | 114° | 42km/h | 5538m | -16.6m/s | -12.9°C | 90.6% | 0hPa | 2.5V | 00:00:00 | 02:13:41 | 00:00:00 | |
| 9A1FER-3 | 2026-09-03 01:17:51 | 45.39821 | 16.71559 | 113° | 37km/h | 5724m | -14.9m/s | -13.9°C | 80.8% | 0hPa | 2.5V | 00:00:00 | 02:13:29 | 00:00:00 | |
| 9A1FER-10 | 2026-09-03 01:17:48 | 45.39833 | 16.71520 | 111° | 35km/h | 5769m | -14.3m/s | -13.9°C | 78.7% | 0hPa | 2.5V | 00:00:00 | 02:13:26 | 00:00:00 | |
| 9A1FER-3 | 2026-09-03 01:17:36 | 45.39879 | 16.71376 | 120° | 35km/h | 5944m | -14.3m/s | -14.5°C | 76.8% | 0hPa | 2.5V | 00:00:00 | 02:13:14 | 00:00:00 | |
| 9A1FER-10 | 2026-09-03 01:17:27 | 45.39920 | 16.71276 | 120° | 33km/h | 6074m | -15.5m/s | -14.9°C | 71.6% | 0hPa | 2.5V | 08:11:00 | 02:13:05 | 00:00:00 | |
| 9A1FER-3 | 2026-09-03 01:17:21 | 45.39948 | 16.71216 | 128° | 33km/h | 6164m | -15.7m/s | -15.0°C | 62.1% | 0hPa | 2.5V | 00:00:00 | 02:12:59 | 00:00:00 | |
| 9A1FER-10 | 2026-09-03 01:17:12 | 45.39994 | 16.71134 | 128° | 35km/h | 6306m | -14.9m/s | -16.2°C | 65.4% | 0hPa | 2.5V | 00:00:00 | 02:12:50 | 00:00:00 | |
| 9A1FER-3 | 2026-09-03 01:17:06 | 45.40023 | 16.71076 | 122° | 35km/h | 6390m | -14.4m/s | -17.1°C | 69.4% | 0hPa | 2.5V | 00:00:00 | 02:12:44 | 00:00:00 | |
| 9A1FER-10 | 2026-09-03 01:16:57 | 45.40068 | 16.70982 | 120° | 38km/h | 6511m | -13.8m/s | -18.2°C | 75.6% | 0hPa | 2.5V | 00:00:00 | 02:12:35 | 00:00:00 | |
| 9A1FER-3 | 2026-09-03 01:16:51 | 45.40097 | 16.70913 | 119° | 38km/h | 6594m | -13.9m/s | -18.9°C | 79.0% | 0hPa | 2.5V | 00:00:00 | 02:12:29 | 00:00:00 | |
| 9A1FER-10 | 2026-09-03 01:16:42 | 45.40136 | 16.70803 | 112° | 42km/h | 6722m | -14.8m/s | -19.7°C | 74.1% | 0hPa | 2.5V | 00:00:00 | 02:12:20 | 00:00:00 | |
| 9A1FER-3 | 2026-09-03 01:16:36 | 45.40156 | 16.70727 | 107° | 40km/h | 6808m | -15.1m/s | -20.5°C | 77.5% | 0hPa | 2.4V | 00:00:00 | 02:12:14 | 00:00:00 | |
| 9A1FER-3 | 2026-09-03 01:16:21 | 45.40206 | 16.70517 | 111° | 42km/h | 7021m | -14.2m/s | -21.8°C | 69.8% | 0hPa | 2.4V | 08:12:00 | 02:11:59 | 00:00:00 | |
| 9A1FER-10 | 2026-09-03 01:16:16 | 45.40230 | 16.70446 | 114° | 42km/h | 7091m | -13.4m/s | -22.3°C | 71.3% | 0hPa | 2.5V | 00:00:00 | 02:11:54 | 00:00:00 | |
| 9A1FER-3 | 2026-09-03 01:16:06 | 45.40277 | 16.70310 | 114° | 46km/h | 7226m | -13.2m/s | -23.6°C | 75.3% | 0hPa | 2.5V | 00:00:00 | 02:11:44 | 00:00:00 | |
| 9A1FER-10 | 2026-09-03 01:16:01 | 45.40301 | 16.70239 | 116° | 47km/h | 7293m | -14.7m/s | -24.2°C | 73.9% | 0hPa | 2.5V | 00:00:00 | 02:11:39 | 00:00:00 | |
| 9A1FER-3 | 2026-09-03 01:15:51 | 45.40358 | 16.70092 | 117° | 51km/h | 7436m | -13.5m/s | -25.1°C | 69.0% | 0hPa | 2.5V | 00:00:00 | 02:11:29 | 00:00:00 | |
| 9A1FER-10 | 2026-09-03 01:15:46 | 45.40388 | 16.70016 | 121° | 53km/h | 7506m | -13.8m/s | -25.7°C | 69.2% | 0hPa | 2.5V | 00:00:00 | 02:11:24 | 00:00:00 | |
| 9A1FER-3 | 2026-09-03 01:15:36 | 45.40455 | 16.69856 | 123° | 55km/h | 7642m | -13.9m/s | -27.0°C | 70.7% | 0hPa | 2.4V | 00:00:00 | 02:11:14 | 00:00:00 | |
| 9A1FER-10 | 2026-09-03 01:15:31 | 45.40492 | 16.69772 | 119° | 57km/h | 7711m | -14.0m/s | -27.4°C | 67.1% | 0hPa | 2.4V | 00:00:00 | 02:11:09 | 00:00:00 | |
| 9A1FER-3 | 2026-09-03 01:15:21 | 45.40562 | 16.69596 | 118° | 55km/h | 7849m | -14.5m/s | -28.5°C | 67.6% | 0hPa | 2.4V | 00:00:00 | 02:10:59 | 00:00:00 | |
| 9A1FER-10 | 2026-09-03 01:15:16 | 45.40594 | 16.69508 | 116° | 53km/h | 7920m | -14.5m/s | -29.1°C | 69.3% | 0hPa | 2.4V | 00:00:00 | 02:10:54 | 00:00:00 | |
| 9A1FER-3 | 2026-09-03 01:15:06 | 45.40657 | 16.69335 | 119° | 53km/h | 8062m | -14.0m/s | -30.3°C | 69.2% | 0hPa | 2.4V | 00:00:00 | 02:10:44 | 00:00:00 | |
| 9A1FER-10 | 2026-09-03 01:15:01 | 45.40687 | 16.69249 | 117° | 53km/h | 8131m | -14.2m/s | -30.8°C | 72.3% | 0hPa | 2.4V | 08:14:00 | 02:10:39 | 00:00:00 | |
| 9A1FER-3 | 2026-09-03 01:14:51 | 45.40742 | 16.69076 | 115° | 57km/h | 8269m | -13.7m/s | -31.9°C | 77.2% | 0hPa | 2.4V | 00:00:00 | 02:10:29 | 00:00:00 | |
| 9A1FER-10 | 2026-09-03 01:14:46 | 45.40770 | 16.68985 | 114° | 60km/h | 8337m | -14.1m/s | -32.5°C | 77.6% | 0hPa | 2.4V | 00:00:00 | 02:10:24 | 00:00:00 | |
| 9A1FER-3 | 2026-09-03 01:14:36 | 45.40829 | 16.68795 | 116° | 66km/h | 8471m | -12.8m/s | -33.5°C | 73.3% | 0hPa | 2.4V | 00:00:00 | 02:10:14 | 00:00:00 | |
| 9A1FER-10 | 2026-09-03 01:14:31 | 45.40864 | 16.68689 | 115° | 66km/h | 8535m | -12.8m/s | -34.0°C | 70.4% | 0hPa | 2.4V | 00:00:00 | 02:10:09 | 00:00:00 | |
| 9A1FER-3 | 2026-09-03 01:14:21 | 45.40938 | 16.68475 | 117° | 64km/h | 8668m | -13.2m/s | -35.1°C | 60.8% | 0hPa | 2.4V | 00:00:00 | 02:09:59 | 00:00:00 | |
| 9A1FER-10 | 2026-09-03 01:14:16 | 45.40977 | 16.68376 | 122° | 64km/h | 8734m | -13.3m/s | -35.5°C | 54.5% | 0hPa | 2.4V | 00:00:00 | 02:09:54 | 00:00:00 | |
| 9A1FER-3 | 2026-09-03 01:14:06 | 45.41064 | 16.68185 | 125° | 69km/h | 8868m | -13.3m/s | -36.4°C | 49.3% | 0hPa | 2.5V | 08:15:00 | 02:09:44 | 00:00:00 | |
| 9A1FER-10 | 2026-09-03 01:14:01 | 45.41116 | 16.68093 | 131° | 75km/h | 8936m | -12.3m/s | -36.6°C | 46.0% | 0hPa | 2.5V | 00:00:00 | 02:09:39 | 00:00:00 | |
| 9A1FER-3 | 2026-09-03 01:13:51 | 45.41243 | 16.67904 | 136° | 82km/h | 9064m | -14.2m/s | -37.4°C | 35.8% | 0hPa | 2.5V | 00:00:00 | 02:09:29 | 00:00:00 | |
| 9A1FER-10 | 2026-09-03 01:13:46 | 45.41318 | 16.67811 | 140° | 86km/h | 9132m | -13.8m/s | -37.9°C | 34.8% | 0hPa | 2.5V | 00:00:00 | 02:09:24 | 00:00:00 | |
| 9A1FER-3 | 2026-09-03 01:13:36 | 45.41485 | 16.67619 | 143° | 89km/h | 9264m | -13.9m/s | -39.0°C | 34.3% | 0hPa | 2.5V | 00:00:00 | 02:09:14 | 00:00:00 | |
| 9A1FER-10 | 2026-09-03 01:13:31 | 45.41575 | 16.67523 | 146° | 89km/h | 9333m | -14.4m/s | -39.2°C | 32.1% | 0hPa | 2.5V | 00:00:00 | 02:09:09 | 00:00:00 | |
| 9A1FER-3 | 2026-09-03 01:13:21 | 45.41760 | 16.67334 | 147° | 91km/h | 9477m | -14.5m/s | -40.4°C | 32.3% | 0hPa | 2.4V | 00:00:00 | 02:08:59 | 00:00:00 | |
| 9A1FER-10 | 2026-09-03 01:13:16 | 45.41855 | 16.67245 | 147° | 95km/h | 9551m | -14.7m/s | -40.9°C | 31.6% | 0hPa | 2.5V | 00:00:00 | 02:08:54 | 00:00:00 | |
| 9A1FER-3 | 2026-09-03 01:13:06 | 45.42056 | 16.67070 | 149° | 100km/h | 9699m | -14.9m/s | -42.1°C | 34.9% | 0hPa | 2.5V | 00:00:00 | 02:08:44 | 00:00:00 | |
| 9A1FER-10 | 2026-09-03 01:13:01 | 45.42161 | 16.66982 | 151° | 102km/h | 9771m | -13.8m/s | -42.7°C | 37.9% | 0hPa | 2.5V | 00:00:00 | 02:08:39 | 00:00:00 | |
| 9A1FER-3 | 2026-09-03 01:12:51 | 45.42382 | 16.66795 | 149° | 111km/h | 9922m | -14.9m/s | -43.9°C | 45.4% | 0hPa | 2.5V | 00:00:00 | 02:08:29 | 00:00:00 | |
| 9A1FER-10 | 2026-09-03 01:12:46 | 45.42499 | 16.66697 | 150° | 117km/h | 10001m | -14.9m/s | -44.6°C | 47.5% | 0hPa | 2.5V | 08:16:00 | 02:08:24 | 00:00:00 | |
| 9A1FER-3 | 2026-09-03 01:12:36 | 45.42748 | 16.66487 | 150° | 126km/h | 10145m | -14.2m/s | -45.6°C | 41.5% | 0hPa | 2.4V | 00:00:00 | 02:08:14 | 00:00:00 | |
| 9A1FER-10 | 2026-09-03 01:12:31 | 45.42883 | 16.66377 | 151° | 130km/h | 10217m | -14.9m/s | -46.1°C | 32.4% | 0hPa | 2.5V | 00:00:00 | 02:08:09 | 00:00:00 | |
| 9A1FER-3 | 2026-09-03 01:12:21 | 45.43163 | 16.66139 | 149° | 131km/h | 10370m | -14.8m/s | -46.2°C | 25.6% | 0hPa | 2.5V | 00:00:00 | 02:07:59 | 00:00:00 | |
| 9A1FER-10 | 2026-09-03 01:12:16 | 45.43304 | 16.66018 | 149° | 131km/h | 10444m | -14.6m/s | -46.6°C | 29.0% | 0hPa | 2.5V | 00:00:00 | 02:07:54 | 00:00:00 | |
| 9A1FER-3 | 2026-09-03 01:12:06 | 45.43595 | 16.65789 | 154° | 131km/h | 10595m | -15.7m/s | -47.4°C | 34.0% | 0hPa | 2.5V | 00:00:00 | 02:07:44 | 00:00:00 | |
| 9A1FER-10 | 2026-09-03 01:12:01 | 45.43743 | 16.65680 | 154° | 131km/h | 10672m | -15.5m/s | -47.9°C | 35.5% | 0hPa | 2.5V | 00:00:00 | 02:07:39 | 00:00:00 | |
| 9A1FER-3 | 2026-09-03 01:11:51 | 45.44038 | 16.65462 | 152° | 130km/h | 10826m | -15.4m/s | -48.9°C | 37.2% | 0hPa | 2.5V | 08:17:00 | 02:07:29 | 00:00:00 | |
| 9A1FER-10 | 2026-09-03 01:11:46 | 45.44183 | 16.65349 | 152° | 130km/h | 10904m | -15.7m/s | -49.5°C | 37.6% | 0hPa | 2.5V | 00:00:00 | 02:07:24 | 00:00:00 | |
| 9A1FER-3 | 2026-09-03 01:11:36 | 45.44471 | 16.65131 | 152° | 128km/h | 11063m | -15.7m/s | -50.8°C | 38.4% | 0hPa | 2.5V | 00:00:00 | 02:07:14 | 00:00:00 | |
| 9A1FER-10 | 2026-09-03 01:11:31 | 45.44615 | 16.65024 | 152° | 126km/h | 11142m | -15.8m/s | -51.5°C | 38.3% | 0hPa | 2.5V | 00:00:00 | 02:07:09 | 00:00:00 | |
| 9A1FER-3 | 2026-09-03 01:11:21 | 45.44900 | 16.64821 | 154° | 126km/h | 11303m | -16.2m/s | -52.3°C | 33.6% | 0hPa | 2.5V | 00:00:00 | 02:06:59 | 00:00:00 | |
| 9A1FER-10 | 2026-09-03 01:11:16 | 45.45041 | 16.64719 | 154° | 126km/h | 11384m | -16.1m/s | -52.9°C | 33.1% | 0hPa | 2.5V | 00:00:00 | 02:06:54 | 00:00:00 | |
| 9A1FER-3 | 2026-09-03 01:11:06 | 45.45323 | 16.64512 | 154° | 120km/h | 11547m | -16.7m/s | -54.1°C | 30.7% | 0hPa | 2.5V | 00:00:00 | 02:06:44 | 00:00:00 | |
| 9A1FER-10 | 2026-09-03 01:11:01 | 45.45466 | 16.64413 | 155° | 117km/h | 11630m | -16.9m/s | -54.4°C | 28.6% | 0hPa | 2.5V | 00:00:00 | 02:06:39 | 00:00:00 | |
| 9A1FER-3 | 2026-09-03 01:10:51 | 45.45730 | 16.64214 | 149° | 117km/h | 11794m | -16.6m/s | -55.2°C | 22.3% | 0hPa | 2.5V | 00:00:00 | 02:06:29 | 00:00:00 | |
| 9A1FER-10 | 2026-09-03 01:10:46 | 45.45853 | 16.64103 | 146° | 117km/h | 11876m | -16.7m/s | -55.0°C | 19.8% | 0hPa | 2.5V | 00:00:00 | 02:06:24 | 00:00:00 | |
| 9A1FER-3 | 2026-09-03 01:10:36 | 45.46095 | 16.63859 | 146° | 117km/h | 12041m | -17.3m/s | -55.5°C | 17.1% | 0hPa | 2.5V | 00:00:00 | 02:06:14 | 00:00:00 | |
| 9A1FER-10 | 2026-09-03 01:10:31 | 45.46214 | 16.63735 | 142° | 117km/h | 12124m | -17.5m/s | -55.4°C | 15.0% | 0hPa | 2.5V | 08:18:00 | 02:06:09 | 00:00:00 | |
| 9A1FER-3 | 2026-09-03 01:10:21 | 45.46437 | 16.63458 | 138° | 111km/h | 12297m | -17.4m/s | -55.2°C | 11.1% | 0hPa | 2.5V | 00:00:00 | 02:05:59 | 00:00:00 | |
| 9A1FER-10 | 2026-09-03 01:10:16 | 45.46547 | 16.63317 | 140° | 106km/h | 12383m | -17.4m/s | -54.8°C | 9.4% | 0hPa | 2.5V | 00:00:00 | 02:05:54 | 00:00:00 | |
| 9A1FER-3 | 2026-09-03 01:10:06 | 45.46764 | 16.63079 | 145° | 88km/h | 12557m | -17.8m/s | -52.2°C | 6.7% | 0hPa | 2.5V | 00:00:00 | 02:05:44 | 00:00:00 | |
| 9A1FER-10 | 2026-09-03 01:10:01 | 45.46861 | 16.62978 | 144° | 82km/h | 12648m | -17.3m/s | -52.6°C | 6.3% | 0hPa | 2.5V | 00:00:00 | 02:05:39 | 00:00:00 | |
| 9A1FER-3 | 2026-09-03 01:09:51 | 45.47023 | 16.62786 | 135° | 78km/h | 12826m | -18.6m/s | -53.5°C | 5.9% | 0hPa | 2.5V | 00:00:00 | 02:05:29 | 00:00:00 | |
| 9A1FER-10 | 2026-09-03 01:09:46 | 45.47088 | 16.62678 | 127° | 80km/h | 12921m | -19.5m/s | -53.7°C | 5.7% | 0hPa | 2.5V | 00:00:00 | 02:05:24 | 00:00:00 | |
| 9A1FER-3 | 2026-09-03 01:09:36 | 45.47200 | 16.62440 | 124° | 80km/h | 13114m | -18.5m/s | -54.2°C | 5.6% | 0hPa | 2.5V | 08:19:00 | 02:05:14 | 00:00:00 | |
| 9A1FER-10 | 2026-09-03 01:09:31 | 45.47263 | 16.62317 | 130° | 77km/h | 13210m | -20.2m/s | -54.6°C | 5.6% | 0hPa | 2.5V | 00:00:00 | 02:05:09 | 00:00:00 | |
| 9A1FER-3 | 2026-09-03 01:09:21 | 45.47395 | 16.62098 | 134° | 69km/h | 13408m | -20.0m/s | -54.8°C | 5.2% | 0hPa | 2.5V | 00:00:00 | 02:04:59 | 00:00:00 | |
| 9A1FER-10 | 2026-09-03 01:09:16 | 45.47457 | 16.62004 | 131° | 69km/h | 13508m | -20.5m/s | -54.9°C | 5.1% | 0hPa | 2.5V | 00:00:00 | 02:04:54 | 00:00:00 | |
| 9A1FER-3 | 2026-09-03 01:09:06 | 45.47552 | 16.61803 | 118° | 77km/h | 13713m | -20.8m/s | -56.1°C | 5.3% | 0hPa | 2.5V | 00:00:00 | 02:04:44 | 00:00:00 | |
| 9A1FER-10 | 2026-09-03 01:09:01 | 45.47595 | 16.61690 | 119° | 78km/h | 13815m | -20.8m/s | -57.0°C | 5.4% | 0hPa | 2.5V | 00:00:00 | 02:04:39 | 00:00:00 | |
| 9A1FER-3 | 2026-09-03 01:08:51 | 45.47700 | 16.61446 | 126° | 75km/h | 14014m | -20.4m/s | -57.0°C | 5.2% | 0hPa | 2.5V | 00:00:00 | 02:04:29 | 00:00:00 | |
| 9A1FER-10 | 2026-09-03 01:08:46 | 45.47762 | 16.61334 | 129° | 69km/h | 14119m | -20.4m/s | -56.4°C | 4.9% | 0hPa | 2.5V | 00:00:00 | 02:04:24 | 00:00:00 | |
| 9A1FER-3 | 2026-09-03 01:08:36 | 45.47870 | 16.61133 | 127° | 66km/h | 14327m | -21.0m/s | -56.2°C | 4.8% | 0hPa | 2.5V | 00:00:00 | 02:04:14 | 00:00:00 | |
| 9A1FER-10 | 2026-09-03 01:08:31 | 45.47920 | 16.61036 | 126° | 62km/h | 14430m | -20.0m/s | -56.3°C | 4.7% | 0hPa | 2.5V | 00:00:00 | 02:04:09 | 00:00:00 | |
| 9A1FER-3 | 2026-09-03 01:08:21 | 45.48005 | 16.60843 | 117° | 60km/h | 14647m | -21.4m/s | -55.2°C | 4.2% | 0hPa | 2.5V | 00:00:00 | 02:03:59 | 00:00:00 | |
| 9A1FER-10 | 2026-09-03 01:08:16 | 45.48030 | 16.60748 | 108° | 64km/h | 14757m | -21.9m/s | -54.1°C | 3.8% | 0hPa | 2.5V | 08:20:00 | 02:03:54 | 00:00:00 | |
| 9A1FER-3 | 2026-09-03 01:08:06 | 45.48069 | 16.60530 | 104° | 69km/h | 14972m | -22.3m/s | -55.6°C | 4.3% | 0hPa | 2.5V | 00:00:00 | 02:03:44 | 00:00:00 | |
| 9A1FER-10 | 2026-09-03 01:08:01 | 45.48089 | 16.60413 | 104° | 69km/h | 15086m | -22.7m/s | -55.6°C | 4.2% | 0hPa | 2.5V | 00:00:00 | 02:03:39 | 00:00:00 | |
| 9A1FER-3 | 2026-09-03 01:07:51 | 45.48147 | 16.60174 | 117° | 58km/h | 15313m | -22.7m/s | -55.9°C | 4.3% | 0hPa | 2.5V | 00:00:00 | 02:03:29 | 00:00:00 | |
| 9A1FER-10 | 2026-09-03 01:07:46 | 45.48188 | 16.60067 | 123° | 51km/h | 15424m | -21.2m/s | -55.3°C | 4.0% | 0hPa | 2.5V | 00:00:00 | 02:03:24 | 00:00:00 | |
| 9A1FER-3 | 2026-09-03 01:07:36 | 45.48256 | 16.59903 | 113° | 49km/h | 15648m | -23.1m/s | -55.4°C | 4.0% | 0hPa | 2.5V | 00:00:00 | 02:03:14 | 00:00:00 | |
| 9A1FER-10 | 2026-09-03 01:07:31 | 45.48274 | 16.59824 | 106° | 53km/h | 15764m | -22.2m/s | -55.6°C | 4.1% | 0hPa | 2.5V | 00:00:00 | 02:03:09 | 00:00:00 | |
| OE5DRO-10 | 2026-09-03 01:07:28 | 45.48282 | 16.59772 | 98° | 57km/h | 15831m | -23.0m/s | -55.6°C | 4.1% | 0hPa | 2.5V | 00:00:00 | 00:00:00 | 00:00:00 | |
| 9A1FER-3 | 2026-09-03 01:07:21 | 45.48290 | 16.59637 | 92° | 60km/h | 15994m | -23.8m/s | -55.5°C | 4.0% | 0hPa | 2.5V | 08:21:00 | 02:02:59 | 00:00:00 | |
| 9A1FER-10 | 2026-09-03 01:07:16 | 45.48291 | 16.59538 | 91° | 64km/h | 16110m | -21.0m/s | -54.8°C | 3.9% | 0hPa | 2.5V | 00:00:00 | 02:02:54 | 00:00:00 | |
| OE5DRO-10 | 2026-09-03 01:07:09 | 45.48299 | 16.59379 | 103° | 62km/h | 16271m | -24.6m/s | -55.4°C | 4.0% | 0hPa | 2.5V | 00:00:00 | 00:00:00 | 00:00:00 | |
| 9A1FER-3 | 2026-09-03 01:07:06 | 45.48312 | 16.59313 | 110° | 62km/h | 16343m | -23.9m/s | -55.5°C | 4.0% | 0hPa | 2.5V | 00:00:00 | 02:02:44 | 00:00:00 | |
| 9A1FER-10 | 2026-09-03 01:07:01 | 45.48345 | 16.59208 | 122° | 57km/h | 16462m | -23.9m/s | -55.0°C | 3.8% | 0hPa | 2.5V | 00:00:00 | 02:02:39 | 00:00:00 | |
| 9A1FER-3 | 2026-09-03 01:06:51 | 45.48439 | 16.59036 | 130° | 47km/h | 16694m | -23.5m/s | -54.9°C | 3.8% | 0hPa | 2.5V | 00:00:00 | 02:02:29 | 00:00:00 | |
| OE5DRO-10 | 2026-09-03 01:06:50 | 45.48447 | 16.59022 | 132° | 47km/h | 16717m | -22.8m/s | -55.0°C | 3.8% | 0hPa | 2.5V | 00:00:00 | 00:00:00 | 00:00:00 | |
| PETON7-10 | 2026-09-03 01:06:47 | 45.48471 | 16.58983 | 128° | 47km/h | 16784m | -22.8m/s | -54.9°C | 3.8% | 0hPa | 2.5V | 00:00:00 | 00:00:00 | 00:00:00 | |
| 9A1FER-10 | 2026-09-03 01:06:46 | 45.48477 | 16.58970 | 124° | 47km/h | 16807m | -23.9m/s | -55.0°C | 3.8% | 0hPa | 2.5V | 00:00:00 | 02:02:24 | 00:00:00 | |
| 9A1FER-3 | 2026-09-03 01:06:36 | 45.48521 | 16.58809 | 105° | 47km/h | 17041m | -24.9m/s | -55.9°C | 4.2% | 0hPa | 2.5V | 00:00:00 | 02:02:14 | 00:00:00 | |
| PETON7-10 | 2026-09-03 01:06:32 | 45.48536 | 16.58743 | 110° | 46km/h | 17141m | -26.5m/s | -55.3°C | 4.0% | 0hPa | 2.5V | 00:00:00 | 02:02:10 | 00:00:00 | |
| 9A1FER-10 | 2026-09-03 01:06:31 | 45.48539 | 16.58728 | 109° | 46km/h | 17168m | -27.5m/s | -55.2°C | 3.9% | 0hPa | 2.5V | 00:00:00 | 02:02:09 | 00:00:00 | |
| 9A1FER-3 | 2026-09-03 01:06:21 | 45.48585 | 16.58571 | 115° | 33km/h | 17439m | -27.5m/s | -54.9°C | 3.9% | 0hPa | 2.5V | 00:00:00 | 02:01:59 | 00:00:00 | |
| PETON7-10 | 2026-09-03 01:06:17 | 45.48605 | 16.58514 | 116° | 24km/h | 17548m | -27.2m/s | -54.2°C | 3.7% | 0hPa | 2.5V | 08:22:00 | 00:00:00 | 00:00:00 | |
| 9A1FER-10 | 2026-09-03 01:06:16 | 45.48609 | 16.58503 | 119° | 22km/h | 17575m | -26.9m/s | -54.1°C | 3.6% | 0hPa | 2.6V | 00:00:00 | 02:01:54 | 00:00:00 | |
| OE5DRO-10 | 2026-09-03 01:06:12 | 45.48622 | 16.58461 | 114° | 15km/h | 17682m | -28.1m/s | -53.7°C | 3.5% | 0hPa | 2.6V | 00:00:00 | 00:00:00 | 00:00:00 | |
| 9A1FER-3 | 2026-09-03 01:06:06 | 45.48633 | 16.58416 | 104° | 13km/h | 17845m | -27.4m/s | -53.9°C | 3.4% | 0hPa | 2.6V | 00:00:00 | 02:01:44 | 00:00:00 | |
| PETON7-10 | 2026-09-03 01:06:02 | 45.48636 | 16.58399 | 82° | 16km/h | 17952m | -27.2m/s | -53.3°C | 3.2% | 0hPa | 2.6V | 00:00:00 | 00:00:00 | 00:00:00 | |
| 9A1FER-10 | 2026-09-03 01:06:01 | 45.48636 | 16.58395 | 89° | 16km/h | 17978m | -27.5m/s | -53.2°C | 3.2% | 0hPa | 2.6V | 08:23:00 | 02:01:39 | 00:00:00 | |
| OE5DRO-10 | 2026-09-03 01:05:53 | 45.48618 | 16.58374 | 20° | 29km/h | 18195m | -27.0m/s | -54.9°C | 3.6% | 0hPa | 2.5V | 00:00:00 | 00:00:00 | 00:00:00 | |
| 9A1FER-3 | 2026-09-03 01:05:51 | 45.48609 | 16.58368 | 31° | 29km/h | 18250m | -27.4m/s | -55.2°C | 3.7% | 0hPa | 2.6V | 00:00:00 | 02:01:29 | 00:00:00 | |
| PETON7-10 | 2026-09-03 01:05:47 | 45.48588 | 16.58349 | 37° | 31km/h | 18359m | -26.7m/s | -55.9°C | 4.0% | 0hPa | 2.5V | 00:00:00 | 02:01:25 | 00:00:00 | |
| 9A1FER-10 | 2026-09-03 01:05:46 | 45.48582 | 16.58343 | 43° | 33km/h | 18386m | -27.5m/s | -55.9°C | 4.0% | 0hPa | 2.5V | 00:00:00 | 02:01:24 | 00:00:00 | |
| 9A1FER-3 | 2026-09-03 01:05:36 | 45.48556 | 16.58241 | 95° | 35km/h | 18661m | -27.2m/s | -56.6°C | 4.3% | 0hPa | 2.5V | 00:00:00 | 02:01:14 | 00:00:00 | |
| OE5DRO-10 | 2026-09-03 01:05:34 | 45.48560 | 16.58215 | 103° | 33km/h | 18714m | -26.7m/s | -56.3°C | 4.2% | 0hPa | 2.5V | 00:00:00 | 00:00:00 | 00:00:00 | |
| PETON7-10 | 2026-09-03 01:05:32 | 45.48566 | 16.58188 | 107° | 31km/h | 18768m | -28.8m/s | -56.2°C | 4.1% | 0hPa | 2.5V | 00:00:00 | 00:00:00 | 00:00:00 | |
| 9A1FER-10 | 2026-09-03 01:05:31 | 45.48569 | 16.58176 | 110° | 31km/h | 18797m | -28.5m/s | -56.3°C | 4.1% | 0hPa | 2.6V | 00:00:00 | 02:01:09 | 00:00:00 | |
| OE5DXL-15 | 2026-09-03 01:05:21 | 45.48597 | 16.58072 | 104° | 24km/h | 19065m | -27.2m/s | -54.3°C | 3.5% | 0hPa | 2.6V | 00:00:00 | 00:00:00 | 00:00:00 | |
| 9A1FER-10 | 2026-09-03 01:05:16 | 45.48603 | 16.58019 | 96° | 22km/h | 19201m | -26.7m/s | -55.2°C | 3.7% | 0hPa | 2.6V | 00:00:00 | 02:00:54 | 00:00:00 | |
| OE5DRO-10 | 2026-09-03 01:05:15 | 45.48604 | 16.58008 | 98° | 20km/h | 19228m | -28.0m/s | -55.3°C | 3.7% | 0hPa | 2.6V | 00:00:00 | 00:00:00 | 00:00:00 | |
| 9A1FER-3 | 2026-09-03 01:05:06 | 45.48625 | 16.57942 | 121° | 22km/h | 19472m | -25.4m/s | -56.0°C | 4.0% | 0hPa | 2.6V | 08:24:00 | 02:00:44 | 00:00:00 | |
| PETON7-10 | 2026-09-03 01:05:01 | 45.48629 | 16.57916 | 82° | 27km/h | 19602m | -27.5m/s | -55.4°C | 3.8% | 0hPa | 2.6V | 00:00:00 | 02:00:39 | 00:00:00 | |
| OE5DRO-10 | 2026-09-03 01:04:56 | 45.48621 | 16.57875 | 84° | 29km/h | 19735m | -25.4m/s | -55.7°C | 4.0% | 0hPa | 2.6V | 08:24:00 | 00:00:00 | 00:00:00 | |
| 9A1FER-3 | 2026-09-03 01:04:51 | 45.48623 | 16.57822 | 106° | 29km/h | 19866m | -26.5m/s | -55.9°C | 4.0% | 0hPa | 2.6V | 00:00:00 | 02:00:29 | 00:00:00 | |
| 9A1FER-10 | 2026-09-03 01:04:46 | 45.48641 | 16.57771 | 126° | 26km/h | 19999m | -26.6m/s | -56.0°C | 4.1% | 0hPa | 2.6V | 00:00:00 | 02:00:24 | 00:00:00 | |
| PETON7-10 | 2026-09-03 01:04:45 | 45.48646 | 16.57762 | 123° | 26km/h | 20025m | -26.8m/s | -56.0°C | 4.1% | 0hPa | 2.6V | 00:00:00 | 00:00:00 | 00:00:00 | |
| OE5DRO-10 | 2026-09-03 01:04:37 | 45.48677 | 16.57694 | 122° | 22km/h | 20240m | -26.6m/s | -55.1°C | 3.9% | 0hPa | 2.6V | 00:00:00 | 00:00:00 | 00:00:00 | |
| 9A1FER-3 | 2026-09-03 01:04:36 | 45.48680 | 16.57687 | 128° | 22km/h | 20266m | -26.7m/s | -55.1°C | 3.9% | 0hPa | 2.6V | 00:00:00 | 02:00:14 | 00:00:00 | |
| 9A1FER-10 | 2026-09-03 01:04:31 | 45.48699 | 16.57658 | 140° | 22km/h | 20405m | -27.0m/s | -55.3°C | 3.9% | 0hPa | 2.6V | 00:00:00 | 02:00:09 | 00:00:00 | |
| PETON7-10 | 2026-09-03 01:04:30 | 45.48704 | 16.57653 | 146° | 22km/h | 20433m | -26.8m/s | -55.3°C | 4.0% | 0hPa | 2.6V | 00:00:00 | 00:00:00 | 00:00:00 | |
| 9A1FER-3 | 2026-09-03 01:04:21 | 45.48747 | 16.57611 | 156° | 22km/h | 20680m | -28.1m/s | -54.2°C | 3.7% | 0hPa | 2.6V | 00:00:00 | 01:59:59 | 00:00:00 | |
| OE5DRO-10 | 2026-09-03 01:04:18 | 45.48762 | 16.57603 | 156° | 22km/h | 20764m | -27.5m/s | -54.3°C | 3.8% | 0hPa | 2.6V | 00:00:00 | 00:00:00 | 00:00:00 | |
| 9A1FER-10 | 2026-09-03 01:04:16 | 45.48771 | 16.57596 | 157° | 22km/h | 20818m | -27.7m/s | -54.1°C | 3.7% | 0hPa | 2.6V | 00:00:00 | 01:59:54 | 00:00:00 | |
| PETON7-10 | 2026-09-03 01:04:15 | 45.48775 | 16.57593 | 151° | 22km/h | 20847m | -27.7m/s | -54.1°C | 3.7% | 0hPa | 2.6V | 00:00:00 | 01:59:53 | 00:00:00 | |
| 9A1FER-3 | 2026-09-03 01:04:06 | 45.48816 | 16.57552 | 145° | 24km/h | 21106m | -27.5m/s | -54.1°C | 3.7% | 0hPa | 2.6V | 00:00:00 | 01:59:44 | 00:00:00 | |
| 9A1FER-10 | 2026-09-03 01:04:01 | 45.48841 | 16.57529 | 162° | 20km/h | 21244m | -27.8m/s | -53.7°C | 3.6% | 0hPa | 2.6V | 00:00:00 | 01:59:39 | 00:00:00 | |
| PETON7-10 | 2026-09-03 01:04:00 | 45.48847 | 16.57527 | 165° | 20km/h | 21272m | -29.0m/s | -53.7°C | 3.5% | 0hPa | 2.6V | 08:25:00 | 00:00:00 | 00:00:00 | |
| OE5DRO-10 | 2026-09-03 01:03:59 | 45.48852 | 16.57525 | 166° | 16km/h | 21301m | -28.9m/s | -53.6°C | 3.5% | 0hPa | 2.5V | 00:00:00 | 00:00:00 | 00:00:00 | |
| 9A1FER-3 | 2026-09-03 01:03:51 | 45.48897 | 16.57536 | 207° | 9km/h | 21520m | -28.0m/s | -53.5°C | 3.4% | 0hPa | 2.5V | 00:00:00 | 01:59:29 | 00:00:00 | |
| 9A1FER-10 | 2026-09-03 01:03:46 | 45.48912 | 16.57553 | 232° | 5km/h | 21655m | -25.7m/s | -53.7°C | 3.5% | 0hPa | 2.5V | 08:25:00 | 01:59:24 | 00:00:00 | |
| PETON7-10 | 2026-09-03 01:03:45 | 45.48913 | 16.57556 | 251° | 5km/h | 21681m | -26.0m/s | -53.9°C | 3.6% | 0hPa | 2.5V | 00:00:00 | 00:00:00 | 00:00:00 | |
| OE5DRO-10 | 2026-09-03 01:03:40 | 45.48909 | 16.57565 | 313° | 5km/h | 21809m | -24.9m/s | -54.2°C | 3.7% | 0hPa | 2.5V | 00:00:00 | 00:00:00 | 00:00:00 | |
| 9A1FER-3 | 2026-09-03 01:03:36 | 45.48906 | 16.57571 | 334° | 5km/h | 21905m | -23.3m/s | -54.3°C | 3.9% | 0hPa | 2.5V | 00:00:00 | 01:59:14 | 00:00:00 | |
| 9A1FER-10 | 2026-09-03 01:03:31 | 45.48900 | 16.57573 | 33° | 5km/h | 22029m | -25.8m/s | -53.8°C | 3.6% | 0hPa | 2.6V | 00:00:00 | 01:59:09 | 00:00:00 | |
| PETON7-10 | 2026-09-03 01:03:30 | 45.48899 | 16.57572 | 18° | 5km/h | 22055m | -26.0m/s | -53.8°C | 3.7% | 0hPa | 2.6V | 00:00:00 | 01:59:08 | 00:00:00 | |
| OE5DXL-15 | 2026-09-03 01:03:21 | 45.48895 | 16.57561 | 204° | 9km/h | 22289m | -26.0m/s | -53.4°C | 3.5% | 0hPa | 2.6V | 00:00:00 | 00:00:00 | 00:00:00 | |
| 9A1FER-10 | 2026-09-03 01:03:16 | 45.48900 | 16.57567 | 228° | 7km/h | 22417m | -25.8m/s | -52.7°C | 3.2% | 0hPa | 2.5V | 00:00:00 | 01:58:54 | 00:00:00 | |
| PETON7-10 | 2026-09-03 01:03:15 | 45.48901 | 16.57569 | 236° | 7km/h | 22443m | -25.9m/s | -52.9°C | 3.2% | 0hPa | 2.5V | 00:00:00 | 00:00:00 | 00:00:00 | |
| PG1ADW-2 | 2026-09-03 01:03:10 | 45.48900 | 16.57573 | 319° | 13km/h | 22567m | -24.7m/s | -53.5°C | 3.4% | 0hPa | 2.6V | 00:00:00 | 00:00:00 | 00:00:00 | |
| 9A1FER-3 | 2026-09-03 01:03:06 | 45.48895 | 16.57580 | 315° | 15km/h | 22670m | -26.5m/s | -53.9°C | 3.4% | 0hPa | 2.5V | 00:00:00 | 01:58:44 | 00:00:00 | |
| OE5DRO-10 | 2026-09-03 01:03:02 | 45.48888 | 16.57595 | 308° | 16km/h | 22776m | -26.4m/s | -54.5°C | 3.7% | 0hPa | 2.5V | 00:00:00 | 00:00:00 | 00:00:00 | |
| 9A1FER-10 | 2026-09-03 01:03:01 | 45.48886 | 16.57599 | 307° | 16km/h | 22803m | -26.1m/s | -54.6°C | 3.7% | 0hPa | 2.5V | 00:00:00 | 01:58:39 | 00:00:00 | |
| PETON7-10 | 2026-09-03 01:03:00 | 45.48884 | 16.57603 | 320° | 16km/h | 22829m | -25.3m/s | -54.7°C | 3.8% | 0hPa | 2.5V | 00:00:00 | 00:00:00 | 00:00:00 | |
| 9A1FER-3 | 2026-09-03 01:02:51 | 45.48853 | 16.57593 | 48° | 13km/h | 23065m | -26.0m/s | -55.6°C | 4.2% | 0hPa | 2.5V | 08:26:00 | 01:58:29 | 00:00:00 | |
| PG1ADW-2 | 2026-09-03 01:02:50 | 45.48850 | 16.57588 | 56° | 11km/h | 23091m | -25.6m/s | -55.7°C | 4.2% | 0hPa | 2.5V | 00:00:00 | 00:00:00 | 00:00:00 | |
| 9A1FER-10 | 2026-09-03 01:02:46 | 45.48846 | 16.57562 | 103° | 9km/h | 23195m | -25.7m/s | -55.5°C | 4.3% | 0hPa | 2.5V | 00:00:00 | 01:58:24 | 00:00:00 | |
| PETON7-10 | 2026-09-03 01:02:45 | 45.48847 | 16.57556 | 118° | 7km/h | 23221m | -26.3m/s | -55.0°C | 4.1% | 0hPa | 2.5V | 00:00:00 | 01:58:23 | 00:00:00 | |
| OE5DRO-10 | 2026-09-03 01:02:43 | 45.48852 | 16.57549 | 135° | 9km/h | 23271m | -25.5m/s | -54.4°C | 3.8% | 0hPa | 2.5V | 00:00:00 | 00:00:00 | 00:00:00 | |
| 9A1FER-3 | 2026-09-03 01:02:36 | 45.48863 | 16.57549 | 138° | 11km/h | 23459m | -27.3m/s | -54.3°C | 3.9% | 0hPa | 2.5V | 00:00:00 | 01:58:14 | 00:00:00 | |
| 9A1FER-10 | 2026-09-03 01:02:31 | 45.48866 | 16.57538 | 112° | 11km/h | 23596m | -26.6m/s | -54.0°C | 4.0% | 0hPa | 2.5V | 00:00:00 | 01:58:09 | 00:00:00 | |
| PETON7-10 | 2026-09-03 01:02:30 | 45.48867 | 16.57534 | 119° | 11km/h | 23623m | -26.6m/s | -53.8°C | 3.9% | 0hPa | 2.5V | 00:00:00 | 00:00:00 | 00:00:00 | |
| OE5DRO-10 | 2026-09-03 01:02:24 | 45.48884 | 16.57513 | 147° | 9km/h | 23795m | -31.0m/s | -52.8°C | 3.6% | 0hPa | 2.6V | 00:00:00 | 00:00:00 | 00:00:00 | |
| 9A1FER-3 | 2026-09-03 01:02:21 | 45.48890 | 16.57508 | 136° | 9km/h | 23882m | -27.8m/s | -52.7°C | 3.6% | 0hPa | 2.6V | 00:00:00 | 01:57:59 | 00:00:00 | |
| 9A1FER-10 | 2026-09-03 01:02:16 | 45.48897 | 16.57499 | 149° | 9km/h | 24032m | -31.2m/s | -51.9°C | 3.4% | 0hPa | 2.6V | 00:00:00 | 01:57:54 | 00:00:00 | |
| PETON7-10 | 2026-09-03 01:02:15 | 45.48899 | 16.57498 | 162° | 9km/h | 24063m | -32.6m/s | -51.6°C | 3.3% | 0hPa | 2.6V | 00:00:00 | 00:00:00 | 00:00:00 | |
| PG1ADW-2 | 2026-09-03 01:02:10 | 45.48912 | 16.57507 | 221° | 7km/h | 24218m | -29.7m/s | -51.2°C | 3.2% | 0hPa | 2.6V | 08:27:00 | 01:57:48 | 00:00:00 | |
| 9A1FER-3 | 2026-09-03 01:02:06 | 45.48917 | 16.57520 | 253° | 7km/h | 24344m | -30.7m/s | -51.5°C | 3.3% | 0hPa | 2.5V | 00:00:00 | 01:57:44 | 00:00:00 | |
| OE5DRO-10 | 2026-09-03 01:02:05 | 45.48918 | 16.57523 | 255° | 7km/h | 24374m | -30.4m/s | -51.6°C | 3.3% | 0hPa | 2.5V | 08:27:00 | 00:00:00 | 00:00:00 | |
| 9A1FER-10 | 2026-09-03 01:02:01 | 45.48921 | 16.57528 | 191° | 7km/h | 24499m | -32.4m/s | -51.7°C | 3.4% | 0hPa | 2.6V | 00:00:00 | 01:57:39 | 00:00:00 | |
| PETON7-10 | 2026-09-03 01:02:00 | 45.48923 | 16.57529 | 194° | 9km/h | 24531m | -32.1m/s | -51.6°C | 3.3% | 0hPa | 2.6V | 00:00:00 | 01:57:38 | 00:00:00 | |
| 9A1FER-3 | 2026-09-03 01:01:51 | 45.48941 | 16.57538 | 233° | 16km/h | 24801m | -30.4m/s | -50.6°C | 3.2% | 0hPa | 2.6V | 00:00:00 | 01:57:29 | 00:00:00 | |
| PG1ADW-2 | 2026-09-03 01:01:50 | 45.48941 | 16.57539 | 290° | 18km/h | 24831m | -29.9m/s | -50.4°C | 3.1% | 0hPa | 2.6V | 00:00:00 | 00:00:00 | 00:00:00 | |
| 9A1FER-10 | 2026-09-03 01:01:46 | 45.48937 | 16.57552 | 303° | 20km/h | 24956m | -32.1m/s | -50.5°C | 3.1% | 0hPa | 2.6V | 00:00:00 | 01:57:24 | 00:00:00 | |
| PETON7-10 | 2026-09-03 01:01:45 | 45.48936 | 16.57557 | 300° | 22km/h | 24988m | -31.7m/s | -50.5°C | 3.1% | 0hPa | 2.6V | 08:27:00 | 00:00:00 | 00:00:00 | |
| 9A1FER-3 | 2026-09-03 01:01:36 | 45.48900 | 16.57593 | 22° | 18km/h | 25271m | -32.1m/s | -50.9°C | 3.3% | 0hPa | 2.5V | 00:00:00 | 01:57:14 | 00:00:00 | |
| 9A1FER-10 | 2026-09-03 01:01:31 | 45.48892 | 16.57565 | 109° | 15km/h | 25430m | -30.4m/s | -50.6°C | 3.4% | 0hPa | 2.5V | 08:27:00 | 01:57:09 | 00:00:00 | |
| PETON7-10 | 2026-09-03 01:01:30 | 45.48895 | 16.57558 | 126° | 15km/h | 25462m | -33.7m/s | -50.5°C | 3.3% | 0hPa | 2.5V | 00:00:00 | 00:00:00 | 00:00:00 | |
| OE5DRO-10 | 2026-09-03 01:01:27 | 45.48909 | 16.57545 | 161° | 11km/h | 25561m | -31.6m/s | -49.6°C | 3.1% | 0hPa | 2.5V | 00:00:00 | 00:00:00 | 00:00:00 | |
| OE5DXL-15 | 2026-09-03 01:01:21 | 45.48929 | 16.57548 | 258° | 9km/h | 25762m | -32.0m/s | -49.1°C | 3.0% | 0hPa | 2.5V | 00:00:00 | 00:00:00 | 00:00:00 | |
| 9A1FER-10 | 2026-09-03 01:01:16 | 45.48923 | 16.57542 | 61° | 9km/h | 25923m | -33.1m/s | -48.9°C | 3.0% | 0hPa | 2.5V | 00:00:00 | 01:56:54 | 00:00:00 | |
| PETON7-10 | 2026-09-03 01:01:15 | 45.48922 | 16.57539 | 70° | 7km/h | 25957m | -36.1m/s | -48.6°C | 2.9% | 0hPa | 2.5V | 00:00:00 | 01:56:53 | 00:00:00 | |
| PG1ADW-2 | 2026-09-03 01:01:10 | 45.48924 | 16.57526 | 164° | 9km/h | 26127m | -32.5m/s | -48.1°C | 2.8% | 0hPa | 2.5V | 00:00:00 | 00:00:00 | 00:00:00 | |
| OE5DRO-10 | 2026-09-03 01:01:08 | 45.48928 | 16.57528 | 214° | 9km/h | 26190m | -32.7m/s | -47.9°C | 2.8% | 0hPa | 2.6V | 00:00:00 | 00:00:00 | 00:00:00 | |
| 9A1FER-3 | 2026-09-03 01:01:06 | 45.48931 | 16.57532 | 228° | 9km/h | 26255m | -34.1m/s | -47.6°C | 2.7% | 0hPa | 2.5V | 00:00:00 | 01:56:44 | 00:00:00 | |
| 9A1FER-10 | 2026-09-03 01:01:01 | 45.48933 | 16.57545 | 320° | 13km/h | 26425m | -32.8m/s | -47.6°C | 2.7% | 0hPa | 2.5V | 00:00:00 | 01:56:39 | 00:00:00 | |
| PETON7-10 | 2026-09-03 01:01:00 | 45.48932 | 16.57546 | 350° | 13km/h | 26458m | -34.2m/s | -47.6°C | 2.8% | 0hPa | 2.5V | 00:00:00 | 00:00:00 | 00:00:00 | |
| 9A1FER-3 | 2026-09-03 01:00:51 | 45.48909 | 16.57537 | 44° | 13km/h | 26780m | -35.7m/s | -46.8°C | 2.7% | 0hPa | 2.5V | 00:00:00 | 01:56:29 | 00:00:00 | |
| PG1ADW-2 | 2026-09-03 01:00:50 | 45.48907 | 16.57533 | 55° | 11km/h | 26817m | -37.2m/s | -46.7°C | 2.6% | 0hPa | 2.5V | 00:00:00 | 01:56:28 | 00:00:00 | |
| OE5DRO-10 | 2026-09-03 01:00:49 | 45.48905 | 16.57528 | 60° | 11km/h | 26854m | -37.3m/s | -46.7°C | 2.6% | 0hPa | 2.5V | 00:00:00 | 00:00:00 | 00:00:00 | |
| 9A1FER-10 | 2026-09-03 01:00:46 | 45.48899 | 16.57512 | 67° | 11km/h | 26966m | -35.9m/s | -46.7°C | 2.7% | 0hPa | 2.5V | 00:00:00 | 01:56:24 | 00:00:00 | |
| PETON7-10 | 2026-09-03 01:00:45 | 45.48898 | 16.57507 | 61° | 9km/h | 27000m | -33.5m/s | -46.8°C | 2.7% | 0hPa | 2.5V | 00:00:00 | 00:00:00 | 00:00:00 | |
| 9A1FER-3 | 2026-09-03 01:00:36 | 45.48897 | 16.57481 | 183° | 7km/h | 27340m | -41.7m/s | -46.2°C | 2.6% | 0hPa | 2.5V | 08:28:00 | 01:56:14 | 00:00:00 | |
| 9A1FER-10 | 2026-09-03 01:00:31 | 45.48905 | 16.57492 | 267° | 7km/h | 27521m | -32.4m/s | -46.1°C | 2.6% | 0hPa | 2.6V | 00:00:00 | 01:56:09 | 00:00:00 | |
| PETON7-10 | 2026-09-03 01:00:30 | 45.48905 | 16.57494 | 287° | 5km/h | 27556m | -38.2m/s | -45.9°C | 2.5% | 0hPa | 2.6V | 00:00:00 | 01:56:08 | 00:00:00 | |
| 9A1FER-3 | 2026-09-03 01:00:21 | 45.48895 | 16.57493 | 107° | 9km/h | 27878m | -32.2m/s | -45.6°C | 2.5% | 0hPa | 2.6V | 00:00:00 | 01:55:59 | 00:00:00 | |
| 9A1FER-10 | 2026-09-03 01:00:16 | 45.48897 | 16.57498 | 276° | 13km/h | 28052m | -31.8m/s | -45.3°C | 2.5% | 0hPa | 2.6V | 00:00:00 | 01:55:54 | 00:00:00 | |
| PETON7-10 | 2026-09-03 01:00:15 | 45.48896 | 16.57499 | 342° | 13km/h | 28085m | -35.0m/s | -45.2°C | 2.4% | 0hPa | 2.6V | 00:00:00 | 00:00:00 | 00:00:00 | |
| OE5DRO-10 | 2026-09-03 01:00:11 | 45.48888 | 16.57497 | 22° | 13km/h | 28230m | -35.6m/s | -45.6°C | 2.5% | 0hPa | 2.5V | 00:00:00 | 00:00:00 | 00:00:00 | |
| PG1ADW-2 | 2026-09-03 01:00:10 | 45.48885 | 16.57495 | 45° | 13km/h | 28267m | -37.2m/s | -45.5°C | 2.5% | 0hPa | 2.5V | 00:00:00 | 00:00:00 | 00:00:00 | |
| OE8JPQ-2 | 2026-09-03 01:00:08 | 45.48881 | 16.57485 | 73° | 11km/h | 28350m | -42.6m/s | -45.6°C | 2.6% | 0hPa | 2.5V | 00:00:00 | 00:00:00 | 00:00:00 | |
| 9A1FER-3 | 2026-09-03 01:00:06 | 45.48880 | 16.57475 | 95° | 11km/h | 28434m | -40.7m/s | -45.6°C | 2.6% | 0hPa | 2.5V | 00:00:00 | 01:55:44 | 00:00:00 | |
| 9A1FER-10 | 2026-09-03 01:00:01 | 45.48886 | 16.57451 | 137° | 7km/h | 28627m | -41.4m/s | -44.7°C | 2.4% | 0hPa | 2.5V | 00:00:00 | 01:55:39 | 00:00:00 | |
| PETON7-10 | 2026-09-03 01:00:00 | 45.48888 | 16.57448 | 136° | 9km/h | 28668m | -38.9m/s | -44.7°C | 2.4% | 0hPa | 2.6V | 00:00:00 | 00:00:00 | 00:00:00 | |
| OE5DRO-10 | 2026-09-03 00:59:52 | 45.48905 | 16.57435 | 139° | 7km/h | 28975m | -38.7m/s | -45.1°C | 2.5% | 0hPa | 2.6V | 00:00:00 | 00:00:00 | 00:00:00 | |
| 9A1FER-3 | 2026-09-03 00:59:51 | 45.48906 | 16.57433 | 117° | 7km/h | 29013m | -39.0m/s | -45.0°C | 2.5% | 0hPa | 2.6V | 00:00:00 | 01:55:29 | 00:00:00 | |
| PG1ADW-2 | 2026-09-03 00:59:50 | 45.48906 | 16.57432 | 97° | 7km/h | 29051m | -37.3m/s | -45.0°C | 2.5% | 0hPa | 2.5V | 00:00:00 | 00:00:00 | 00:00:00 | |
| OE8JPQ-2 | 2026-09-03 00:59:48 | 45.48906 | 16.57428 | 79° | 5km/h | 29127m | -40.2m/s | -44.5°C | 2.4% | 0hPa | 2.5V | 00:00:00 | 01:55:26 | 00:00:00 | |
| 9A1FER-10 | 2026-09-03 00:59:44 | 45.48905 | 16.57419 | 82° | 5km/h | 29290m | -40.4m/s | -44.0°C | 2.4% | 0hPa | 2.5V | 00:00:00 | 01:55:22 | 00:00:00 | |
| OE3JTB-15 | 2026-09-03 00:59:41 | 45.48903 | 16.57417 | 33° | 5km/h | 29402m | -33.8m/s | -44.4°C | 2.5% | 0hPa | 2.5V | 00:00:00 | 00:00:00 | 00:00:00 | |
| 9A1FER-3 | 2026-09-03 00:59:36 | 45.48894 | 16.57407 | 29° | 7km/h | 29574m | -38.4m/s | -44.3°C | 2.5% | 0hPa | 2.5V | 00:00:00 | 01:55:14 | 00:00:00 | |
| OE5DRO-10 | 2026-09-03 00:59:33 | 45.48890 | 16.57401 | 41° | 11km/h | 29695m | -42.2m/s | -43.5°C | 2.3% | 0hPa | 2.5V | 00:00:00 | 00:00:00 | 00:00:00 | |
| PETON7-10 | 2026-09-03 00:59:30 | 45.48890 | 16.57399 | 203° | 11km/h | 29813m | -37.0m/s | -43.0°C | 2.3% | 0hPa | 2.5V | 00:00:00 | 00:00:00 | 08:30:00 | |
| 9A1FER-10 | 2026-09-03 00:59:29 | 45.48890 | 16.57400 | 218° | 13km/h | 29852m | -40.6m/s | -42.8°C | 2.2% | 0hPa | 2.5V | 00:00:00 | 01:55:07 | 00:00:00 | |
| OE8JPQ-2 | 2026-09-03 00:59:28 | 45.48891 | 16.57401 | 219° | 13km/h | 29892m | -39.6m/s | -42.7°C | 2.2% | 0hPa | 2.5V | 00:00:00 | 00:00:00 | 08:30:00 | |
| OE5DXL-15 | 2026-09-03 00:59:21 | 45.48909 | 16.57415 | 219° | 15km/h | 30191m | -41.1m/s | -42.4°C | 2.2% | 0hPa | 2.6V | 00:00:00 | 00:00:00 | 00:00:00 | |
| PETON7-10 | 2026-09-03 00:59:15 | 45.48920 | 16.57441 | 298° | 13km/h | 30433m | -46.8m/s | -42.3°C | 2.1% | 0hPa | 2.6V | 00:00:00 | 00:00:00 | 00:00:00 | |
| 9A1FER-10 | 2026-09-03 00:59:14 | 45.48919 | 16.57445 | 300° | 13km/h | 30479m | -46.8m/s | -42.4°C | 2.2% | 0hPa | 2.6V | 00:00:00 | 01:54:52 | 08:30:00 | |
| PG1ADW-2 | 2026-09-03 00:59:10 | 45.48907 | 16.57453 | 356° | 15km/h | 30667m | -45.9m/s | -42.3°C | 2.1% | 0hPa | 2.6V | 00:00:00 | 00:00:00 | 08:30:00 | |
| OE3JTB-15 | 2026-09-03 00:59:09 | 45.48904 | 16.57453 | 353° | 15km/h | 30712m | -45.8m/s | -42.1°C | 2.1% | 0hPa | 2.5V | 00:00:00 | 01:54:47 | 00:00:00 | |
| OE8JPQ-2 | 2026-09-03 00:59:08 | 45.48901 | 16.57454 | 343° | 15km/h | 30757m | -45.6m/s | -41.9°C | 2.1% | 0hPa | 2.5V | 00:00:00 | 00:00:00 | 00:00:00 | |
| 9A1FER-3 | 2026-09-03 00:59:06 | 45.48896 | 16.57458 | 322° | 13km/h | 30850m | -45.0m/s | -42.1°C | 2.2% | 0hPa | 2.5V | 00:00:00 | 01:54:44 | 00:00:00 | |
| PETON7-10 | 2026-09-03 00:59:00 | 45.48882 | 16.57464 | 27° | 20km/h | 31089m | -35.8m/s | -42.3°C | 2.3% | 0hPa | 2.5V | 00:00:00 | 01:54:38 | 00:00:00 | |
| 9A1FER-10 | 2026-09-03 00:58:59 | 45.48880 | 16.57462 | 54° | 22km/h | 31124m | -35.4m/s | -42.3°C | 2.3% | 0hPa | 2.5V | 00:00:00 | 01:54:37 | 00:00:00 | |
| OE5DRO-10 | 2026-09-03 00:58:55 | 45.48879 | 16.57436 | 126° | 20km/h | 31260m | -39.6m/s | -41.2°C | 2.1% | 0hPa | 2.5V | 00:00:00 | 00:00:00 | 00:00:00 | |
| 9A1FER-3 | 2026-09-03 00:58:51 | 45.48888 | 16.57439 | 259° | 20km/h | 31422m | -39.4m/s | -40.5°C | 1.9% | 0hPa | 2.5V | 00:00:00 | 01:54:29 | 00:00:00 | |
| PG1ADW-2 | 2026-09-03 00:58:50 | 45.48889 | 16.57447 | 261° | 22km/h | 31460m | -35.8m/s | -40.4°C | 1.9% | 0hPa | 2.5V | 00:00:00 | 00:00:00 | 00:00:00 | |
| OE8JPQ-2 | 2026-09-03 00:58:48 | 45.48890 | 16.57469 | 276° | 22km/h | 31528m | -32.9m/s | -40.2°C | 1.8% | 0hPa | 2.5V | 00:00:00 | 01:54:26 | 00:00:00 | |
| PETON7-10 | 2026-09-03 00:58:45 | 45.48888 | 16.57500 | 261° | 20km/h | 31641m | -44.1m/s | -40.2°C | 1.8% | 0hPa | 2.5V | 00:00:00 | 00:00:00 | 00:00:00 | |
| 9A1FER-10 | 2026-09-03 00:58:44 | 45.48888 | 16.57506 | 262° | 20km/h | 31682m | -37.9m/s | -40.4°C | 1.9% | 0hPa | 2.5V | 00:00:00 | 01:54:22 | 00:00:00 | |
| OE3JTB-15 | 2026-09-03 00:58:40 | 45.48891 | 16.57527 | 260° | 18km/h | 31766m | -2.8m/s | -40.6°C | 2.0% | 0hPa | 2.5V | 00:00:00 | 00:00:00 | 08:30:00 | |
| 9A1FER-3 | 2026-09-03 00:58:36 | 45.48892 | 16.57550 | 273° | 22km/h | 31746m | 6.7m/s | -40.7°C | 2.0% | 0hPa | 2.5V | 00:00:00 | 01:54:14 | 00:00:00 | |
| PETON7-10 | 2026-09-03 00:58:30 | 45.48887 | 16.57609 | 282° | 18km/h | 31711m | 4.9m/s | -40.8°C | 1.9% | 0hPa | 2.5V | 00:00:00 | 00:00:00 | 00:00:00 | |
| 9A1FER-10 | 2026-09-03 00:58:29 | 45.48886 | 16.57618 | 274° | 16km/h | 31706m | 6.0m/s | -40.8°C | 2.0% | 0hPa | 2.5V | 00:00:00 | 01:54:07 | 00:00:00 | |
| OE8JPQ-2 | 2026-09-03 00:58:28 | 45.48887 | 16.57626 | 261° | 15km/h | 31700m | 6.6m/s | -40.8°C | 2.0% | 0hPa | 2.5V | 00:00:00 | 00:00:00 | 00:00:00 | |
| 9A1FER-3 | 2026-09-03 00:58:21 | 45.48900 | 16.57656 | 247° | 13km/h | 31659m | 6.8m/s | -40.8°C | 1.9% | 0hPa | 2.5V | 00:00:00 | 01:53:59 | 08:30:00 | |
| OE5DRO-10 | 2026-09-03 00:58:17 | 45.48905 | 16.57682 | 267° | 11km/h | 31635m | 6.4m/s | -40.8°C | 2.0% | 0hPa | 2.5V | 00:00:00 | 00:00:00 | 00:00:00 | |
| PETON7-10 | 2026-09-03 00:58:15 | 45.48905 | 16.57693 | 263° | 11km/h | 31625m | 4.7m/s | -40.8°C | 2.0% | 0hPa | 2.5V | 00:00:00 | 01:53:53 | 00:00:00 | |
| 9A1FER-10 | 2026-09-03 00:58:14 | 45.48906 | 16.57697 | 244° | 11km/h | 31620m | 6.0m/s | -40.8°C | 2.0% | 0hPa | 2.5V | 00:00:00 | 01:53:52 | 00:00:00 | |
| PG1ADW-2 | 2026-09-03 00:58:10 | 45.48917 | 16.57706 | 191° | 11km/h | 31597m | 5.8m/s | -40.8°C | 2.0% | 0hPa | 2.5V | 00:00:00 | 01:53:48 | 00:00:00 | |
| OE8JPQ-2 | 2026-09-03 00:58:08 | 45.48922 | 16.57706 | 163° | 11km/h | 31584m | 5.4m/s | -40.7°C | 2.0% | 0hPa | 2.5V | 00:00:00 | 00:00:00 | 00:00:00 | |
| OE3JTB-15 | 2026-09-03 00:58:02 | 45.48938 | 16.57710 | 206° | 9km/h | 31551m | 5.4m/s | -40.7°C | 1.9% | 0hPa | 2.5V | 00:00:00 | 00:00:00 | 00:00:00 | |
| PETON7-10 | 2026-09-03 00:58:00 | 45.48942 | 16.57714 | 235° | 11km/h | 31539m | 5.7m/s | -40.8°C | 1.9% | 0hPa | 2.5V | 00:00:00 | 00:00:00 | 00:00:00 | |
| 9A1FER-10 | 2026-09-03 00:57:59 | 45.48943 | 16.57716 | 246° | 11km/h | 31534m | 5.2m/s | -40.8°C | 2.0% | 0hPa | 2.5V | 00:00:00 | 01:53:37 | 00:00:00 | |
| OE5DRO-10 | 2026-09-03 00:57:58 | 45.48944 | 16.57718 | 224° | 9km/h | 31528m | 5.7m/s | -40.9°C | 2.0% | 0hPa | 2.5V | 00:00:00 | 00:00:00 | 00:00:00 | |
| 9A1FER-3 | 2026-09-03 00:57:51 | 45.48957 | 16.57701 | 131° | 9km/h | 31487m | 5.1m/s | -41.1°C | 2.0% | 0hPa | 2.5V | 00:00:00 | 01:53:29 | 00:00:00 | |
| PG1ADW-2 | 2026-09-03 00:57:50 | 45.48960 | 16.57697 | 145° | 9km/h | 31481m | 6.8m/s | -41.1°C | 2.0% | 0hPa | 2.5V | 00:00:00 | 00:00:00 | 00:00:00 | |
| OE8JPQ-2 | 2026-09-03 00:57:48 | 45.48968 | 16.57692 | 167° | 7km/h | 31469m | 5.1m/s | -41.2°C | 2.0% | 0hPa | 2.5V | 00:00:00 | 01:53:26 | 00:00:00 | |
| PETON7-10 | 2026-09-03 00:57:45 | 45.48975 | 16.57690 | 158° | 7km/h | 31451m | 5.1m/s | -41.2°C | 2.0% | 0hPa | 2.5V | 00:00:00 | 00:00:00 | 00:00:00 | |
| 9A1FER-10 | 2026-09-03 00:57:44 | 45.48976 | 16.57689 | 150° | 7km/h | 31446m | 5.1m/s | -41.2°C | 2.0% | 0hPa | 2.5V | 00:00:00 | 01:53:22 | 00:00:00 | |
| OE5DRO-10 | 2026-09-03 00:57:39 | 45.48982 | 16.57683 | 99° | 7km/h | 31416m | 6.5m/s | -41.2°C | 2.0% | 0hPa | 2.5V | 00:00:00 | 00:00:00 | 00:00:00 | |
| 9A1FER-3 | 2026-09-03 00:57:36 | 45.48983 | 16.57673 | 121° | 7km/h | 31399m | 6.7m/s | -41.2°C | 1.9% | 0hPa | 2.5V | 00:00:00 | 01:53:14 | 00:00:00 | |
| OE3JTB-15 | 2026-09-03 00:57:33 | 45.48989 | 16.57669 | 168° | 7km/h | 31382m | 5.3m/s | -41.3°C | 2.0% | 0hPa | 2.5V | 00:00:00 | 01:53:11 | 00:00:00 | |
| PETON7-10 | 2026-09-03 00:57:30 | 45.48991 | 16.57668 | 340° | 7km/h | 31364m | 5.6m/s | -41.4°C | 2.0% | 0hPa | 2.5V | 00:00:00 | 01:53:08 | 00:00:00 | |
| 9A1FER-10 | 2026-09-03 00:57:29 | 45.48991 | 16.57668 | 299° | 7km/h | 31358m | 5.6m/s | -41.5°C | 2.0% | 0hPa | 2.5V | 00:00:00 | 01:53:07 | 00:00:00 | |
| OE8JPQ-2 | 2026-09-03 00:57:28 | 45.48991 | 16.57669 | 185° | 7km/h | 31352m | 6.6m/s | -41.5°C | 2.0% | 0hPa | 2.5V | 00:00:00 | 00:00:00 | 00:00:00 | |
| OE5DXL-15 | 2026-09-03 00:57:21 | 45.48992 | 16.57649 | 80° | 9km/h | 31311m | 6.3m/s | -42.1°C | 2.1% | 0hPa | 2.5V | 00:00:00 | 00:00:00 | 00:00:00 | |
| OE5DRO-10 | 2026-09-03 00:57:20 | 45.48991 | 16.57644 | 93° | 7km/h | 31305m | 5.7m/s | -42.1°C | 2.1% | 0hPa | 2.5V | 00:00:00 | 00:00:00 | 00:00:00 | |
| 9A1FER-10 | 2026-09-03 00:57:14 | 45.48987 | 16.57640 | 314° | 7km/h | 31271m | 6.3m/s | -42.4°C | 2.1% | 0hPa | 2.5V | 00:00:00 | 01:52:52 | 00:00:00 | |
| PG1ADW-2 | 2026-09-03 00:57:10 | 45.48984 | 16.57640 | 54° | 11km/h | 31249m | 6.4m/s | -42.6°C | 2.2% | 0hPa | 2.5V | 00:00:00 | 00:00:00 | 00:00:00 | |
| OE8JPQ-2 | 2026-09-03 00:57:08 | 45.48980 | 16.57633 | 50° | 11km/h | 31237m | 5.3m/s | -42.7°C | 2.1% | 0hPa | 2.5V | 00:00:00 | 00:00:00 | 00:00:00 | |
| 9A1FER-3 | 2026-09-03 00:57:06 | 45.48975 | 16.57623 | 64° | 11km/h | 31226m | 6.5m/s | -42.7°C | 2.2% | 0hPa | 2.5V | 00:00:00 | 01:52:44 | 00:00:00 | |
| OE3JTB-15 | 2026-09-03 00:57:04 | 45.48975 | 16.57617 | 95° | 7km/h | 31214m | 5.2m/s | -42.8°C | 2.1% | 0hPa | 2.5V | 00:00:00 | 00:00:00 | 00:00:00 | |
| OE5DRO-10 | 2026-09-03 00:57:01 | 45.48975 | 16.57616 | 236° | 9km/h | 31196m | 5.5m/s | -42.9°C | 2.2% | 0hPa | 2.5V | 00:00:00 | 00:00:00 | 00:00:00 | |
| PETON7-10 | 2026-09-03 00:57:00 | 45.48975 | 16.57616 | 212° | 11km/h | 31190m | 6.0m/s | -42.9°C | 2.2% | 0hPa | 2.5V | 00:00:00 | 00:00:00 | 00:00:00 | |
| 9A1FER-10 | 2026-09-03 00:56:59 | 45.48977 | 16.57617 | 185° | 11km/h | 31184m | 6.4m/s | -42.9°C | 2.1% | 0hPa | 2.5V | 00:00:00 | 01:52:37 | 08:30:00 | |
| OE5DXL-15 | 2026-09-03 00:56:51 | 45.48961 | 16.57581 | 55° | 16km/h | 31138m | 6.0m/s | -43.0°C | 2.2% | 0hPa | 2.6V | 00:00:00 | 00:00:00 | 00:00:00 | |
| PG1ADW-2 | 2026-09-03 00:56:50 | 45.48959 | 16.57577 | 59° | 13km/h | 31132m | 5.5m/s | -43.0°C | 2.2% | 0hPa | 2.6V | 00:00:00 | 01:52:28 | 00:00:00 | |
| OE8JPQ-2 | 2026-09-03 00:56:48 | 45.48957 | 16.57572 | 41° | 15km/h | 31119m | 6.4m/s | -43.1°C | 2.2% | 0hPa | 2.6V | 00:00:00 | 01:52:26 | 00:00:00 | |
| PETON7-10 | 2026-09-03 00:56:45 | 45.48955 | 16.57574 | 285° | 15km/h | 31101m | 6.7m/s | -43.2°C | 2.2% | 0hPa | 2.6V | 00:00:00 | 01:52:23 | 00:00:00 | |
| 9A1FER-10 | 2026-09-03 00:56:44 | 45.48954 | 16.57576 | 297° | 16km/h | 31096m | 4.9m/s | -43.2°C | 2.3% | 0hPa | 2.6V | 00:00:00 | 01:52:22 | 00:00:00 | |
| OE5DRO-10 | 2026-09-03 00:56:42 | 45.48951 | 16.57577 | 5° | 20km/h | 31085m | 6.8m/s | -43.2°C | 2.2% | 0hPa | 2.6V | 00:00:00 | 00:00:00 | 00:00:00 | |
| 9A1FER-3 | 2026-09-03 00:56:36 | 45.48919 | 16.57556 | 28° | 18km/h | 31050m | 5.2m/s | -43.1°C | 2.2% | 0hPa | 2.6V | 00:00:00 | 01:52:14 | 00:00:00 | |
| PETON7-10 | 2026-09-03 00:56:30 | 45.48902 | 16.57564 | 314° | 18km/h | 31014m | 6.7m/s | -43.0°C | 2.2% | 0hPa | 2.6V | 00:00:00 | 00:00:00 | 00:00:00 | |
| 9A1FER-10 | 2026-09-03 00:56:29 | 45.48899 | 16.57568 | 321° | 18km/h | 31008m | 4.9m/s | -43.0°C | 2.2% | 0hPa | 2.6V | 00:00:00 | 01:52:07 | 00:00:00 | |
| OE5DRO-10 | 2026-09-03 00:56:23 | 45.48863 | 16.57567 | 11° | 20km/h | 30974m | 6.2m/s | -43.0°C | 2.1% | 0hPa | 2.6V | 00:00:00 | 00:00:00 | 08:30:00 | |
| 9A1FER-3 | 2026-09-03 00:56:21 | 45.48852 | 16.57566 | 347° | 18km/h | 30962m | 5.4m/s | -43.0°C | 2.2% | 0hPa | 2.6V | 00:00:00 | 01:51:59 | 00:00:00 | |
| OE3JTB-15 | 2026-09-03 00:56:20 | 45.48848 | 16.57568 | 333° | 18km/h | 30957m | 5.6m/s | -43.1°C | 2.2% | 0hPa | 2.6V | 00:00:00 | 00:00:00 | 00:00:00 | |
| PETON7-10 | 2026-09-03 00:56:15 | 45.48839 | 16.57582 | 290° | 24km/h | 30929m | 5.3m/s | -43.3°C | 2.2% | 0hPa | 2.6V | 00:00:00 | 00:00:00 | 00:00:00 | |
| 9A1FER-10 | 2026-09-03 00:56:14 | 45.48838 | 16.57585 | 302° | 24km/h | 30924m | 4.5m/s | -43.3°C | 2.2% | 0hPa | 2.6V | 00:00:00 | 01:51:52 | 00:00:00 | |
| PG1ADW-2 | 2026-09-03 00:56:10 | 45.48817 | 16.57595 | 360° | 22km/h | 30901m | 5.9m/s | -43.4°C | 2.2% | 0hPa | 2.5V | 00:00:00 | 00:00:00 | 08:30:00 | |
| OE8JPQ-2 | 2026-09-03 00:56:08 | 45.48801 | 16.57595 | 3° | 20km/h | 30890m | 5.2m/s | -43.3°C | 2.2% | 0hPa | 2.5V | 00:00:00 | 00:00:00 | 00:00:00 | |
| 9A1FER-3 | 2026-09-03 00:56:06 | 45.48789 | 16.57596 | 339° | 20km/h | 30879m | 5.8m/s | -43.2°C | 2.3% | 0hPa | 2.5V | 00:00:00 | 01:51:44 | 08:30:00 | |
| OE5DRO-10 | 2026-09-03 00:56:04 | 45.48781 | 16.57606 | 306° | 20km/h | 30866m | 6.5m/s | -43.1°C | 2.2% | 0hPa | 2.5V | 00:00:00 | 00:00:00 | 00:00:00 | |
| PETON7-10 | 2026-09-03 00:56:00 | 45.48769 | 16.57634 | 303° | 18km/h | 30843m | 6.0m/s | -43.0°C | 2.2% | 0hPa | 2.5V | 00:00:00 | 01:51:38 | 00:00:00 | |
| 9A1FER-3 | 2026-09-03 00:55:51 | 45.48735 | 16.57661 | 305° | 15km/h | 30790m | 5.7m/s | -43.2°C | 2.2% | 0hPa | 2.5V | 00:00:00 | 01:51:29 | 00:00:00 | |
| PG1ADW-2 | 2026-09-03 00:55:50 | 45.48733 | 16.57665 | 298° | 15km/h | 30784m | 5.5m/s | -43.2°C | 2.2% | 0hPa | 2.5V | 00:00:00 | 00:00:00 | 00:00:00 | |
| OE8JPQ-2 | 2026-09-03 00:55:48 | 45.48729 | 16.57677 | 299° | 13km/h | 30771m | 5.6m/s | -43.3°C | 2.2% | 0hPa | 2.5V | 00:00:00 | 01:51:26 | 00:00:00 | |
| PETON7-10 | 2026-09-03 00:55:45 | 45.48721 | 16.57698 | 296° | 11km/h | 30754m | 6.8m/s | -43.5°C | 2.2% | 0hPa | 2.5V | 00:00:00 | 00:00:00 | 00:00:00 | |
| 9A1FER-10 | 2026-09-03 00:55:44 | 45.48719 | 16.57703 | 295° | 11km/h | 30747m | 6.0m/s | -43.5°C | 2.3% | 0hPa | 2.5V | 00:00:00 | 01:51:22 | 00:00:00 | |
| 9A1FER-3 | 2026-09-03 00:55:36 | 45.48708 | 16.57730 | 240° | 9km/h | 30699m | 5.1m/s | -43.6°C | 2.2% | 0hPa | 2.5V | 00:00:00 | 01:51:14 | 00:00:00 | |
| PETON7-10 | 2026-09-03 00:55:30 | 45.48709 | 16.57751 | 285° | 9km/h | 30663m | 7.0m/s | -43.7°C | 2.3% | 0hPa | 2.5V | 00:00:00 | 00:00:00 | 00:00:00 | |
| 9A1FER-10 | 2026-09-03 00:55:29 | 45.48708 | 16.57753 | 275° | 9km/h | 30656m | 6.3m/s | -43.7°C | 2.3% | 0hPa | 2.5V | 00:00:00 | 01:51:07 | 00:00:00 | |
| OE8JPQ-2 | 2026-09-03 00:55:28 | 45.48708 | 16.57755 | 287° | 9km/h | 30650m | 5.8m/s | -43.8°C | 2.3% | 0hPa | 2.5V | 00:00:00 | 00:00:00 | 00:00:00 | |
| OE5DRO-10 | 2026-09-03 00:55:26 | 45.48706 | 16.57759 | 323° | 9km/h | 30637m | 6.2m/s | -43.8°C | 2.3% | 0hPa | 2.6V | 00:00:00 | 00:00:00 | 00:00:00 | |
| OE3JTB-15 | 2026-09-03 00:55:22 | 45.48701 | 16.57769 | 276° | 11km/h | 30612m | 6.5m/s | -43.8°C | 2.3% | 0hPa | 2.6V | 00:00:00 | 00:00:00 | 00:00:00 | |
| 9A1FER-3 | 2026-09-03 00:55:21 | 45.48700 | 16.57773 | 271° | 9km/h | 30606m | 6.2m/s | -43.7°C | 2.3% | 0hPa | 2.6V | 00:00:00 | 01:50:59 | 00:00:00 | |
| OE5DXL-15 | 2026-09-03 00:55:20 | 45.48700 | 16.57775 | 282° | 9km/h | 30599m | 6.6m/s | -43.7°C | 2.3% | 0hPa | 2.5V | 00:00:00 | 00:00:00 | 00:00:00 | |
| PETON7-10 | 2026-09-03 00:55:15 | 45.48702 | 16.57792 | 237° | 9km/h | 30569m | 5.5m/s | -43.6°C | 2.3% | 0hPa | 2.5V | 00:00:00 | 01:50:53 | 00:00:00 | |
| 9A1FER-10 | 2026-09-03 00:55:14 | 45.48703 | 16.57795 | 248° | 9km/h | 30563m | 5.7m/s | -43.5°C | 2.3% | 0hPa | 2.5V | 00:00:00 | 01:50:52 | 00:00:00 | |
| PG1ADW-2 | 2026-09-03 00:55:10 | 45.48703 | 16.57806 | 268° | 11km/h | 30541m | 6.2m/s | -43.5°C | 2.3% | 0hPa | 2.5V | 00:00:00 | 00:00:00 | 00:00:00 | |
| OE8JPQ-2 | 2026-09-03 00:55:08 | 45.48705 | 16.57807 | 178° | 11km/h | 30528m | 6.4m/s | -43.4°C | 2.3% | 0hPa | 2.5V | 00:00:00 | 00:00:00 | 00:00:00 | |
| OE5DRO-10 | 2026-09-03 00:55:07 | 45.48708 | 16.57807 | 174° | 11km/h | 30521m | 5.9m/s | -43.4°C | 2.3% | 0hPa | 2.5V | 00:00:00 | 00:00:00 | 00:00:00 | |
| 9A1FER-3 | 2026-09-03 00:55:06 | 45.48710 | 16.57806 | 176° | 11km/h | 30515m | 6.1m/s | -43.4°C | 2.3% | 0hPa | 2.5V | 00:00:00 | 01:50:44 | 00:00:00 | |
| PETON7-10 | 2026-09-03 00:55:00 | 45.48721 | 16.57817 | 229° | 13km/h | 30478m | 5.6m/s | -43.2°C | 2.2% | 0hPa | 2.5V | 00:00:00 | 00:00:00 | 08:30:00 | |
| 9A1FER-10 | 2026-09-03 00:54:59 | 45.48723 | 16.57821 | 238° | 13km/h | 30471m | 6.8m/s | -43.2°C | 2.3% | 0hPa | 2.5V | 00:00:00 | 01:50:37 | 00:00:00 | |
| 9A1FER-3 | 2026-09-03 00:54:51 | 45.48743 | 16.57838 | 195° | 13km/h | 30422m | 6.5m/s | -43.1°C | 2.2% | 0hPa | 2.5V | 00:00:00 | 01:50:29 | 00:00:00 | |
| OE3JTB-15 | 2026-09-03 00:54:50 | 45.48745 | 16.57839 | 207° | 16km/h | 30416m | 5.5m/s | -43.0°C | 2.2% | 0hPa | 2.5V | 00:00:00 | 00:00:00 | 00:00:00 | |
| OE8JPQ-2 | 2026-09-03 00:54:48 | 45.48749 | 16.57842 | 212° | 15km/h | 30405m | 7.0m/s | -43.0°C | 2.2% | 0hPa | 2.5V | 00:00:00 | 01:50:26 | 00:00:00 | |
| PETON7-10 | 2026-09-03 00:54:45 | 45.48759 | 16.57850 | 214° | 15km/h | 30387m | 5.6m/s | -43.0°C | 2.2% | 0hPa | 2.5V | 00:00:00 | 00:00:00 | 00:00:00 | |
| 9A1FER-10 | 2026-09-03 00:54:44 | 45.48761 | 16.57853 | 220° | 15km/h | 30380m | 7.0m/s | -43.0°C | 2.2% | 0hPa | 2.5V | 00:00:00 | 01:50:22 | 08:30:00 | |
| 9A1FER-3 | 2026-09-03 00:54:36 | 45.48780 | 16.57880 | 235° | 18km/h | 30332m | 6.9m/s | -43.1°C | 2.2% | 0hPa | 2.6V | 00:00:00 | 01:50:14 | 00:00:00 | |
| PETON7-10 | 2026-09-03 00:54:30 | 45.48795 | 16.57908 | 215° | 16km/h | 30295m | 5.1m/s | -43.1°C | 2.2% | 0hPa | 2.5V | 00:00:00 | 01:50:08 | 00:00:00 | |
| 9A1FER-10 | 2026-09-03 00:54:29 | 45.48798 | 16.57911 | 215° | 15km/h | 30289m | 7.0m/s | -43.2°C | 2.2% | 0hPa | 2.5V | 00:00:00 | 01:50:07 | 00:00:00 | |
| OE8JPQ-2 | 2026-09-03 00:54:28 | 45.48800 | 16.57913 | 223° | 16km/h | 30282m | 6.1m/s | -43.2°C | 2.2% | 0hPa | 2.5V | 00:00:00 | 00:00:00 | 00:00:00 | |
| 9A1FER-3 | 2026-09-03 00:54:21 | 45.48819 | 16.57959 | 242° | 15km/h | 30244m | 6.3m/s | -43.2°C | 2.2% | 0hPa | 2.5V | 00:00:00 | 01:49:59 | 00:00:00 | |
| OE5DXL-15 | 2026-09-03 00:54:20 | 45.48821 | 16.57965 | 234° | 13km/h | 30237m | 6.4m/s | -43.2°C | 2.2% | 0hPa | 2.5V | 00:00:00 | 00:00:00 | 00:00:00 | |
| PETON7-10 | 2026-09-03 00:54:15 | 45.48837 | 16.57970 | 180° | 15km/h | 30207m | 5.5m/s | -43.1°C | 2.3% | 0hPa | 2.5V | 00:00:00 | 00:00:00 | 00:00:00 | |
| 9A1FER-10 | 2026-09-03 00:54:12 | 45.48847 | 16.57969 | 188° | 15km/h | 30188m | 5.8m/s | -43.1°C | 2.2% | 0hPa | 2.6V | 00:00:00 | 01:49:50 | 00:00:00 | |
| OE5DRO-10 | 2026-09-03 00:54:10 | 45.48851 | 16.57973 | 233° | 13km/h | 30176m | 7.4m/s | -43.0°C | 2.2% | 0hPa | 2.6V | 00:00:00 | 00:00:00 | 00:00:00 | |
| OE8JPQ-2 | 2026-09-03 00:54:08 | 45.48855 | 16.57984 | 240° | 11km/h | 30164m | 5.1m/s | -43.0°C | 2.2% | 0hPa | 2.6V | 00:00:00 | 00:00:00 | 00:00:00 | |
| 9A1FER-3 | 2026-09-03 00:54:06 | 45.48860 | 16.57993 | 223° | 13km/h | 30151m | 6.7m/s | -42.9°C | 2.2% | 0hPa | 2.6V | 00:00:00 | 01:49:44 | 00:00:00 | |
| PETON7-10 | 2026-09-03 00:54:00 | 45.48880 | 16.57990 | 155° | 11km/h | 30114m | 6.3m/s | -42.9°C | 2.2% | 0hPa | 2.6V | 00:00:00 | 00:00:00 | 00:00:00 | |
| 9A1FER-10 | 2026-09-03 00:53:57 | 45.48888 | 16.57982 | 159° | 13km/h | 30096m | 5.6m/s | -43.1°C | 2.2% | 0hPa | 2.6V | 00:00:00 | 01:49:35 | 00:00:00 | |
| 9A1FER-3 | 2026-09-03 00:53:51 | 45.48891 | 16.58000 | 260° | 13km/h | 30058m | 4.4m/s | -43.3°C | 2.2% | 0hPa | 2.6V | 00:00:00 | 01:49:29 | 08:30:00 | |
| OE5DXL-15 | 2026-09-03 00:53:50 | 45.48892 | 16.58002 | 223° | 13km/h | 30052m | 6.0m/s | -43.3°C | 2.2% | 0hPa | 2.5V | 00:00:00 | 00:00:00 | 00:00:00 | |
| OE3JTB-15 | 2026-09-03 00:53:49 | 45.48893 | 16.58003 | 193° | 13km/h | 30046m | 6.7m/s | -43.3°C | 2.2% | 0hPa | 2.5V | 00:00:00 | 00:00:00 | 08:30:00 | |
| OE8JPQ-2 | 2026-09-03 00:53:48 | 45.48896 | 16.58003 | 170° | 15km/h | 30040m | 5.3m/s | -43.3°C | 2.2% | 0hPa | 2.6V | 00:00:00 | 01:49:26 | 00:00:00 | |
| PETON7-10 | 2026-09-03 00:53:45 | 45.48905 | 16.57992 | 116° | 13km/h | 30022m | 7.1m/s | -43.4°C | 2.2% | 0hPa | 2.6V | 00:00:00 | 01:49:23 | 00:00:00 | |
| 9A1FER-10 | 2026-09-03 00:53:42 | 45.48909 | 16.57967 | 102° | 15km/h | 30004m | 5.9m/s | -43.5°C | 2.3% | 0hPa | 2.6V | 00:00:00 | 01:49:20 | 00:00:00 | |
| 9A1FER-3 | 2026-09-03 00:53:36 | 45.48907 | 16.57959 | 304° | 13km/h | 29967m | 6.1m/s | -43.5°C | 2.2% | 0hPa | 2.6V | 00:00:00 | 01:49:14 | 00:00:00 | |
| OE5DRO-10 | 2026-09-03 00:53:32 | 45.48902 | 16.57969 | 29° | 13km/h | 29943m | 7.3m/s | -43.5°C | 2.2% | 0hPa | 2.6V | 00:00:00 | 00:00:00 | 08:30:00 | |
| PETON7-10 | 2026-09-03 00:53:30 | 45.48898 | 16.57961 | 70° | 13km/h | 29931m | 5.2m/s | -43.6°C | 2.3% | 0hPa | 2.5V | 00:00:00 | 00:00:00 | 00:00:00 | |
| OE8JPQ-2 | 2026-09-03 00:53:29 | 45.48896 | 16.57945 | 86° | 13km/h | 29919m | 7.0m/s | -43.7°C | 2.2% | 0hPa | 2.5V | 00:00:00 | 00:00:00 | 08:30:00 | |
| 9A1FER-10 | 2026-09-03 00:53:23 | 45.48894 | 16.57925 | 26° | 13km/h | 29889m | 6.2m/s | -43.6°C | 2.3% | 0hPa | 2.5V | 00:00:00 | 01:49:01 | 00:00:00 | |
| 9A1FER-3 | 2026-09-03 00:53:21 | 45.48889 | 16.57923 | 17° | 15km/h | 29877m | 5.3m/s | -43.6°C | 2.3% | 0hPa | 2.5V | 00:00:00 | 01:48:59 | 00:00:00 | |
| OE3JTB-15 | 2026-09-03 00:53:20 | 45.48887 | 16.57922 | 25° | 15km/h | 29871m | 7.0m/s | -43.5°C | 2.3% | 0hPa | 2.5V | 00:00:00 | 00:00:00 | 00:00:00 | |
| PETON7-10 | 2026-09-03 00:53:15 | 45.48878 | 16.57906 | 44° | 16km/h | 29841m | 5.6m/s | -43.5°C | 2.3% | 0hPa | 2.5V | 00:00:00 | 00:00:00 | 00:00:00 | |
| OE5DRO-10 | 2026-09-03 00:53:13 | 45.48870 | 16.57895 | 43° | 16km/h | 29831m | 5.4m/s | -43.5°C | 2.3% | 0hPa | 2.5V | 00:00:00 | 00:00:00 | 00:00:00 | |
| PG1ADW-2 | 2026-09-03 00:53:10 | 45.48859 | 16.57875 | 50° | 15km/h | 29800m | 6.0m/s | -43.6°C | 2.2% | 0hPa | 2.5V | 00:00:00 | 00:00:00 | 08:30:00 | |
| 9A1FER-10 | 2026-09-03 00:53:08 | 45.48859 | 16.57875 | 50° | 16km/h | 29800m | 6.0m/s | -43.6°C | 2.2% | 0hPa | 2.5V | 00:00:00 | 01:48:46 | 00:00:00 | |
| 9A1FER-3 | 2026-09-03 00:53:06 | 45.48855 | 16.57868 | 56° | 16km/h | 29788m | 6.9m/s | -43.6°C | 2.2% | 0hPa | 2.6V | 00:00:00 | 01:48:44 | 00:00:00 | |
| PETON7-10 | 2026-09-03 00:53:00 | 45.48835 | 16.57853 | 8° | 13km/h | 29752m | 5.2m/s | -43.6°C | 2.2% | 0hPa | 2.5V | 00:00:00 | 01:48:38 | 00:00:00 | |
| OE5DRO-10 | 2026-09-03 00:52:54 | 45.48809 | 16.57860 | 328° | 9km/h | 29716m | 5.0m/s | -44.1°C | 2.3% | 0hPa | 2.5V | 00:00:00 | 00:00:00 | 00:00:00 | |
| 9A1FER-10 | 2026-09-03 00:52:53 | 45.48806 | 16.57863 | 322° | 9km/h | 29710m | 5.1m/s | -44.1°C | 2.3% | 0hPa | 2.5V | 00:00:00 | 01:48:31 | 00:00:00 | |
| 9A1FER-3 | 2026-09-03 00:52:51 | 45.48803 | 16.57867 | 308° | 9km/h | 29697m | 6.5m/s | -44.2°C | 2.3% | 0hPa | 2.5V | 00:00:00 | 01:48:29 | 00:00:00 | |
| OE5DXL-15 | 2026-09-03 00:52:50 | 45.48803 | 16.57867 | 43° | 11km/h | 29692m | 4.7m/s | -44.3°C | 2.3% | 0hPa | 2.5V | 00:00:00 | 00:00:00 | 00:00:00 | |
| OE8JPQ-2 | 2026-09-03 00:52:48 | 45.48801 | 16.57865 | 19° | 11km/h | 29680m | 6.7m/s | -44.4°C | 2.4% | 0hPa | 2.5V | 00:00:00 | 01:48:26 | 00:00:00 | |
| PETON7-10 | 2026-09-03 00:52:45 | 45.48792 | 16.57865 | 353° | 11km/h | 29663m | 6.2m/s | -44.5°C | 2.4% | 0hPa | 2.5V | 00:00:00 | 00:00:00 | 08:30:00 | |
| 9A1FER-10 | 2026-09-03 00:52:38 | 45.48779 | 16.57880 | 323° | 11km/h | 29621m | 5.8m/s | -44.5°C | 2.3% | 0hPa | 2.5V | 00:00:00 | 01:48:16 | 00:00:00 | |
| 9A1FER-3 | 2026-09-03 00:52:36 | 45.48777 | 16.57880 | 64° | 11km/h | 29609m | 5.6m/s | -44.6°C | 2.4% | 0hPa | 2.5V | 00:00:00 | 01:48:14 | 00:00:00 | |
| OE5DRO-10 | 2026-09-03 00:52:35 | 45.48776 | 16.57877 | 71° | 11km/h | 29603m | 5.5m/s | -44.6°C | 2.4% | 0hPa | 2.5V | 00:00:00 | 00:00:00 | 00:00:00 | |
| PETON7-10 | 2026-09-03 00:52:30 | 45.48762 | 16.57855 | 44° | 9km/h | 29573m | 6.8m/s | -45.0°C | 2.5% | 0hPa | 2.5V | 00:00:00 | 00:00:00 | 00:00:00 | |
| OE8JPQ-2 | 2026-09-03 00:52:28 | 45.48758 | 16.57850 | 34° | 9km/h | 29560m | 5.6m/s | -45.0°C | 2.4% | 0hPa | 2.5V | 00:00:00 | 00:00:00 | 00:00:00 | |
| 9A1FER-10 | 2026-09-03 00:52:23 | 45.48757 | 16.57860 | 236° | 9km/h | 29528m | 6.5m/s | -44.9°C | 2.4% | 0hPa | 2.5V | 00:00:00 | 01:48:01 | 08:30:00 | |
| OE3JTB-15 | 2026-09-03 00:52:22 | 45.48759 | 16.57864 | 229° | 11km/h | 29522m | 4.9m/s | -44.8°C | 2.4% | 0hPa | 2.6V | 00:00:00 | 00:00:00 | 00:00:00 | |
| 9A1FER-3 | 2026-09-03 00:52:21 | 45.48760 | 16.57866 | 236° | 7km/h | 29517m | 5.6m/s | -44.8°C | 2.4% | 0hPa | 2.6V | 00:00:00 | 01:47:59 | 00:00:00 | |
| OE5DXL-15 | 2026-09-03 00:52:20 | 45.48761 | 16.57868 | 280° | 11km/h | 29510m | 6.6m/s | -44.7°C | 2.4% | 0hPa | 2.5V | 00:00:00 | 00:00:00 | 00:00:00 | |
| OE5DRO-10 | 2026-09-03 00:52:16 | 45.48755 | 16.57860 | 73° | 11km/h | 29487m | 7.1m/s | -44.6°C | 2.4% | 0hPa | 2.5V | 00:00:00 | 00:00:00 | 00:00:00 | |
| PETON7-10 | 2026-09-03 00:52:15 | 45.48754 | 16.57855 | 89° | 9km/h | 29480m | 5.6m/s | -44.6°C | 2.4% | 0hPa | 2.5V | 00:00:00 | 01:47:53 | 00:00:00 | |
| PG1ADW-2 | 2026-09-03 00:52:10 | 45.48756 | 16.57849 | 231° | 13km/h | 29449m | 7.1m/s | -44.6°C | 2.4% | 0hPa | 2.5V | 00:00:00 | 00:00:00 | 00:00:00 | |
| OE8JPQ-2 | 2026-09-03 00:52:08 | 45.48759 | 16.57851 | 217° | 13km/h | 29437m | 5.0m/s | -44.6°C | 2.4% | 0hPa | 2.5V | 00:00:00 | 00:00:00 | 00:00:00 | |
| 9A1FER-3 | 2026-09-03 00:52:06 | 45.48759 | 16.57853 | 336° | 15km/h | 29425m | 6.6m/s | -44.6°C | 2.4% | 0hPa | 2.5V | 00:00:00 | 01:47:44 | 00:00:00 | |
| PETON7-10 | 2026-09-03 00:52:00 | 45.48750 | 16.57831 | 87° | 13km/h | 29389m | 6.2m/s | -44.6°C | 2.4% | 0hPa | 2.5V | 00:00:00 | 00:00:00 | 00:00:00 | |
| OE5DRO-10 | 2026-09-03 00:51:57 | 45.48749 | 16.57810 | 88° | 11km/h | 29371m | 5.5m/s | -44.4°C | 2.4% | 0hPa | 2.5V | 00:00:00 | 00:00:00 | 00:00:00 | |
| 9A1FER-10 | 2026-09-03 00:51:53 | 45.48749 | 16.57790 | 71° | 9km/h | 29346m | 7.3m/s | -44.3°C | 2.3% | 0hPa | 2.5V | 00:00:00 | 01:47:31 | 00:00:00 | |
| 9A1FER-3 | 2026-09-03 00:51:51 | 45.48746 | 16.57786 | 26° | 9km/h | 29334m | 5.0m/s | -44.2°C | 2.3% | 0hPa | 2.5V | 00:00:00 | 01:47:29 | 00:00:00 | |
| PG1ADW-2 | 2026-09-03 00:51:50 | 45.48745 | 16.57785 | 38° | 7km/h | 29328m | 6.7m/s | -44.2°C | 2.3% | 0hPa | 2.5V | 00:00:00 | 00:00:00 | 00:00:00 | |
| OE8JPQ-2 | 2026-09-03 00:51:48 | 45.48744 | 16.57781 | 93° | 9km/h | 29315m | 6.2m/s | -44.2°C | 2.3% | 0hPa | 2.5V | 00:00:00 | 01:47:26 | 00:00:00 | |
| PETON7-10 | 2026-09-03 00:51:45 | 45.48744 | 16.57772 | 100° | 9km/h | 29296m | 5.0m/s | -44.2°C | 2.3% | 0hPa | 2.5V | 00:00:00 | 00:00:00 | 00:00:00 | |
| 9A1FER-10 | 2026-09-03 00:51:38 | 45.48747 | 16.57747 | 334° | 9km/h | 29254m | 5.5m/s | -44.3°C | 2.3% | 0hPa | 2.5V | 00:00:00 | 01:47:16 | 00:00:00 | |
| 9A1FER-3 | 2026-09-03 00:51:36 | 45.48745 | 16.57750 | 309° | 9km/h | 29242m | 6.1m/s | -44.4°C | 2.3% | 0hPa | 2.6V | 00:00:00 | 01:47:14 | 08:30:00 | |
| PETON7-10 | 2026-09-03 00:51:30 | 45.48746 | 16.57752 | 155° | 11km/h | 29205m | 7.5m/s | -44.4°C | 2.3% | 0hPa | 2.5V | 00:00:00 | 01:47:08 | 00:00:00 | |
| OE8JPQ-2 | 2026-09-03 00:51:28 | 45.48754 | 16.57747 | 156° | 11km/h | 29193m | 4.8m/s | -44.4°C | 2.3% | 0hPa | 2.5V | 00:00:00 | 00:00:00 | 00:00:00 | |
| OE3JTB-15 | 2026-09-03 00:51:24 | 45.48765 | 16.57744 | 232° | 11km/h | 29168m | 6.4m/s | -44.6°C | 2.3% | 0hPa | 2.5V | 00:00:00 | 01:47:02 | 00:00:00 | |
| 9A1FER-10 | 2026-09-03 00:51:23 | 45.48766 | 16.57747 | 240° | 9km/h | 29161m | 7.0m/s | -44.6°C | 2.3% | 0hPa | 2.5V | 00:00:00 | 01:47:01 | 00:00:00 | |
| 9A1FER-3 | 2026-09-03 00:51:21 | 45.48769 | 16.57755 | 253° | 9km/h | 29149m | 5.9m/s | -44.6°C | 2.3% | 0hPa | 2.5V | 00:00:00 | 01:46:59 | 00:00:00 | |
| OE5DXL-15 | 2026-09-03 00:51:20 | 45.48769 | 16.57759 | 264° | 11km/h | 29142m | 7.4m/s | -44.6°C | 2.3% | 0hPa | 2.5V | 00:00:00 | 01:46:58 | 08:30:00 | |
| OE5DRO-10 | 2026-09-03 00:51:19 | 45.48769 | 16.57762 | 265° | 11km/h | 29136m | 5.2m/s | -44.6°C | 2.4% | 0hPa | 2.5V | 00:00:00 | 00:00:00 | 00:00:00 | |
| PETON7-10 | 2026-09-03 00:51:15 | 45.48778 | 16.57767 | 175° | 11km/h | 29111m | 5.3m/s | -44.9°C | 2.4% | 0hPa | 2.5V | 00:00:00 | 00:00:00 | 00:00:00 | |
| PG1ADW-2 | 2026-09-03 00:51:10 | 45.48786 | 16.57766 | 269° | 11km/h | 29082m | 6.5m/s | -45.1°C | 2.4% | 0hPa | 2.5V | 00:00:00 | 00:00:00 | 00:00:00 | |
| 9A1FER-10 | 2026-09-03 00:51:08 | 45.48788 | 16.57772 | 235° | 11km/h | 29070m | 5.2m/s | -45.1°C | 2.4% | 0hPa | 2.5V | 00:00:00 | 01:46:46 | 00:00:00 | |
| 9A1FER-3 | 2026-09-03 00:51:06 | 45.48792 | 16.57777 | 196° | 11km/h | 29058m | 6.4m/s | -45.2°C | 2.4% | 0hPa | 2.5V | 00:00:00 | 01:46:44 | 00:00:00 | |
| PETON7-10 | 2026-09-03 00:51:00 | 45.48812 | 16.57766 | 171° | 13km/h | 29022m | 5.6m/s | -45.3°C | 2.5% | 0hPa | 2.5V | 00:00:00 | 00:00:00 | 00:00:00 | |
| OE3JTB-15 | 2026-09-03 00:50:55 | 45.48822 | 16.57760 | 121° | 13km/h | 28991m | 6.3m/s | -45.4°C | 2.5% | 0hPa | 2.5V | 00:00:00 | 00:00:00 | 00:00:00 | |
| 9A1FER-10 | 2026-09-03 00:50:53 | 45.48825 | 16.57756 | 148° | 15km/h | 28979m | 5.2m/s | -45.4°C | 2.5% | 0hPa | 2.5V | 00:00:00 | 01:46:31 | 00:00:00 | |
| 9A1FER-3 | 2026-09-03 00:50:51 | 45.48830 | 16.57750 | 135° | 16km/h | 28967m | 7.4m/s | -45.4°C | 2.5% | 0hPa | 2.6V | 00:00:00 | 01:46:29 | 00:00:00 | |
| PG1ADW-2 | 2026-09-03 00:50:50 | 45.48833 | 16.57746 | 127° | 16km/h | 28960m | 6.1m/s | -45.4°C | 2.5% | 0hPa | 2.6V | 00:00:00 | 00:00:00 | 00:00:00 | |
| OE8JPQ-2 | 2026-09-03 00:50:48 | 45.48838 | 16.57737 | 139° | 15km/h | 28948m | 6.5m/s | 0°C | 0% | 0hPa | 2.6V | 00:00:00 | 01:46:26 | 00:00:00 | |
| PETON7-10 | 2026-09-03 00:50:45 | 45.48847 | 16.57731 | 169° | 18km/h | 28929m | 6.3m/s | -45.4°C | 2.5% | 0hPa | 2.6V | 00:00:00 | 01:46:23 | 00:00:00 | |
| OE5DRO-10 | 2026-09-03 00:50:41 | 45.48854 | 16.57723 | 136° | 18km/h | 28904m | 6.7m/s | -45.5°C | 2.5% | 0hPa | 2.6V | 00:00:00 | 00:00:00 | 08:30:00 | |
| 9A1FER-10 | 2026-09-03 00:50:38 | 45.48867 | 16.57709 | 144° | 18km/h | 28887m | 6.1m/s | -45.5°C | 2.5% | 0hPa | 2.5V | 00:00:00 | 01:46:16 | 00:00:00 | |
| 9A1FER-3 | 2026-09-03 00:50:36 | 45.48879 | 16.57697 | 146° | 18km/h | 28874m | 5.1m/s | -45.4°C | 2.5% | 0hPa | 2.5V | 00:00:00 | 01:46:14 | 00:00:00 | |
| PETON7-10 | 2026-09-03 00:50:30 | 45.48904 | 16.57693 | 198° | 20km/h | 28839m | 6.2m/s | -45.4°C | 2.5% | 0hPa | 2.5V | 00:00:00 | 00:00:00 | 08:30:00 | |
| OE8JPQ-2 | 2026-09-03 00:50:28 | 45.48907 | 16.57693 | 165° | 18km/h | 28827m | 5.5m/s | 0°C | 0% | 0hPa | 2.5V | 00:00:00 | 00:00:00 | 00:00:00 | |
| OE3JTB-15 | 2026-09-03 00:50:26 | 45.48913 | 16.57691 | 168° | 18km/h | 28815m | 5.9m/s | -45.3°C | 2.5% | 0hPa | 2.5V | 00:00:00 | 00:00:00 | 00:00:00 | |
| 9A1FER-10 | 2026-09-03 00:50:23 | 45.48929 | 16.57681 | 148° | 20km/h | 28796m | 6.5m/s | -45.3°C | 2.5% | 0hPa | 2.5V | 00:00:00 | 01:46:01 | 00:00:00 | |
| OE5DRO-10 | 2026-09-03 00:50:22 | 45.48935 | 16.57676 | 150° | 20km/h | 28790m | 5.6m/s | -45.3°C | 2.5% | 0hPa | 2.5V | 00:00:00 | 00:00:00 | 00:00:00 | |
| 9A1FER-3 | 2026-09-03 00:50:21 | 45.48942 | 16.57670 | 155° | 20km/h | 28783m | 6.7m/s | -45.2°C | 2.5% | 0hPa | 2.5V | 00:00:00 | 01:45:59 | 00:00:00 | |
| OE5DXL-15 | 2026-09-03 00:50:20 | 45.48949 | 16.57666 | 162° | 16km/h | 28777m | 6.1m/s | -45.2°C | 2.5% | 0hPa | 2.5V | 00:00:00 | 00:00:00 | 00:00:00 | |
| PETON7-10 | 2026-09-03 00:50:15 | 45.48974 | 16.57653 | 137° | 16km/h | 28748m | 4.8m/s | -45.1°C | 2.5% | 0hPa | 2.5V | 00:00:00 | 00:00:00 | 00:00:00 | |
| PG1ADW-2 | 2026-09-03 00:50:10 | 45.48987 | 16.57640 | 143° | 16km/h | 28718m | 7.4m/s | -45.0°C | 2.5% | 0hPa | 2.5V | 00:00:00 | 01:45:48 | 08:30:00 | |
| OE8JPQ-2 | 2026-09-03 00:50:08 | 45.48995 | 16.57630 | 137° | 16km/h | 28706m | 5.0m/s | 0°C | 0% | 0hPa | 2.6V | 00:00:00 | 00:00:00 | 00:00:00 | |
| 9A1FER-3 | 2026-09-03 00:50:06 | 45.49004 | 16.57620 | 148° | 16km/h | 28693m | 6.3m/s | -44.8°C | 2.4% | 0hPa | 2.6V | 00:00:00 | 01:45:44 | 00:00:00 | |
| OE5DRO-10 | 2026-09-03 00:50:03 | 45.49017 | 16.57610 | 144° | 16km/h | 28677m | 6.7m/s | -44.8°C | 2.4% | 0hPa | 2.5V | 00:00:00 | 00:00:00 | 00:00:00 | |
| PETON7-10 | 2026-09-03 00:50:00 | 45.49026 | 16.57594 | 124° | 16km/h | 28658m | 5.9m/s | -44.7°C | 2.4% | 0hPa | 2.5V | 00:00:00 | 01:45:38 | 00:00:00 | |
| OE3JTB-15 | 2026-09-03 00:49:57 | 45.49031 | 16.57583 | 123° | 16km/h | 28639m | 5.8m/s | -44.7°C | 2.4% | 0hPa | 2.5V | 00:00:00 | 01:45:35 | 00:00:00 | |
| 9A1FER-10 | 2026-09-03 00:49:53 | 45.49037 | 16.57567 | 119° | 16km/h | 28613m | 7.1m/s | -44.6°C | 2.3% | 0hPa | 2.5V | 00:00:00 | 01:45:31 | 00:00:00 | |
| 9A1FER-3 | 2026-09-03 00:49:51 | 45.49041 | 16.57559 | 122° | 16km/h | 28602m | 5.6m/s | -44.7°C | 2.3% | 0hPa | 2.5V | 00:00:00 | 01:45:29 | 00:00:00 | |
| PG1ADW-2 | 2026-09-03 00:49:50 | 45.49043 | 16.57553 | 117° | 16km/h | 28595m | 7.1m/s | -44.7°C | 2.3% | 0hPa | 2.5V | 00:00:00 | 00:00:00 | 00:00:00 | |
| PETON7-10 | 2026-09-03 00:49:45 | 45.49050 | 16.57520 | 96° | 16km/h | 28564m | 5.5m/s | -44.9°C | 2.3% | 0hPa | 2.5V | 00:00:00 | 00:00:00 | 00:00:00 | |
| OE8JPQ-2 | 2026-09-03 00:49:44 | 45.49050 | 16.57516 | 87° | 16km/h | 28558m | 6.0m/s | 0°C | 0% | 0hPa | 2.6V | 00:00:00 | 01:45:22 | 00:00:00 | |
| 9A1FER-10 | 2026-09-03 00:49:38 | 45.49047 | 16.57481 | 94° | 15km/h | 28521m | 5.4m/s | -45.5°C | 2.5% | 0hPa | 2.6V | 00:00:00 | 01:45:16 | 00:00:00 | |
| 9A1FER-3 | 2026-09-03 00:49:36 | 45.49047 | 16.57468 | 83° | 15km/h | 28508m | 5.7m/s | -45.6°C | 2.5% | 0hPa | 2.6V | 00:00:00 | 01:45:14 | 00:00:00 | |
| OE3JTB-15 | 2026-09-03 00:49:28 | 45.49031 | 16.57430 | 60° | 13km/h | 28460m | 5.2m/s | -45.9°C | 2.5% | 0hPa | 2.6V | 00:00:00 | 00:00:00 | 08:30:00 | |
| OE5DRO-10 | 2026-09-03 00:49:25 | 45.49027 | 16.57418 | 71° | 13km/h | 28441m | 5.5m/s | -46.0°C | 2.5% | 0hPa | 2.6V | 00:00:00 | 00:00:00 | 00:00:00 | |
| OE8JPQ-2 | 2026-09-03 00:49:24 | 45.49026 | 16.57414 | 75° | 13km/h | 28435m | 6.8m/s | 0°C | 0% | 0hPa | 2.6V | 00:00:00 | 00:00:00 | 00:00:00 | |
| 9A1FER-10 | 2026-09-03 00:49:23 | 45.49025 | 16.57410 | 69° | 13km/h | 28429m | 5.2m/s | -46.0°C | 2.6% | 0hPa | 2.6V | 00:00:00 | 01:45:01 | 00:00:00 | |
| 9A1FER-3 | 2026-09-03 00:49:21 | 45.49022 | 16.57404 | 35° | 13km/h | 28417m | 7.2m/s | -46.1°C | 2.6% | 0hPa | 2.5V | 00:00:00 | 01:44:59 | 08:30:00 | |
| OE5DXL-15 | 2026-09-03 00:49:20 | 45.49019 | 16.57402 | 12° | 11km/h | 28411m | 5.8m/s | -46.1°C | 2.6% | 0hPa | 2.5V | 00:00:00 | 00:00:00 | 00:00:00 | |
| PETON7-10 | 2026-09-03 00:49:15 | 45.49000 | 16.57394 | 21° | 11km/h | 28380m | 7.0m/s | -46.0°C | 2.6% | 0hPa | 2.5V | 00:00:00 | 01:44:53 | 00:00:00 | |
| PG1ADW-2 | 2026-09-03 00:49:10 | 45.48988 | 16.57389 | 30° | 9km/h | 28350m | 5.8m/s | -46.0°C | 2.6% | 0hPa | 2.5V | 00:00:00 | 00:00:00 | 00:00:00 | |
| 9A1FER-10 | 2026-09-03 00:49:08 | 45.48982 | 16.57386 | 9° | 9km/h | 28338m | 7.0m/s | -46.0°C | 2.6% | 0hPa | 2.5V | 00:00:00 | 01:44:46 | 00:00:00 | |
| 9A1FER-3 | 2026-09-03 00:49:06 | 45.48976 | 16.57387 | 344° | 9km/h | 28326m | 5.3m/s | -45.9°C | 2.6% | 0hPa | 2.5V | 00:00:00 | 01:44:44 | 00:00:00 | |
| PETON7-10 | 2026-09-03 00:49:00 | 45.48960 | 16.57385 | 353° | 7km/h | 28289m | 5.8m/s | -45.8°C | 2.6% | 0hPa | 2.5V | 00:00:00 | 00:00:00 | 00:00:00 | |
| OE3JTB-15 | 2026-09-03 00:48:59 | 45.48959 | 16.57385 | 1° | 7km/h | 28284m | 5.2m/s | -45.7°C | 2.6% | 0hPa | 2.5V | 00:00:00 | 00:00:00 | 00:00:00 | |
| 9A1FER-10 | 2026-09-03 00:48:52 | 45.48949 | 16.57384 | 322° | 7km/h | 28242m | 5.8m/s | -45.6°C | 2.6% | 0hPa | 2.5V | 00:00:00 | 01:44:30 | 00:00:00 | |
| 9A1FER-3 | 2026-09-03 00:48:51 | 45.48947 | 16.57386 | 337° | 7km/h | 28236m | 6.8m/s | -45.6°C | 2.5% | 0hPa | 2.5V | 00:00:00 | 01:44:29 | 00:00:00 | |
| PG1ADW-2 | 2026-09-03 00:48:50 | 45.48945 | 16.57387 | 352° | 7km/h | 28230m | 5.5m/s | -45.6°C | 2.5% | 0hPa | 2.5V | 00:00:00 | 01:44:28 | 00:00:00 | |
| OE5DRO-10 | 2026-09-03 00:48:47 | 45.48937 | 16.57390 | 317° | 5km/h | 28214m | 6.9m/s | -45.7°C | 2.6% | 0hPa | 2.5V | 00:00:00 | 00:00:00 | 00:00:00 | |
| PETON7-10 | 2026-09-03 00:48:45 | 45.48935 | 16.57396 | 279° | 5km/h | 28202m | 4.8m/s | -45.7°C | 2.6% | 0hPa | 2.5V | 00:00:00 | 00:00:00 | 00:00:00 | |
| OE8JPQ-2 | 2026-09-03 00:48:44 | 45.48935 | 16.57398 | 268° | 5km/h | 28196m | 7.0m/s | 0°C | 0% | 0hPa | 2.5V | 00:00:00 | 01:44:22 | 00:00:00 | |
| 9A1FER-10 | 2026-09-03 00:48:37 | 45.48940 | 16.57397 | 220° | 5km/h | 28153m | 6.9m/s | -45.4°C | 2.5% | 0hPa | 2.5V | 00:00:00 | 01:44:15 | 00:00:00 | |
| 9A1FER-3 | 2026-09-03 00:48:36 | 45.48940 | 16.57397 | 335° | 7km/h | 28147m | 5.3m/s | -45.3°C | 2.5% | 0hPa | 2.6V | 00:00:00 | 01:44:14 | 00:00:00 | |
| PETON7-10 | 2026-09-03 00:48:30 | 45.48934 | 16.57410 | 341° | 5km/h | 28111m | 6.1m/s | -45.0°C | 2.5% | 0hPa | 2.6V | 00:00:00 | 01:44:08 | 00:00:00 | |
| OE5DRO-10 | 2026-09-03 00:48:28 | 45.48934 | 16.57410 | 137° | 7km/h | 28099m | 6.2m/s | -45.0°C | 2.4% | 0hPa | 2.6V | 00:00:00 | 00:00:00 | 00:00:00 | |
| OE8JPQ-2 | 2026-09-03 00:48:24 | 45.48941 | 16.57404 | 127° | 9km/h | 28075m | 6.9m/s | 0°C | 0% | 0hPa | 2.6V | 00:00:00 | 00:00:00 | 00:00:00 | |
| 9A1FER-10 | 2026-09-03 00:48:22 | 45.48942 | 16.57399 | 90° | 7km/h | 28063m | 6.2m/s | -45.0°C | 2.4% | 0hPa | 2.6V | 00:00:00 | 01:44:00 | 00:00:00 | |
| 9A1FER-3 | 2026-09-03 00:48:21 | 45.48942 | 16.57397 | 50° | 7km/h | 28056m | 6.8m/s | -45.1°C | 2.4% | 0hPa | 2.6V | 00:00:00 | 01:43:59 | 00:00:00 | |
| OE5DXL-15 | 2026-09-03 00:48:20 | 45.48941 | 16.57398 | 319° | 9km/h | 28050m | 5.9m/s | -45.1°C | 2.4% | 0hPa | 2.6V | 00:00:00 | 00:00:00 | 00:00:00 | |
| PETON7-10 | 2026-09-03 00:48:15 | 45.48935 | 16.57402 | 215° | 7km/h | 28021m | 7.0m/s | -45.3°C | 2.5% | 0hPa | 2.6V | 00:00:00 | 00:00:00 | 08:30:00 | |
| PG1ADW-2 | 2026-09-03 00:48:10 | 45.48945 | 16.57390 | 118° | 9km/h | 27990m | 4.7m/s | -45.3°C | 2.5% | 0hPa | 2.6V | 00:00:00 | 00:00:00 | 00:00:00 | |
| OE5DRO-10 | 2026-09-03 00:48:09 | 45.48946 | 16.57386 | 121° | 9km/h | 27985m | 6.1m/s | -45.3°C | 2.5% | 0hPa | 2.5V | 00:00:00 | 00:00:00 | 00:00:00 | |
| 9A1FER-10 | 2026-09-03 00:48:07 | 45.48949 | 16.57382 | 133° | 7km/h | 27973m | 5.3m/s | -45.4°C | 2.5% | 0hPa | 2.5V | 00:00:00 | 01:43:45 | 00:00:00 | |
| 9A1FER-3 | 2026-09-03 00:48:06 | 45.48949 | 16.57380 | 94° | 7km/h | 27967m | 6.4m/s | -45.4°C | 2.5% | 0hPa | 2.5V | 00:00:00 | 01:43:44 | 00:00:00 | |
| OE8JPQ-2 | 2026-09-03 00:48:04 | 45.48947 | 16.57378 | 30° | 16km/h | 27954m | 5.5m/s | 0°C | 0% | 0hPa | 2.5V | 00:00:00 | 00:00:00 | 00:00:00 | |
| OE3JTB-15 | 2026-09-03 00:48:01 | 45.48943 | 16.57376 | 26° | 16km/h | 27936m | 4.9m/s | -45.4°C | 2.5% | 0hPa | 2.5V | 00:00:00 | 00:00:00 | 00:00:00 | |
| PETON7-10 | 2026-09-03 00:48:00 | 45.48942 | 16.57375 | 48° | 13km/h | 27930m | 6.6m/s | -45.4°C | 2.5% | 0hPa | 2.6V | 00:00:00 | 00:00:00 | 00:00:00 | |
| 9A1FER-10 | 2026-09-03 00:47:52 | 45.48939 | 16.57349 | 32° | 11km/h | 27882m | 6.6m/s | -45.6°C | 2.5% | 0hPa | 2.6V | 00:00:00 | 01:43:30 | 08:30:00 | |
| 9A1FER-3 | 2026-09-03 00:47:51 | 45.48936 | 16.57348 | 10° | 16km/h | 27877m | 5.7m/s | -45.6°C | 2.5% | 0hPa | 2.5V | 00:00:00 | 01:43:29 | 00:00:00 | |
| PG1ADW-2 | 2026-09-03 00:47:50 | 45.48932 | 16.57348 | 356° | 16km/h | 27870m | 6.6m/s | -45.5°C | 2.5% | 0hPa | 2.6V | 00:00:00 | 00:00:00 | 00:00:00 | |
| PETON7-10 | 2026-09-03 00:47:45 | 45.48905 | 16.57355 | 354° | 15km/h | 27840m | 4.4m/s | -45.4°C | 2.5% | 0hPa | 2.6V | 00:00:00 | 01:43:23 | 00:00:00 | |
| OE8JPQ-2 | 2026-09-03 00:47:41 | 45.48888 | 16.57364 | 327° | 11km/h | 27818m | 4.7m/s | 0°C | 0% | 0hPa | 2.6V | 00:00:00 | 01:43:19 | 00:00:00 | |
| 9A1FER-3 | 2026-09-03 00:47:36 | 45.48875 | 16.57368 | 334° | 11km/h | 27788m | 6.0m/s | -45.5°C | 2.5% | 0hPa | 2.6V | 00:00:00 | 01:43:14 | 00:00:00 | |
| OE3JTB-15 | 2026-09-03 00:47:31 | 45.48860 | 16.57378 | 330° | 9km/h | 27758m | 6.2m/s | -45.5°C | 2.5% | 0hPa | 2.6V | 00:00:00 | 00:00:00 | 00:00:00 | |
| PETON7-10 | 2026-09-03 00:47:30 | 45.48856 | 16.57381 | 315° | 9km/h | 27752m | 6.5m/s | -45.5°C | 2.5% | 0hPa | 2.6V | 00:00:00 | 00:00:00 | 00:00:00 | |
| 9A1FER-3 | 2026-09-03 00:47:21 | 45.48856 | 16.57403 | 186° | 9km/h | 27698m | 4.8m/s | -45.6°C | 2.5% | 0hPa | 2.5V | 00:00:00 | 01:42:59 | 00:00:00 | |
| OE5DXL-15 | 2026-09-03 00:47:20 | 45.48856 | 16.57403 | 212° | 7km/h | 27693m | 5.1m/s | -45.7°C | 2.5% | 0hPa | 2.5V | 00:00:00 | 00:00:00 | 00:00:00 | |
| PETON7-10 | 2026-09-03 00:47:15 | 45.48858 | 16.57419 | 283° | 7km/h | 27663m | 5.2m/s | -45.8°C | 2.5% | 0hPa | 2.5V | 00:00:00 | 00:00:00 | 00:00:00 | |
| OE5DRO-10 | 2026-09-03 00:47:12 | 45.48857 | 16.57432 | 266° | 5km/h | 27646m | 5.7m/s | -45.9°C | 2.5% | 0hPa | 2.5V | 00:00:00 | 00:00:00 | 00:00:00 | |
| PG1ADW-2 | 2026-09-03 00:47:10 | 45.48858 | 16.57440 | 252° | 5km/h | 27635m | 6.8m/s | -45.9°C | 2.5% | 0hPa | 2.5V | 00:00:00 | 00:00:00 | 08:30:00 | |
| 9A1FER-10 | 2026-09-03 00:47:06 | 45.48862 | 16.57442 | 201° | 4km/h | 27611m | 6.4m/s | -45.9°C | 2.5% | 0hPa | 2.5V | 00:00:00 | 01:42:44 | 00:00:00 | |
| PETON7-10 | 2026-09-03 00:47:00 | 45.48869 | 16.57450 | 270° | 4km/h | 27576m | 6.8m/s | -46.1°C | 2.6% | 0hPa | 2.5V | 00:00:00 | 01:42:38 | 00:00:00 | |
| OE5DRO-10 | 2026-09-03 00:46:53 | 45.48868 | 16.57454 | 164° | 7km/h | 27533m | 4.9m/s | -46.3°C | 2.6% | 0hPa | 2.5V | 00:00:00 | 00:00:00 | 00:00:00 | |
| 9A1FER-3 | 2026-09-03 00:46:52 | 45.48869 | 16.57453 | 85° | 7km/h | 27522m | 6.5m/s | -46.4°C | 2.6% | 0hPa | 2.6V | 00:00:00 | 01:42:29 | 00:00:00 | |
| 9A1FER-10 | 2026-09-03 00:46:51 | 45.48869 | 16.57453 | 85° | 7km/h | 27522m | 6.5m/s | -46.4°C | 2.6% | 0hPa | 2.6V | 00:00:00 | 01:42:29 | 00:00:00 | |
| PG1ADW-2 | 2026-09-03 00:46:50 | 45.48868 | 16.57451 | 67° | 7km/h | 27516m | 5.6m/s | -46.4°C | 2.6% | 0hPa | 2.5V | 00:00:00 | 00:00:00 | 00:00:00 | |
| PETON7-10 | 2026-09-03 00:46:45 | 45.48864 | 16.57452 | 13° | 9km/h | 27486m | 6.6m/s | -46.4°C | 2.6% | 0hPa | 2.5V | 00:00:00 | 00:00:00 | 00:00:00 | |
| 9A1FER-10 | 2026-09-03 00:46:36 | 45.48841 | 16.57445 | 17° | 9km/h | 27437m | 5.8m/s | -46.4°C | 2.6% | 0hPa | 2.6V | 00:00:00 | 01:42:14 | 00:00:00 | |
| OE5DRO-10 | 2026-09-03 00:46:34 | 45.48838 | 16.57445 | 304° | 7km/h | 27425m | 5.4m/s | -46.4°C | 2.6% | 0hPa | 2.6V | 00:00:00 | 00:00:00 | 00:00:00 | |
| PETON7-10 | 2026-09-03 00:46:30 | 45.48840 | 16.57440 | 112° | 9km/h | 27401m | 5.2m/s | -46.4°C | 2.6% | 0hPa | 2.6V | 00:00:00 | 00:00:00 | 00:00:00 | |
| 9A1FER-10 | 2026-09-03 00:46:21 | 45.48843 | 16.57410 | 353° | 11km/h | 27348m | 5.6m/s | -46.6°C | 2.6% | 0hPa | 2.6V | 00:00:00 | 01:41:59 | 00:00:00 | |
| OE5DXL-15 | 2026-09-03 00:46:20 | 45.48842 | 16.57410 | 341° | 11km/h | 27343m | 5.3m/s | -46.7°C | 2.6% | 0hPa | 2.6V | 00:00:00 | 00:00:00 | 00:00:00 | |
| PG1ADW-2 | 2026-09-03 00:46:10 | 45.48859 | 16.57378 | 118° | 9km/h | 27286m | 5.8m/s | -47.0°C | 2.7% | 0hPa | 2.6V | 00:00:00 | 01:41:48 | 00:00:00 | |
| PETON7-10 | 2026-09-03 00:46:00 | 45.48857 | 16.57358 | 95° | 13km/h | 27227m | 6.6m/s | -47.1°C | 2.7% | 0hPa | 2.5V | 00:00:00 | 00:00:00 | 08:30:00 | |
| OE5DRO-10 | 2026-09-03 00:45:57 | 45.48863 | 16.57337 | 130° | 13km/h | 27204m | 4.6m/s | -47.2°C | 2.7% | 0hPa | 2.5V | 00:00:00 | 00:00:00 | 00:00:00 | |
| OE5DXL-15 | 2026-09-03 00:45:51 | 45.48862 | 16.57323 | 49° | 13km/h | 27170m | 4.3m/s | -47.3°C | 2.7% | 0hPa | 2.5V | 00:00:00 | 00:00:00 | 00:00:00 | |
| PETON7-10 | 2026-09-03 00:45:45 | 45.48856 | 16.57295 | 83° | 13km/h | 27141m | 5.5m/s | -47.3°C | 2.8% | 0hPa | 2.5V | 00:00:00 | 00:00:00 | 00:00:00 | |
| OE5DRO-10 | 2026-09-03 00:45:37 | 45.48847 | 16.57258 | 93° | 11km/h | 27096m | 5.4m/s | -47.1°C | 2.7% | 0hPa | 2.5V | 00:00:00 | 00:00:00 | 00:00:00 | |
| 9A1FER-10 | 2026-09-03 00:45:36 | 45.48847 | 16.57254 | 94° | 13km/h | 27091m | 6.5m/s | -47.1°C | 2.7% | 0hPa | 2.5V | 00:00:00 | 01:41:14 | 00:00:00 | |
| PETON7-10 | 2026-09-03 00:45:30 | 45.48839 | 16.57228 | 36° | 11km/h | 27056m | 6.1m/s | -47.1°C | 2.7% | 0hPa | 2.5V | 00:00:00 | 01:41:08 | 00:00:00 | |
| OE3JTB-15 | 2026-09-03 00:45:21 | 45.48823 | 16.57203 | 67° | 15km/h | 27006m | 5.7m/s | -47.3°C | 2.7% | 0hPa | 2.5V | 00:00:00 | 00:00:00 | 00:00:00 | |
| OE5DXL-15 | 2026-09-03 00:45:20 | 45.48822 | 16.57199 | 58° | 13km/h | 27000m | 5.3m/s | -47.3°C | 2.7% | 0hPa | 2.5V | 00:00:00 | 00:00:00 | 00:00:00 | |
| OE5DRO-10 | 2026-09-03 00:45:18 | 45.48818 | 16.57194 | 29° | 13km/h | 26988m | 6.2m/s | -47.3°C | 2.7% | 0hPa | 2.5V | 00:00:00 | 00:00:00 | 00:00:00 | |
| PETON7-10 | 2026-09-03 00:45:15 | 45.48809 | 16.57187 | 38° | 13km/h | 26971m | 6.3m/s | -47.2°C | 2.7% | 0hPa | 2.5V | 00:00:00 | 00:00:00 | 00:00:00 | |
| PG1ADW-2 | 2026-09-03 00:45:10 | 45.48797 | 16.57169 | 51° | 11km/h | 26943m | 5.0m/s | -47.3°C | 2.7% | 0hPa | 2.5V | 00:00:00 | 00:00:00 | 00:00:00 | |
| PETON7-10 | 2026-09-03 00:45:00 | 45.48777 | 16.57135 | 49° | 11km/h | 26885m | 7.0m/s | -47.6°C | 2.7% | 0hPa | 2.6V | 00:00:00 | 00:00:00 | 00:00:00 | |
| OE5DRO-10 | 2026-09-03 00:44:59 | 45.48775 | 16.57133 | 39° | 11km/h | 26878m | 5.7m/s | -47.6°C | 2.7% | 0hPa | 2.6V | 00:00:00 | 00:00:00 | 08:30:00 | |
| 9A1FER-10 | 2026-09-03 00:44:51 | 45.48761 | 16.57114 | 26° | 13km/h | 26834m | 6.5m/s | -47.7°C | 2.7% | 0hPa | 2.6V | 00:00:00 | 01:40:29 | 00:00:00 | |
| PG1ADW-2 | 2026-09-03 00:44:50 | 45.48758 | 16.57112 | 28° | 13km/h | 26827m | 6.1m/s | -47.8°C | 2.7% | 0hPa | 2.6V | 00:00:00 | 01:40:28 | 00:00:00 | |
| PETON7-10 | 2026-09-03 00:44:45 | 45.48740 | 16.57112 | 343° | 13km/h | 26799m | 5.9m/s | -47.8°C | 2.7% | 0hPa | 2.6V | 00:00:00 | 01:40:23 | 00:00:00 | |
| OE5DRO-10 | 2026-09-03 00:44:40 | 45.48726 | 16.57112 | 1° | 9km/h | 26769m | 5.3m/s | -48.0°C | 2.8% | 0hPa | 2.6V | 00:00:00 | 00:00:00 | 00:00:00 | |
| 9A1FER-10 | 2026-09-03 00:44:36 | 45.48718 | 16.57108 | 19° | 13km/h | 26748m | 4.7m/s | -48.1°C | 2.8% | 0hPa | 2.6V | 00:00:00 | 01:40:14 | 00:00:00 | |
| PETON7-10 | 2026-09-03 00:44:30 | 45.48695 | 16.57106 | 29° | 7km/h | 26713m | 4.9m/s | -48.2°C | 2.8% | 0hPa | 2.6V | 00:00:00 | 00:00:00 | 00:00:00 | |
| 9A1FER-3 | 2026-09-03 00:44:21 | 45.48688 | 16.57103 | 359° | 11km/h | 26662m | 6.6m/s | -48.6°C | 2.9% | 0hPa | 2.6V | 00:00:00 | 01:39:59 | 00:00:00 | |
| OE5DXL-15 | 2026-09-03 00:44:20 | 45.48686 | 16.57103 | 338° | 13km/h | 26656m | 5.9m/s | -48.6°C | 2.9% | 0hPa | 2.6V | 00:00:00 | 00:00:00 | 00:00:00 | |
| PETON7-10 | 2026-09-03 00:44:15 | 45.48675 | 16.57110 | 312° | 15km/h | 26626m | 7.2m/s | -48.6°C | 2.9% | 0hPa | 2.6V | 00:00:00 | 00:00:00 | 00:00:00 | |
| PG1ADW-2 | 2026-09-03 00:44:10 | 45.48668 | 16.57132 | 286° | 15km/h | 26596m | 6.9m/s | -48.6°C | 3.0% | 0hPa | 2.6V | 00:00:00 | 00:00:00 | 08:30:00 | |
| 9A1FER-3 | 2026-09-03 00:44:06 | 45.48666 | 16.57151 | 268° | 15km/h | 26571m | 4.7m/s | -48.5°C | 3.0% | 0hPa | 2.5V | 00:00:00 | 01:39:44 | 00:00:00 | |
| OE5DRO-10 | 2026-09-03 00:44:02 | 45.48666 | 16.57171 | 276° | 15km/h | 26548m | 5.4m/s | -48.4°C | 2.9% | 0hPa | 2.5V | 00:00:00 | 00:00:00 | 00:00:00 | |
| PETON7-10 | 2026-09-03 00:44:00 | 45.48665 | 16.57182 | 289° | 13km/h | 26536m | 5.3m/s | -48.3°C | 2.9% | 0hPa | 2.5V | 00:00:00 | 01:39:38 | 00:00:00 | |
| 9A1FER-10 | 2026-09-03 00:43:59 | 45.48664 | 16.57187 | 291° | 15km/h | 26531m | 5.5m/s | -48.3°C | 2.9% | 0hPa | 2.5V | 00:00:00 | 01:39:37 | 00:00:00 | |
| 9A1FER-3 | 2026-09-03 00:43:51 | 45.48666 | 16.57229 | 249° | 15km/h | 26482m | 5.6m/s | -48.4°C | 2.9% | 0hPa | 2.5V | 00:00:00 | 01:39:29 | 00:00:00 | |
| PG1ADW-2 | 2026-09-03 00:43:50 | 45.48667 | 16.57232 | 247° | 15km/h | 26476m | 7.0m/s | -48.4°C | 2.9% | 0hPa | 2.5V | 00:00:00 | 00:00:00 | 00:00:00 | |
| PETON7-10 | 2026-09-03 00:43:45 | 45.48668 | 16.57253 | 269° | 15km/h | 26447m | 5.2m/s | -48.4°C | 2.9% | 0hPa | 2.5V | 00:00:00 | 00:00:00 | 08:30:00 | |
| 9A1FER-10 | 2026-09-03 00:43:44 | 45.48669 | 16.57260 | 267° | 15km/h | 26442m | 5.9m/s | -48.4°C | 2.9% | 0hPa | 2.5V | 00:00:00 | 01:39:22 | 00:00:00 | |
| OE5DRO-10 | 2026-09-03 00:43:43 | 45.48669 | 16.57266 | 261° | 13km/h | 26436m | 6.2m/s | -48.4°C | 2.9% | 0hPa | 2.6V | 00:00:00 | 00:00:00 | 00:00:00 | |
| 9A1FER-3 | 2026-09-03 00:43:36 | 45.48686 | 16.57292 | 194° | 13km/h | 26394m | 5.7m/s | -48.1°C | 2.8% | 0hPa | 2.6V | 00:00:00 | 01:39:14 | 00:00:00 | |
| 9A1FER-10 | 2026-09-03 00:43:29 | 45.48705 | 16.57307 | 224° | 11km/h | 26353m | 6.8m/s | -48.2°C | 2.8% | 0hPa | 2.6V | 00:00:00 | 01:39:07 | 00:00:00 | |
| OE5DRO-10 | 2026-09-03 00:43:24 | 45.48716 | 16.57318 | 182° | 11km/h | 26324m | 5.5m/s | -48.4°C | 2.8% | 0hPa | 2.6V | 00:00:00 | 00:00:00 | 00:00:00 | |
| 9A1FER-3 | 2026-09-03 00:43:21 | 45.48725 | 16.57319 | 184° | 11km/h | 26308m | 4.5m/s | -48.4°C | 2.8% | 0hPa | 2.6V | 00:00:00 | 01:38:59 | 00:00:00 | |
| OE5DXL-15 | 2026-09-03 00:43:20 | 45.48728 | 16.57319 | 172° | 9km/h | 26302m | 6.8m/s | -48.5°C | 2.8% | 0hPa | 2.5V | 00:00:00 | 00:00:00 | 00:00:00 | |
| PETON7-10 | 2026-09-03 00:43:15 | 45.48742 | 16.57319 | 217° | 9km/h | 26274m | 4.8m/s | -48.7°C | 2.9% | 0hPa | 2.5V | 00:00:00 | 01:38:53 | 00:00:00 | |
| 9A1FER-10 | 2026-09-03 00:43:14 | 45.48743 | 16.57321 | 217° | 9km/h | 26269m | 5.5m/s | -48.8°C | 2.9% | 0hPa | 2.5V | 00:00:00 | 01:38:52 | 00:00:00 | |
| PG1ADW-2 | 2026-09-03 00:43:09 | 45.48752 | 16.57316 | 139° | 9km/h | 26239m | 5.0m/s | -48.9°C | 2.9% | 0hPa | 2.5V | 00:00:00 | 00:00:00 | 00:00:00 | |
| 9A1FER-3 | 2026-09-03 00:43:06 | 45.48756 | 16.57303 | 94° | 9km/h | 26222m | 4.8m/s | -48.9°C | 2.9% | 0hPa | 2.6V | 00:00:00 | 01:38:44 | 00:00:00 | |
| OE5DRO-10 | 2026-09-03 00:43:05 | 45.48756 | 16.57299 | 85° | 9km/h | 26217m | 4.6m/s | -48.9°C | 2.9% | 0hPa | 2.6V | 00:00:00 | 00:00:00 | 00:00:00 | |
| PETON7-10 | 2026-09-03 00:43:00 | 45.48753 | 16.57290 | 29° | 11km/h | 26188m | 5.9m/s | -49.0°C | 2.9% | 0hPa | 2.5V | 00:00:00 | 00:00:00 | 00:00:00 | |
| 9A1FER-10 | 2026-09-03 00:42:59 | 45.48751 | 16.57289 | 22° | 11km/h | 26182m | 5.4m/s | -49.0°C | 2.9% | 0hPa | 2.5V | 00:00:00 | 01:38:37 | 08:30:00 | |
| 9A1FER-3 | 2026-09-03 00:42:51 | 45.48742 | 16.57264 | 68° | 11km/h | 26137m | 4.8m/s | -49.4°C | 3.0% | 0hPa | 2.5V | 00:00:00 | 01:38:29 | 00:00:00 | |
| OE5DXL-15 | 2026-09-03 00:42:50 | 45.48741 | 16.57262 | 49° | 11km/h | 26132m | 5.8m/s | -49.4°C | 3.0% | 0hPa | 2.5V | 00:00:00 | 00:00:00 | 00:00:00 | |
| PG1ADW-2 | 2026-09-03 00:42:49 | 45.48739 | 16.57260 | 33° | 11km/h | 26125m | 7.2m/s | -49.4°C | 3.0% | 0hPa | 2.5V | 00:00:00 | 00:00:00 | 00:00:00 | |
| OE5DRO-10 | 2026-09-03 00:42:46 | 45.48730 | 16.57257 | 1° | 11km/h | 26109m | 6.1m/s | -49.4°C | 2.9% | 0hPa | 2.5V | 00:00:00 | 00:00:00 | 00:00:00 | |
| PETON7-10 | 2026-09-03 00:42:45 | 45.48726 | 16.57257 | 351° | 11km/h | 26102m | 6.4m/s | -49.4°C | 2.9% | 0hPa | 2.5V | 00:00:00 | 00:00:00 | 00:00:00 | |
| 9A1FER-10 | 2026-09-03 00:42:44 | 45.48722 | 16.57258 | 351° | 11km/h | 26097m | 4.9m/s | -49.4°C | 2.9% | 0hPa | 2.5V | 00:00:00 | 01:38:22 | 00:00:00 | |
| 9A1FER-3 | 2026-09-03 00:42:36 | 45.48702 | 16.57256 | 10° | 11km/h | 26051m | 4.5m/s | -49.5°C | 3.0% | 0hPa | 2.5V | 00:00:00 | 01:38:14 | 08:30:00 | |
| PETON7-10 | 2026-09-03 00:42:30 | 45.48689 | 16.57266 | 338° | 13km/h | 26016m | 4.7m/s | -49.7°C | 2.9% | 0hPa | 2.6V | 00:00:00 | 01:38:08 | 00:00:00 | |
| 9A1FER-10 | 2026-09-03 00:42:29 | 45.48686 | 16.57268 | 331° | 13km/h | 26010m | 6.0m/s | -49.7°C | 2.9% | 0hPa | 2.6V | 00:00:00 | 01:38:07 | 00:00:00 | |
| OE5DRO-10 | 2026-09-03 00:42:27 | 45.48682 | 16.57275 | 308° | 13km/h | 25998m | 5.5m/s | -49.8°C | 3.0% | 0hPa | 2.6V | 00:00:00 | 00:00:00 | 00:00:00 | |
| 9A1FER-3 | 2026-09-03 00:42:21 | 45.48676 | 16.57295 | 243° | 13km/h | 25964m | 5.4m/s | -50.2°C | 3.1% | 0hPa | 2.6V | 00:00:00 | 01:37:59 | 00:00:00 | |
| OE5DXL-15 | 2026-09-03 00:42:20 | 45.48678 | 16.57299 | 240° | 15km/h | 25959m | 5.5m/s | -50.3°C | 3.1% | 0hPa | 2.6V | 00:00:00 | 00:00:00 | 08:30:00 | |
| PETON7-10 | 2026-09-03 00:42:15 | 45.48687 | 16.57319 | 239° | 15km/h | 25930m | 5.4m/s | -50.2°C | 3.1% | 0hPa | 2.5V | 00:00:00 | 00:00:00 | 00:00:00 | |
| 9A1FER-10 | 2026-09-03 00:42:14 | 45.48688 | 16.57324 | 244° | 15km/h | 25925m | 5.7m/s | -50.2°C | 3.1% | 0hPa | 2.6V | 00:00:00 | 01:37:52 | 00:00:00 | |
| PG1ADW-2 | 2026-09-03 00:42:09 | 45.48693 | 16.57347 | 246° | 15km/h | 25895m | 4.8m/s | -50.2°C | 3.1% | 0hPa | 2.5V | 00:00:00 | 01:37:47 | 00:00:00 | |
| OE5DRO-10 | 2026-09-03 00:42:08 | 45.48695 | 16.57352 | 247° | 15km/h | 25889m | 6.4m/s | -50.2°C | 3.1% | 0hPa | 2.6V | 00:00:00 | 00:00:00 | 08:30:00 | |
| 9A1FER-3 | 2026-09-03 00:42:06 | 45.48698 | 16.57360 | 235° | 13km/h | 25878m | 4.8m/s | -50.1°C | 3.1% | 0hPa | 2.5V | 00:00:00 | 01:37:44 | 00:00:00 | |
| PETON7-10 | 2026-09-03 00:42:00 | 45.48716 | 16.57372 | 171° | 16km/h | 25844m | 6.4m/s | -50.2°C | 3.0% | 0hPa | 2.5V | 00:00:00 | 00:00:00 | 00:00:00 | |
| 9A1FER-3 | 2026-09-03 00:41:51 | 45.48745 | 16.57376 | 206° | 18km/h | 25793m | 5.6m/s | -50.6°C | 3.1% | 0hPa | 2.5V | 00:00:00 | 01:37:29 | 00:00:00 | |
| OE5DXL-15 | 2026-09-03 00:41:50 | 45.48749 | 16.57378 | 195° | 16km/h | 25788m | 5.5m/s | -50.6°C | 3.1% | 0hPa | 2.6V | 00:00:00 | 00:00:00 | 00:00:00 | |
| PG1ADW-2 | 2026-09-03 00:41:49 | 45.48753 | 16.57379 | 177° | 18km/h | 25782m | 5.3m/s | -50.7°C | 3.1% | 0hPa | 2.6V | 00:00:00 | 00:00:00 | 00:00:00 | |
| PETON7-10 | 2026-09-03 00:41:44 | 45.48775 | 16.57362 | 127° | 18km/h | 25753m | 5.8m/s | -50.7°C | 3.2% | 0hPa | 2.6V | 00:00:00 | 01:37:22 | 00:00:00 | |
| OE8JPQ-2 | 2026-09-03 00:41:40 | 45.48787 | 16.57340 | 131° | 16km/h | 25730m | 5.7m/s | 0°C | 0% | 0hPa | 2.6V | 00:00:00 | 00:00:00 | 00:00:00 | |
| 9A1FER-3 | 2026-09-03 00:41:36 | 45.48799 | 16.57323 | 150° | 15km/h | 25706m | 5.9m/s | -50.9°C | 3.1% | 0hPa | 2.6V | 00:00:00 | 01:37:14 | 00:00:00 | |
| 9A1FER-10 | 2026-09-03 00:41:34 | 45.48808 | 16.57315 | 140° | 15km/h | 25697m | 5.5m/s | -50.9°C | 3.1% | 0hPa | 2.6V | 00:00:00 | 01:37:12 | 00:00:00 | |
| OE5DRO-10 | 2026-09-03 00:41:30 | 45.48814 | 16.57296 | 103° | 16km/h | 25673m | 6.9m/s | -50.8°C | 3.0% | 0hPa | 2.6V | 00:00:00 | 00:00:00 | 00:00:00 | |
| PETON7-10 | 2026-09-03 00:41:29 | 45.48815 | 16.57292 | 105° | 15km/h | 25667m | 4.8m/s | -50.8°C | 3.0% | 0hPa | 2.6V | 00:00:00 | 00:00:00 | 08:30:00 | |
| 9A1FER-3 | 2026-09-03 00:41:21 | 45.48819 | 16.57252 | 114° | 16km/h | 25622m | 5.6m/s | -51.4°C | 3.2% | 0hPa | 2.5V | 00:00:00 | 01:36:59 | 00:00:00 | |
| OE5DXL-15 | 2026-09-03 00:41:20 | 45.48821 | 16.57246 | 102° | 16km/h | 25616m | 6.6m/s | -51.5°C | 3.2% | 0hPa | 2.5V | 00:00:00 | 00:00:00 | 00:00:00 | |
| 9A1FER-10 | 2026-09-03 00:41:19 | 45.48821 | 16.57240 | 87° | 16km/h | 25611m | 5.0m/s | -51.6°C | 3.2% | 0hPa | 2.5V | 00:00:00 | 01:36:57 | 00:00:00 | |
| PETON7-10 | 2026-09-03 00:41:13 | 45.48812 | 16.57208 | 58° | 16km/h | 25577m | 5.9m/s | -51.9°C | 3.3% | 0hPa | 2.6V | 00:00:00 | 00:00:00 | 00:00:00 | |
| OE5DRO-10 | 2026-09-03 00:41:11 | 45.48807 | 16.57195 | 62° | 16km/h | 25566m | 6.0m/s | -52.0°C | 3.3% | 0hPa | 2.6V | 00:00:00 | 00:00:00 | 00:00:00 | |
| PG1ADW-2 | 2026-09-03 00:41:09 | 45.48803 | 16.57184 | 68° | 15km/h | 25554m | 4.6m/s | -51.9°C | 3.3% | 0hPa | 2.6V | 00:00:00 | 00:00:00 | 08:30:00 | |
| 9A1FER-3 | 2026-09-03 00:41:06 | 45.48798 | 16.57170 | 53° | 15km/h | 25538m | 4.9m/s | -51.9°C | 3.3% | 0hPa | 2.5V | 00:00:00 | 01:36:44 | 00:00:00 | |
| 9A1FER-10 | 2026-09-03 00:41:04 | 45.48793 | 16.57162 | 41° | 15km/h | 25528m | 6.4m/s | -51.8°C | 3.3% | 0hPa | 2.6V | 00:00:00 | 01:36:42 | 00:00:00 | |
| PETON7-10 | 2026-09-03 00:40:58 | 45.48770 | 16.57150 | 17° | 16km/h | 25495m | 5.8m/s | -51.7°C | 3.3% | 0hPa | 2.6V | 00:00:00 | 01:36:36 | 00:00:00 | |
| OE5DRO-10 | 2026-09-03 00:40:52 | 45.48748 | 16.57144 | 6° | 18km/h | 25461m | 5.3m/s | -51.8°C | 3.3% | 0hPa | 2.6V | 00:00:00 | 00:00:00 | 00:00:00 | |
| 9A1FER-3 | 2026-09-03 00:40:51 | 45.48745 | 16.57144 | 348° | 16km/h | 25456m | 6.5m/s | -51.9°C | 3.3% | 0hPa | 2.6V | 00:00:00 | 01:36:29 | 00:00:00 | |
| OE5DXL-15 | 2026-09-03 00:40:50 | 45.48742 | 16.57146 | 337° | 18km/h | 25450m | 4.6m/s | -51.9°C | 3.3% | 0hPa | 2.6V | 00:00:00 | 00:00:00 | 00:00:00 | |
| 9A1FER-10 | 2026-09-03 00:40:49 | 45.48738 | 16.57148 | 338° | 18km/h | 25446m | 4.3m/s | -52.0°C | 3.3% | 0hPa | 2.5V | 00:00:00 | 01:36:27 | 00:00:00 | |
| PETON7-10 | 2026-09-03 00:40:43 | 45.48707 | 16.57154 | 353° | 18km/h | 25413m | 5.4m/s | -51.9°C | 3.4% | 0hPa | 2.5V | 00:00:00 | 00:00:00 | 00:00:00 | |
| 9A1FER-3 | 2026-09-03 00:40:36 | 45.48686 | 16.57176 | 307° | 18km/h | 25372m | 6.5m/s | -52.0°C | 3.3% | 0hPa | 2.5V | 00:00:00 | 01:36:14 | 00:00:00 | |
| 9A1FER-10 | 2026-09-03 00:40:34 | 45.48677 | 16.57190 | 321° | 20km/h | 25361m | 4.6m/s | -52.0°C | 3.4% | 0hPa | 2.5V | 00:00:00 | 01:36:12 | 08:30:00 | |
| OE5DRO-10 | 2026-09-03 00:40:33 | 45.48672 | 16.57196 | 320° | 18km/h | 25355m | 5.2m/s | -52.0°C | 3.3% | 0hPa | 2.5V | 00:00:00 | 00:00:00 | 00:00:00 | |
| PG1ADW-2 | 2026-09-03 00:40:29 | 45.48658 | 16.57212 | 340° | 18km/h | 25331m | 5.6m/s | -51.9°C | 3.3% | 0hPa | 2.5V | 00:00:00 | 00:00:00 | 00:00:00 | |
| PETON7-10 | 2026-09-03 00:40:28 | 45.48656 | 16.57213 | 345° | 20km/h | 25326m | 4.0m/s | -51.9°C | 3.3% | 0hPa | 2.5V | 00:00:00 | 00:00:00 | 00:00:00 | |
| 9A1FER-3 | 2026-09-03 00:40:21 | 45.48637 | 16.57248 | 317° | 22km/h | 25287m | 5.3m/s | -52.1°C | 3.4% | 0hPa | 2.5V | 00:00:00 | 01:35:59 | 08:30:00 | |
| OE5DXL-15 | 2026-09-03 00:40:20 | 45.48632 | 16.57255 | 315° | 20km/h | 25281m | 6.2m/s | -52.2°C | 3.3% | 0hPa | 2.6V | 00:00:00 | 00:00:00 | 00:00:00 | |
| 9A1FER-10 | 2026-09-03 00:40:19 | 45.48627 | 16.57263 | 311° | 22km/h | 25276m | 5.6m/s | -52.2°C | 3.4% | 0hPa | 2.6V | 00:00:00 | 01:35:57 | 00:00:00 | |
| OE5DRO-10 | 2026-09-03 00:40:14 | 45.48611 | 16.57285 | 305° | 18km/h | 25246m | 6.5m/s | -52.3°C | 3.4% | 0hPa | 2.6V | 00:00:00 | 00:00:00 | 00:00:00 | |
| PETON7-10 | 2026-09-03 00:40:13 | 45.48609 | 16.57289 | 300° | 20km/h | 25240m | 4.9m/s | -52.3°C | 3.5% | 0hPa | 2.6V | 00:00:00 | 01:35:51 | 00:00:00 | |
| PG1ADW-2 | 2026-09-03 00:40:09 | 45.48597 | 16.57312 | 306° | 22km/h | 25217m | 6.6m/s | -52.1°C | 3.4% | 0hPa | 2.6V | 00:00:00 | 00:00:00 | 00:00:00 | |
| 9A1FER-3 | 2026-09-03 00:40:06 | 45.48586 | 16.57340 | 299° | 20km/h | 25201m | 6.0m/s | -52.1°C | 3.4% | 0hPa | 2.6V | 00:00:00 | 01:35:44 | 00:00:00 | |
| 9A1FER-10 | 2026-09-03 00:40:04 | 45.48579 | 16.57356 | 306° | 18km/h | 25189m | 4.8m/s | -52.0°C | 3.4% | 0hPa | 2.6V | 00:00:00 | 01:35:42 | 00:00:00 | |
| PETON7-10 | 2026-09-03 00:39:58 | 45.48570 | 16.57383 | 303° | 18km/h | 25155m | 5.0m/s | -51.9°C | 3.4% | 0hPa | 2.6V | 00:00:00 | 00:00:00 | 00:00:00 | |
| OE5DRO-10 | 2026-09-03 00:39:55 | 45.48565 | 16.57399 | 295° | 18km/h | 25137m | 5.4m/s | -51.8°C | 3.4% | 0hPa | 2.5V | 00:00:00 | 00:00:00 | 00:00:00 | |
| 9A1FER-3 | 2026-09-03 00:39:51 | 45.48551 | 16.57431 | 299° | 16km/h | 25115m | 6.4m/s | -51.6°C | 3.3% | 0hPa | 2.5V | 00:00:00 | 01:35:29 | 00:00:00 | |
| OE5DXL-15 | 2026-09-03 00:39:50 | 45.48549 | 16.57439 | 290° | 15km/h | 25109m | 5.1m/s | -51.6°C | 3.4% | 0hPa | 2.5V | 00:00:00 | 00:00:00 | 00:00:00 | |
| 9A1FER-10 | 2026-09-03 00:39:49 | 45.48547 | 16.57446 | 283° | 16km/h | 25104m | 4.4m/s | -51.5°C | 3.3% | 0hPa | 2.5V | 00:00:00 | 01:35:27 | 00:00:00 | |
| PETON7-10 | 2026-09-03 00:39:43 | 45.48547 | 16.57469 | 250° | 16km/h | 25071m | 5.0m/s | -51.4°C | 3.3% | 0hPa | 2.5V | 00:00:00 | 00:00:00 | 00:00:00 | |
| 9A1FER-3 | 2026-09-03 00:39:36 | 45.48535 | 16.57512 | 297° | 15km/h | 25031m | 4.5m/s | -51.4°C | 3.3% | 0hPa | 2.5V | 00:00:00 | 01:35:14 | 00:00:00 | |
| 9A1FER-10 | 2026-09-03 00:39:34 | 45.48530 | 16.57526 | 301° | 13km/h | 25021m | 5.9m/s | -51.3°C | 3.3% | 0hPa | 2.6V | 00:00:00 | 01:35:12 | 00:00:00 | |
| PG1ADW-2 | 2026-09-03 00:39:29 | 45.48536 | 16.57540 | 189° | 13km/h | 24992m | 4.2m/s | -51.1°C | 3.2% | 0hPa | 2.6V | 00:00:00 | 01:35:07 | 00:00:00 | |
| PETON7-10 | 2026-09-03 00:39:28 | 45.48540 | 16.57541 | 190° | 11km/h | 24988m | 5.6m/s | -51.1°C | 3.2% | 0hPa | 2.6V | 00:00:00 | 01:35:06 | 00:00:00 | |
| 9A1FER-3 | 2026-09-03 00:39:22 | 45.48540 | 16.57570 | 301° | 11km/h | 24950m | 5.7m/s | -51.2°C | 3.2% | 0hPa | 2.6V | 00:00:00 | 01:34:59 | 00:00:00 | |
| OE5DXL-15 | 2026-09-03 00:39:20 | 45.48538 | 16.57573 | 317° | 11km/h | 24944m | 5.9m/s | -51.2°C | 3.2% | 0hPa | 2.6V | 00:00:00 | 00:00:00 | 00:00:00 | |
| 9A1FER-10 | 2026-09-03 00:39:19 | 45.48537 | 16.57574 | 7° | 9km/h | 24938m | 5.4m/s | -51.2°C | 3.2% | 0hPa | 2.5V | 00:00:00 | 01:34:57 | 00:00:00 | |
| OE5DRO-10 | 2026-09-03 00:39:17 | 45.48539 | 16.57573 | 159° | 11km/h | 24926m | 5.7m/s | -51.2°C | 3.2% | 0hPa | 2.5V | 00:00:00 | 00:00:00 | 08:30:00 | |
| PETON7-10 | 2026-09-03 00:39:13 | 45.48551 | 16.57563 | 160° | 9km/h | 24903m | 5.7m/s | -51.2°C | 3.2% | 0hPa | 2.6V | 00:00:00 | 00:00:00 | 08:30:00 | |
| PG1ADW-2 | 2026-09-03 00:39:09 | 45.48564 | 16.57566 | 214° | 11km/h | 24878m | 6.1m/s | -51.4°C | 3.2% | 0hPa | 2.5V | 00:00:00 | 00:00:00 | 00:00:00 | |
| 9A1FER-3 | 2026-09-03 00:39:06 | 45.48567 | 16.57572 | 239° | 11km/h | 24862m | 5.3m/s | -51.5°C | 3.3% | 0hPa | 2.5V | 00:00:00 | 01:34:44 | 00:00:00 | |
| 9A1FER-10 | 2026-09-03 00:39:04 | 45.48569 | 16.57574 | 167° | 11km/h | 24850m | 6.8m/s | -51.5°C | 3.3% | 0hPa | 2.5V | 00:00:00 | 01:34:42 | 00:00:00 | |
| PETON7-10 | 2026-09-03 00:38:58 | 45.48582 | 16.57562 | 147° | 11km/h | 24816m | 6.2m/s | -51.5°C | 3.2% | 0hPa | 2.5V | 00:00:00 | 00:00:00 | 00:00:00 | |
| 9A1FER-3 | 2026-09-03 00:38:51 | 45.48605 | 16.57559 | 205° | 5km/h | 24776m | 5.1m/s | -51.8°C | 3.3% | 0hPa | 2.5V | 00:00:00 | 01:34:29 | 00:00:00 | |
| OE5DXL-15 | 2026-09-03 00:38:50 | 45.48606 | 16.57560 | 208° | 5km/h | 24770m | 5.6m/s | -51.8°C | 3.3% | 0hPa | 2.6V | 00:00:00 | 00:00:00 | 00:00:00 | |
| 9A1FER-10 | 2026-09-03 00:38:49 | 45.48607 | 16.57561 | 199° | 5km/h | 24764m | 5.9m/s | -51.8°C | 3.3% | 0hPa | 2.6V | 00:00:00 | 01:34:27 | 00:00:00 | |
| PETON7-10 | 2026-09-03 00:38:43 | 45.48614 | 16.57551 | 137° | 4km/h | 24729m | 6.4m/s | -51.8°C | 3.3% | 0hPa | 2.6V | 00:00:00 | 01:34:21 | 00:00:00 | |
| OE5DRO-10 | 2026-09-03 00:38:39 | 45.48619 | 16.57551 | 262° | 4km/h | 24708m | 5.4m/s | -51.8°C | 3.2% | 0hPa | 2.6V | 00:00:00 | 00:00:00 | 00:00:00 | |
| 9A1FER-3 | 2026-09-03 00:38:36 | 45.48620 | 16.57554 | 230° | 4km/h | 24691m | 4.4m/s | -51.9°C | 3.2% | 0hPa | 2.6V | 00:00:00 | 01:34:14 | 00:00:00 | |
| 9A1FER-10 | 2026-09-03 00:38:34 | 45.48620 | 16.57555 | 340° | 4km/h | 24679m | 5.2m/s | -52.0°C | 3.3% | 0hPa | 2.6V | 00:00:00 | 01:34:12 | 00:00:00 | |
| PG1ADW-2 | 2026-09-03 00:38:29 | 45.48618 | 16.57561 | 301° | 5km/h | 24651m | 5.5m/s | -52.5°C | 3.3% | 0hPa | 2.6V | 00:00:00 | 00:00:00 | 00:00:00 | |
| PETON7-10 | 2026-09-03 00:38:28 | 45.48618 | 16.57563 | 290° | 5km/h | 24645m | 5.6m/s | -52.6°C | 3.4% | 0hPa | 2.6V | 00:00:00 | 00:00:00 | 00:00:00 | |
| 9A1FER-3 | 2026-09-03 00:38:21 | 45.48616 | 16.57571 | 150° | 7km/h | 24605m | 4.8m/s | -52.9°C | 3.5% | 0hPa | 2.5V | 00:00:00 | 01:33:59 | 00:00:00 | |
| 9A1FER-10 | 2026-09-03 00:38:20 | 45.48617 | 16.57569 | 117° | 7km/h | 24594m | 5.9m/s | -52.9°C | 3.5% | 0hPa | 2.5V | 00:00:00 | 01:33:57 | 08:30:00 | |
| PETON7-10 | 2026-09-03 00:38:13 | 45.48623 | 16.57573 | 240° | 9km/h | 24560m | 7.0m/s | -52.9°C | 3.5% | 0hPa | 2.6V | 00:00:00 | 00:00:00 | 00:00:00 | |
| PG1ADW-2 | 2026-09-03 00:38:09 | 45.48628 | 16.57585 | 216° | 9km/h | 24537m | 4.7m/s | -52.9°C | 3.5% | 0hPa | 2.6V | 00:00:00 | 01:33:47 | 08:30:00 | |
| 9A1FER-3 | 2026-09-03 00:38:06 | 45.48634 | 16.57585 | 140° | 9km/h | 24521m | 5.2m/s | -52.9°C | 3.5% | 0hPa | 2.5V | 00:00:00 | 01:33:44 | 08:30:00 | |
| 9A1FER-10 | 2026-09-03 00:38:04 | 45.48637 | 16.57582 | 152° | 9km/h | 24510m | 6.0m/s | -52.9°C | 3.5% | 0hPa | 2.5V | 00:00:00 | 01:33:42 | 00:00:00 | |
| OE5DRO-10 | 2026-09-03 00:38:01 | 45.48643 | 16.57581 | 202° | 11km/h | 24493m | 6.9m/s | -52.8°C | 3.5% | 0hPa | 2.5V | 00:00:00 | 00:00:00 | 00:00:00 | |
| PETON7-10 | 2026-09-03 00:37:58 | 45.48646 | 16.57588 | 239° | 11km/h | 24475m | 6.6m/s | -52.9°C | 3.5% | 0hPa | 2.5V | 00:00:00 | 01:33:36 | 00:00:00 | |
| 9A1FER-3 | 2026-09-03 00:37:51 | 45.48660 | 16.57603 | 162° | 9km/h | 24438m | 5.9m/s | -52.9°C | 3.5% | 0hPa | 2.5V | 00:00:00 | 01:33:29 | 00:00:00 | |
| OE5DXL-15 | 2026-09-03 00:37:50 | 45.48662 | 16.57601 | 153° | 9km/h | 24432m | 4.7m/s | -52.9°C | 3.4% | 0hPa | 2.5V | 00:00:00 | 00:00:00 | 08:30:00 | |
| 9A1FER-10 | 2026-09-03 00:37:49 | 45.48665 | 16.57599 | 142° | 9km/h | 24427m | 6.7m/s | -52.9°C | 3.5% | 0hPa | 2.5V | 00:00:00 | 01:33:27 | 00:00:00 | |
| OE5DRO-10 | 2026-09-03 00:37:42 | 45.48680 | 16.57587 | 140° | 9km/h | 24388m | 5.1m/s | -52.8°C | 3.4% | 0hPa | 2.5V | 00:00:00 | 00:00:00 | 00:00:00 | |
| 9A1FER-3 | 2026-09-03 00:37:36 | 45.48688 | 16.57583 | 158° | 9km/h | 24354m | 5.6m/s | -52.8°C | 3.4% | 0hPa | 2.5V | 00:00:00 | 01:33:14 | 00:00:00 | |
| 9A1FER-10 | 2026-09-03 00:37:34 | 45.48692 | 16.57581 | 165° | 9km/h | 24343m | 6.1m/s | -52.8°C | 3.5% | 0hPa | 2.5V | 00:00:00 | 01:33:12 | 00:00:00 | |
| PG1ADW-2 | 2026-09-03 00:37:29 | 45.48705 | 16.57571 | 125° | 7km/h | 24316m | 4.6m/s | -53.0°C | 3.5% | 0hPa | 2.6V | 00:00:00 | 00:00:00 | 00:00:00 | |
| PETON7-10 | 2026-09-03 00:37:28 | 45.48707 | 16.57568 | 130° | 7km/h | 24310m | 6.3m/s | -53.0°C | 3.5% | 0hPa | 2.6V | 00:00:00 | 00:00:00 | 00:00:00 | |
| OE5DRO-10 | 2026-09-03 00:37:23 | 45.48711 | 16.57556 | 67° | 5km/h | 24283m | 5.2m/s | -52.9°C | 3.5% | 0hPa | 2.6V | 00:00:00 | 00:00:00 | 00:00:00 | |
| 9A1FER-3 | 2026-09-03 00:37:21 | 45.48711 | 16.57553 | 255° | 5km/h | 24272m | 5.4m/s | -52.9°C | 3.4% | 0hPa | 2.5V | 00:00:00 | 01:32:59 | 00:00:00 | |
| OE5DXL-15 | 2026-09-03 00:37:20 | 45.48711 | 16.57553 | 173° | 9km/h | 24267m | 3.7m/s | -52.9°C | 3.5% | 0hPa | 2.6V | 00:00:00 | 00:00:00 | 00:00:00 | |
| 9A1FER-10 | 2026-09-03 00:37:19 | 45.48712 | 16.57553 | 136° | 7km/h | 24262m | 5.4m/s | -52.9°C | 3.4% | 0hPa | 2.6V | 00:00:00 | 01:32:57 | 00:00:00 | |
| PETON7-10 | 2026-09-03 00:37:13 | 45.48721 | 16.57533 | 148° | 9km/h | 24229m | 4.9m/s | -53.0°C | 3.4% | 0hPa | 2.6V | 00:00:00 | 01:32:51 | 00:00:00 | |
| PG1ADW-2 | 2026-09-03 00:37:09 | 45.48723 | 16.57529 | 225° | 11km/h | 24207m | 6.3m/s | -53.1°C | 3.4% | 0hPa | 2.6V | 00:00:00 | 00:00:00 | 00:00:00 | |
| 9A1FER-3 | 2026-09-03 00:37:06 | 45.48724 | 16.57529 | 101° | 13km/h | 24191m | 6.0m/s | -53.3°C | 3.5% | 0hPa | 2.5V | 00:00:00 | 01:32:44 | 00:00:00 | |
| 9A1FER-10 | 2026-09-03 00:37:04 | 45.48726 | 16.57523 | 120° | 13km/h | 24179m | 6.2m/s | -53.4°C | 3.5% | 0hPa | 2.5V | 00:00:00 | 01:32:42 | 00:00:00 | |
| PETON7-10 | 2026-09-03 00:36:58 | 45.48741 | 16.57492 | 130° | 13km/h | 24145m | 6.8m/s | -53.6°C | 3.6% | 0hPa | 2.5V | 00:00:00 | 00:00:00 | 08:30:00 | |
| 9A1FER-3 | 2026-09-03 00:36:51 | 45.48755 | 16.57485 | 202° | 15km/h | 24106m | 6.0m/s | -53.7°C | 3.6% | 0hPa | 2.6V | 00:00:00 | 01:32:29 | 00:00:00 | |
| OE5DXL-15 | 2026-09-03 00:36:50 | 45.48757 | 16.57486 | 190° | 16km/h | 24100m | 5.1m/s | -53.7°C | 3.6% | 0hPa | 2.6V | 00:00:00 | 00:00:00 | 00:00:00 | |
| 9A1FER-10 | 2026-09-03 00:36:49 | 45.48760 | 16.57486 | 171° | 15km/h | 24094m | 6.7m/s | -53.7°C | 3.6% | 0hPa | 2.6V | 00:00:00 | 01:32:27 | 00:00:00 | |
| OE5DRO-10 | 2026-09-03 00:36:45 | 45.48773 | 16.57477 | 150° | 16km/h | 24072m | 4.9m/s | -53.7°C | 3.5% | 0hPa | 2.5V | 00:00:00 | 00:00:00 | 00:00:00 | |
| PETON7-10 | 2026-09-03 00:36:43 | 45.48780 | 16.57468 | 134° | 15km/h | 24059m | 4.9m/s | -53.8°C | 3.6% | 0hPa | 2.5V | 00:00:00 | 00:00:00 | 00:00:00 | |
| 9A1FER-3 | 2026-09-03 00:36:36 | 45.48800 | 16.57447 | 123° | 16km/h | 24020m | 5.6m/s | -54.0°C | 3.7% | 0hPa | 2.5V | 00:00:00 | 01:32:14 | 00:00:00 | |
| 9A1FER-10 | 2026-09-03 00:36:34 | 45.48803 | 16.57442 | 139° | 18km/h | 24008m | 4.7m/s | -54.0°C | 3.7% | 0hPa | 2.5V | 00:00:00 | 01:32:12 | 00:00:00 | |
| PG1ADW-2 | 2026-09-03 00:36:29 | 45.48814 | 16.57417 | 128° | 22km/h | 23978m | 5.2m/s | -54.0°C | 3.7% | 0hPa | 2.5V | 00:00:00 | 00:00:00 | 00:00:00 | |
| PETON7-10 | 2026-09-03 00:36:28 | 45.48818 | 16.57410 | 125° | 22km/h | 23973m | 5.9m/s | -54.0°C | 3.7% | 0hPa | 2.5V | 00:00:00 | 01:32:06 | 00:00:00 | |
| OE5DRO-10 | 2026-09-03 00:36:26 | 45.48824 | 16.57396 | 121° | 20km/h | 23961m | 4.9m/s | -54.0°C | 3.7% | 0hPa | 2.5V | 00:00:00 | 00:00:00 | 08:30:00 | |
| 9A1FER-3 | 2026-09-03 00:36:21 | 45.48836 | 16.57370 | 104° | 20km/h | 23933m | 5.5m/s | -53.9°C | 3.7% | 0hPa | 2.5V | 00:00:00 | 01:31:59 | 00:00:00 | |
| OE5DXL-15 | 2026-09-03 00:36:20 | 45.48837 | 16.57364 | 95° | 18km/h | 23928m | 4.5m/s | -53.8°C | 3.7% | 0hPa | 2.5V | 00:00:00 | 00:00:00 | 00:00:00 | |
| 9A1FER-10 | 2026-09-03 00:36:19 | 45.48837 | 16.57357 | 98° | 20km/h | 23923m | 5.3m/s | -53.8°C | 3.6% | 0hPa | 2.5V | 00:00:00 | 01:31:57 | 00:00:00 | |
| PETON7-10 | 2026-09-03 00:36:13 | 45.48849 | 16.57305 | 117° | 18km/h | 23889m | 6.5m/s | -54.0°C | 3.6% | 0hPa | 2.5V | 00:00:00 | 00:00:00 | 00:00:00 | |
| PG1ADW-2 | 2026-09-03 00:36:09 | 45.48858 | 16.57277 | 92° | 15km/h | 23866m | 5.7m/s | -53.8°C | 3.6% | 0hPa | 2.5V | 00:00:00 | 00:00:00 | 00:00:00 | |
| OE5DRO-10 | 2026-09-03 00:36:07 | 45.48856 | 16.57268 | 68° | 15km/h | 23856m | 5.8m/s | -53.8°C | 3.6% | 0hPa | 2.6V | 00:00:00 | 00:00:00 | 00:00:00 | |
| 9A1FER-3 | 2026-09-03 00:36:06 | 45.48856 | 16.57264 | 78° | 15km/h | 23850m | 5.7m/s | -53.8°C | 3.6% | 0hPa | 2.6V | 00:00:00 | 01:31:44 | 00:00:00 | |
| 9A1FER-10 | 2026-09-03 00:36:04 | 45.48856 | 16.57256 | 94° | 15km/h | 23839m | 5.9m/s | -53.8°C | 3.6% | 0hPa | 2.6V | 00:00:00 | 01:31:42 | 08:30:00 | |
| PETON7-10 | 2026-09-03 00:35:58 | 45.48866 | 16.57212 | 130° | 11km/h | 23806m | 5.5m/s | -53.9°C | 3.6% | 0hPa | 2.6V | 00:00:00 | 00:00:00 | 00:00:00 | |
| 9A1FER-3 | 2026-09-03 00:35:51 | 45.48874 | 16.57195 | 70° | 9km/h | 23765m | 4.8m/s | -54.2°C | 3.7% | 0hPa | 2.6V | 00:00:00 | 01:31:29 | 08:30:00 | |
| OE5DXL-15 | 2026-09-03 00:35:50 | 45.48873 | 16.57191 | 77° | 7km/h | 23760m | 4.3m/s | -54.2°C | 3.7% | 0hPa | 2.6V | 00:00:00 | 00:00:00 | 00:00:00 | |
| 9A1FER-10 | 2026-09-03 00:35:49 | 45.48873 | 16.57186 | 88° | 9km/h | 23755m | 6.6m/s | -54.3°C | 3.7% | 0hPa | 2.6V | 00:00:00 | 01:31:27 | 00:00:00 | |
| OE5DRO-10 | 2026-09-03 00:35:48 | 45.48873 | 16.57181 | 108° | 7km/h | 23749m | 5.4m/s | -54.3°C | 3.7% | 0hPa | 2.6V | 00:00:00 | 00:00:00 | 00:00:00 | |
| PETON7-10 | 2026-09-03 00:35:43 | 45.48883 | 16.57162 | 146° | 5km/h | 23721m | 6.5m/s | -54.5°C | 3.8% | 0hPa | 2.6V | 00:00:00 | 01:31:21 | 00:00:00 | |
| 9A1FER-3 | 2026-09-03 00:35:36 | 45.48891 | 16.57160 | 167° | 4km/h | 23680m | 5.1m/s | -54.6°C | 3.8% | 0hPa | 2.6V | 00:00:00 | 01:31:14 | 00:00:00 | |
| 9A1FER-10 | 2026-09-03 00:35:34 | 45.48893 | 16.57160 | 219° | 4km/h | 23669m | 5.9m/s | -54.6°C | 3.8% | 0hPa | 2.6V | 00:00:00 | 01:31:12 | 00:00:00 | |
| PG1ADW-2 | 2026-09-03 00:35:29 | 45.48896 | 16.57165 | 209° | 5km/h | 23639m | 6.2m/s | -54.7°C | 3.8% | 0hPa | 2.6V | 00:00:00 | 01:31:07 | 00:00:00 | |
| PETON7-10 | 2026-09-03 00:35:28 | 45.48897 | 16.57166 | 247° | 5km/h | 23633m | 6.1m/s | -54.7°C | 3.8% | 0hPa | 2.6V | 00:00:00 | 00:00:00 | 00:00:00 | |
| 9A1FER-3 | 2026-09-03 00:35:21 | 45.48894 | 16.57159 | 282° | 7km/h | 23594m | 4.8m/s | -54.8°C | 3.9% | 0hPa | 2.5V | 00:00:00 | 01:30:59 | 00:00:00 | |
| OE5DXL-15 | 2026-09-03 00:35:20 | 45.48894 | 16.57161 | 257° | 7km/h | 23588m | 5.9m/s | -54.8°C | 3.8% | 0hPa | 2.5V | 00:00:00 | 00:00:00 | 00:00:00 | |
| 9A1FER-10 | 2026-09-03 00:35:19 | 45.48895 | 16.57162 | 225° | 7km/h | 23582m | 6.0m/s | -54.7°C | 3.9% | 0hPa | 2.5V | 00:00:00 | 01:30:57 | 00:00:00 | |
| PETON7-10 | 2026-09-03 00:35:13 | 45.48905 | 16.57173 | 198° | 7km/h | 23547m | 6.0m/s | -54.5°C | 3.8% | 0hPa | 2.6V | 00:00:00 | 00:00:00 | 00:00:00 | |
| OE5DRO-10 | 2026-09-03 00:35:10 | 45.48909 | 16.57175 | 200° | 7km/h | 23529m | 4.1m/s | -54.4°C | 3.7% | 0hPa | 2.6V | 00:00:00 | 00:00:00 | 00:00:00 | |
| PG1ADW-2 | 2026-09-03 00:35:09 | 45.48910 | 16.57175 | 169° | 9km/h | 23523m | 6.9m/s | -54.4°C | 3.7% | 0hPa | 2.6V | 00:00:00 | 00:00:00 | 08:30:00 | |
| 9A1FER-3 | 2026-09-03 00:35:06 | 45.48914 | 16.57174 | 194° | 9km/h | 23505m | 6.5m/s | -54.3°C | 3.7% | 0hPa | 2.5V | 00:00:00 | 01:30:44 | 00:00:00 | |
| 9A1FER-10 | 2026-09-03 00:35:04 | 45.48919 | 16.57175 | 181° | 9km/h | 23494m | 6.8m/s | -54.4°C | 3.7% | 0hPa | 2.6V | 00:00:00 | 01:30:42 | 00:00:00 | |
| PETON7-10 | 2026-09-03 00:34:58 | 45.48929 | 16.57177 | 177° | 13km/h | 23458m | 5.3m/s | -54.8°C | 3.9% | 0hPa | 2.6V | 00:00:00 | 01:30:36 | 00:00:00 | |
| 9A1FER-3 | 2026-09-03 00:34:51 | 45.48947 | 16.57174 | 156° | 15km/h | 23419m | 4.9m/s | -54.7°C | 3.9% | 0hPa | 2.6V | 00:00:00 | 01:30:29 | 00:00:00 | |
| OE5DXL-15 | 2026-09-03 00:34:50 | 45.48951 | 16.57172 | 160° | 13km/h | 23413m | 6.5m/s | -54.7°C | 3.9% | 0hPa | 2.6V | 00:00:00 | 00:00:00 | 00:00:00 | |
| 9A1FER-10 | 2026-09-03 00:34:49 | 45.48955 | 16.57170 | 163° | 13km/h | 23407m | 5.3m/s | -54.6°C | 3.9% | 0hPa | 2.5V | 00:00:00 | 01:30:27 | 00:00:00 | |
| PG1ADW-2 | 2026-09-03 00:34:48 | 45.48959 | 16.57169 | 165° | 13km/h | 23401m | 6.1m/s | -54.6°C | 3.9% | 0hPa | 2.5V | 00:00:00 | 00:00:00 | 00:00:00 | |
| PETON7-10 | 2026-09-03 00:34:43 | 45.48977 | 16.57160 | 156° | 13km/h | 23372m | 4.9m/s | -54.4°C | 3.8% | 0hPa | 2.5V | 00:00:00 | 00:00:00 | 08:30:00 | |
| 9A1FER-3 | 2026-09-03 00:34:36 | 45.48990 | 16.57138 | 120° | 11km/h | 23332m | 6.9m/s | -54.3°C | 3.8% | 0hPa | 2.6V | 00:00:00 | 01:30:14 | 00:00:00 | |
| 9A1FER-10 | 2026-09-03 00:34:34 | 45.48994 | 16.57130 | 126° | 11km/h | 23320m | 6.0m/s | -54.2°C | 3.7% | 0hPa | 2.6V | 00:00:00 | 01:30:12 | 00:00:00 | |
| OE5DRO-10 | 2026-09-03 00:34:32 | 45.48997 | 16.57123 | 126° | 11km/h | 23309m | 4.8m/s | -54.2°C | 3.7% | 0hPa | 2.6V | 00:00:00 | 00:00:00 | 00:00:00 | |
| PETON7-10 | 2026-09-03 00:34:28 | 45.49003 | 16.57107 | 111° | 11km/h | 23287m | 5.8m/s | -54.2°C | 3.7% | 0hPa | 2.6V | 00:00:00 | 00:00:00 | 00:00:00 | |
| 9A1FER-3 | 2026-09-03 00:34:21 | 45.49003 | 16.57085 | 62° | 15km/h | 23245m | 4.9m/s | -54.2°C | 3.7% | 0hPa | 2.6V | 00:00:00 | 01:29:59 | 00:00:00 | |
| OE5DXL-15 | 2026-09-03 00:34:20 | 45.49002 | 16.57082 | 68° | 20km/h | 23240m | 6.4m/s | -54.2°C | 3.7% | 0hPa | 2.6V | 00:00:00 | 00:00:00 | 00:00:00 | |
| 9A1FER-10 | 2026-09-03 00:34:19 | 45.49001 | 16.57077 | 76° | 16km/h | 23234m | 5.5m/s | -54.2°C | 3.7% | 0hPa | 2.6V | 00:00:00 | 01:29:57 | 00:00:00 | |
| PETON7-10 | 2026-09-03 00:34:13 | 45.48995 | 16.57049 | 67° | 24km/h | 23199m | 5.2m/s | -54.2°C | 3.6% | 0hPa | 2.6V | 00:00:00 | 01:29:51 | 00:00:00 | |
| PG1ADW-2 | 2026-09-03 00:34:09 | 45.48982 | 16.57025 | 52° | 27km/h | 23170m | 4.9m/s | 0°C | 0% | 0hPa | 2.6V | 00:00:00 | 01:29:46 | 00:00:00 | |
| 9A1FER-3 | 2026-09-03 00:34:06 | 45.48974 | 16.57014 | 42° | 29km/h | 23159m | 5.1m/s | -54.7°C | 3.8% | 0hPa | 2.6V | 00:00:00 | 01:29:44 | 00:00:00 | |
| 9A1FER-10 | 2026-09-03 00:34:04 | 45.48965 | 16.57001 | 51° | 29km/h | 23147m | 6.5m/s | -54.7°C | 3.8% | 0hPa | 2.6V | 00:00:00 | 01:29:42 | 00:00:00 | |
| PETON7-10 | 2026-09-03 00:33:58 | 45.48943 | 16.56950 | 58° | 24km/h | 23113m | 6.3m/s | -54.9°C | 3.9% | 0hPa | 2.6V | 00:00:00 | 00:00:00 | 00:00:00 | |
| OE5DRO-10 | 2026-09-03 00:33:54 | 45.48921 | 16.56918 | 35° | 24km/h | 23091m | 5.5m/s | -54.8°C | 3.8% | 0hPa | 2.5V | 00:00:00 | 00:00:00 | 00:00:00 | |
| 9A1FER-3 | 2026-09-03 00:33:51 | 45.48903 | 16.56901 | 28° | 24km/h | 23074m | 6.2m/s | -54.7°C | 3.8% | 0hPa | 2.5V | 00:00:00 | 01:29:29 | 00:00:00 | |
| OE5DXL-15 | 2026-09-03 00:33:50 | 45.48898 | 16.56897 | 23° | 18km/h | 23068m | 5.7m/s | -54.7°C | 3.8% | 0hPa | 2.5V | 00:00:00 | 00:00:00 | 00:00:00 | |
| 9A1FER-10 | 2026-09-03 00:33:49 | 45.48893 | 16.56895 | 24° | 24km/h | 23062m | 5.4m/s | -54.7°C | 3.8% | 0hPa | 2.5V | 00:00:00 | 01:29:27 | 08:30:00 | |
| PG1ADW-2 | 2026-09-03 00:33:48 | 45.48889 | 16.56891 | 32° | 20km/h | 23056m | 6.7m/s | 0°C | 0% | 0hPa | 2.5V | 00:00:00 | 00:00:00 | 00:00:00 | |
| PETON7-10 | 2026-09-03 00:33:43 | 45.48868 | 16.56866 | 38° | 20km/h | 23028m | 5.9m/s | -54.8°C | 3.9% | 0hPa | 2.5V | 00:00:00 | 00:00:00 | 00:00:00 | |
| 9A1FER-3 | 2026-09-03 00:33:36 | 45.48830 | 16.56831 | 31° | 15km/h | 22990m | 6.3m/s | -54.7°C | 3.9% | 0hPa | 2.5V | 00:00:00 | 01:29:14 | 08:30:00 | |
| OE5DRO-10 | 2026-09-03 00:33:35 | 45.48826 | 16.56827 | 36° | 13km/h | 22984m | 4.7m/s | -54.7°C | 3.9% | 0hPa | 2.5V | 00:00:00 | 00:00:00 | 08:30:00 | |
| 9A1FER-10 | 2026-09-03 00:33:34 | 45.48822 | 16.56823 | 35° | 15km/h | 22979m | 5.2m/s | -54.7°C | 3.8% | 0hPa | 2.6V | 00:00:00 | 01:29:12 | 00:00:00 | |
| PETON7-10 | 2026-09-03 00:33:28 | 45.48806 | 16.56812 | 22° | 13km/h | 22944m | 6.3m/s | -54.5°C | 3.8% | 0hPa | 2.6V | 00:00:00 | 01:29:06 | 00:00:00 | |
| OE5DXL-15 | 2026-09-03 00:33:20 | 45.48774 | 16.56805 | 350° | 13km/h | 22899m | 6.1m/s | -54.2°C | 3.8% | 0hPa | 2.6V | 00:00:00 | 00:00:00 | 08:30:00 | |
| 9A1FER-10 | 2026-09-03 00:33:19 | 45.48772 | 16.56806 | 353° | 13km/h | 22894m | 5.5m/s | -54.1°C | 3.8% | 0hPa | 2.5V | 00:00:00 | 01:28:57 | 00:00:00 | |
| OE5DRO-10 | 2026-09-03 00:33:16 | 45.48767 | 16.56809 | 334° | 13km/h | 22877m | 5.1m/s | -54.0°C | 3.7% | 0hPa | 2.5V | 00:00:00 | 00:00:00 | 00:00:00 | |
| PETON7-10 | 2026-09-03 00:33:13 | 45.48758 | 16.56810 | 9° | 15km/h | 22860m | 4.1m/s | -54.1°C | 3.8% | 0hPa | 2.5V | 00:00:00 | 00:00:00 | 00:00:00 | |
| PG1ADW-2 | 2026-09-03 00:33:08 | 45.48736 | 16.56811 | 359° | 13km/h | 22834m | 6.2m/s | 0°C | 0% | 0hPa | 2.6V | 00:00:00 | 00:00:00 | 00:00:00 | |
| 9A1FER-3 | 2026-09-03 00:33:06 | 45.48729 | 16.56812 | 345° | 13km/h | 22824m | 5.5m/s | -54.1°C | 3.7% | 0hPa | 2.6V | 00:00:00 | 01:28:44 | 00:00:00 | |
| 9A1FER-10 | 2026-09-03 00:33:04 | 45.48724 | 16.56817 | 304° | 13km/h | 22813m | 5.5m/s | -54.1°C | 3.7% | 0hPa | 2.6V | 00:00:00 | 01:28:42 | 00:00:00 | |
| PETON7-10 | 2026-09-03 00:32:58 | 45.48716 | 16.56840 | 297° | 15km/h | 22779m | 4.4m/s | -53.8°C | 3.7% | 0hPa | 2.6V | 00:00:00 | 00:00:00 | 00:00:00 | |
| OE5DRO-10 | 2026-09-03 00:32:57 | 45.48715 | 16.56844 | 293° | 15km/h | 22774m | 6.2m/s | -53.8°C | 3.7% | 0hPa | 2.6V | 00:00:00 | 00:00:00 | 00:00:00 | |
| 9A1FER-3 | 2026-09-03 00:32:51 | 45.48707 | 16.56874 | 293° | 15km/h | 22741m | 5.9m/s | -53.7°C | 3.7% | 0hPa | 2.6V | 00:00:00 | 01:28:29 | 00:00:00 | |
| 9A1FER-10 | 2026-09-03 00:32:49 | 45.48705 | 16.56883 | 294° | 15km/h | 22731m | 5.1m/s | -53.8°C | 3.7% | 0hPa | 2.6V | 00:00:00 | 01:28:27 | 00:00:00 | |
| PG1ADW-2 | 2026-09-03 00:32:47 | 45.48702 | 16.56893 | 291° | 13km/h | 22719m | 4.8m/s | 0°C | 0% | 0hPa | 2.6V | 00:00:00 | 01:28:25 | 00:00:00 | |
| PETON7-10 | 2026-09-03 00:32:43 | 45.48699 | 16.56913 | 276° | 13km/h | 22697m | 6.4m/s | -53.6°C | 3.8% | 0hPa | 2.6V | 00:00:00 | 01:28:21 | 00:00:00 | |
| OE5DRO-10 | 2026-09-03 00:32:38 | 45.48698 | 16.56939 | 270° | 11km/h | 22670m | 6.4m/s | -53.5°C | 3.7% | 0hPa | 2.6V | 00:00:00 | 00:00:00 | 00:00:00 | |
| 9A1FER-3 | 2026-09-03 00:32:36 | 45.48698 | 16.56948 | 268° | 11km/h | 22659m | 4.7m/s | -53.4°C | 3.7% | 0hPa | 2.6V | 00:00:00 | 01:28:14 | 00:00:00 | |
| 9A1FER-10 | 2026-09-03 00:32:34 | 45.48699 | 16.56955 | 262° | 9km/h | 22647m | 5.0m/s | -53.3°C | 3.6% | 0hPa | 2.6V | 00:00:00 | 01:28:12 | 00:00:00 | |
| PETON7-10 | 2026-09-03 00:32:28 | 45.48697 | 16.56978 | 273° | 5km/h | 22614m | 5.1m/s | -53.1°C | 3.5% | 0hPa | 2.6V | 00:00:00 | 00:00:00 | 08:30:00 | |
| OE5DXL-15 | 2026-09-03 00:32:27 | 45.48697 | 16.56982 | 277° | 7km/h | 22608m | 6.3m/s | -53.1°C | 3.6% | 0hPa | 2.5V | 00:00:00 | 00:00:00 | 00:00:00 | |
| 9A1FER-3 | 2026-09-03 00:32:21 | 45.48693 | 16.57001 | 318° | 5km/h | 22576m | 5.1m/s | -53.0°C | 3.6% | 0hPa | 2.5V | 00:00:00 | 01:27:59 | 00:00:00 | |
| 9A1FER-10 | 2026-09-03 00:32:19 | 45.48691 | 16.57003 | 328° | 5km/h | 22564m | 6.7m/s | -52.9°C | 3.6% | 0hPa | 2.5V | 00:00:00 | 01:27:57 | 00:00:00 | |
| PETON7-10 | 2026-09-03 00:32:13 | 45.48689 | 16.57008 | 332° | 7km/h | 22533m | 6.1m/s | -52.8°C | 3.6% | 0hPa | 2.5V | 00:00:00 | 00:00:00 | 00:00:00 | |
| 9A1FER-3 | 2026-09-03 00:32:06 | 45.48679 | 16.57016 | 331° | 9km/h | 22495m | 5.8m/s | -52.6°C | 3.5% | 0hPa | 2.5V | 00:00:00 | 01:27:44 | 00:00:00 | |
| 9A1FER-10 | 2026-09-03 00:32:04 | 45.48675 | 16.57020 | 308° | 9km/h | 22484m | 5.8m/s | -52.5°C | 3.5% | 0hPa | 2.5V | 00:00:00 | 01:27:42 | 00:00:00 | |
| OE5DRO-10 | 2026-09-03 00:32:00 | 45.48675 | 16.57033 | 247° | 9km/h | 22463m | 5.5m/s | -52.4°C | 3.5% | 0hPa | 2.5V | 00:00:00 | 00:00:00 | 00:00:00 | |
| PETON7-10 | 2026-09-03 00:31:58 | 45.48677 | 16.57036 | 234° | 9km/h | 22453m | 5.4m/s | -52.3°C | 3.5% | 0hPa | 2.5V | 00:00:00 | 01:27:36 | 00:00:00 | |
| OE5DXL-15 | 2026-09-03 00:31:57 | 45.48678 | 16.57038 | 239° | 9km/h | 22448m | 5.8m/s | -52.3°C | 3.5% | 0hPa | 2.5V | 00:00:00 | 00:00:00 | 00:00:00 | |
| 9A1FER-3 | 2026-09-03 00:31:51 | 45.48686 | 16.57054 | 259° | 13km/h | 22415m | 5.3m/s | -52.2°C | 3.5% | 0hPa | 2.5V | 00:00:00 | 01:27:29 | 00:00:00 | |
| 9A1FER-10 | 2026-09-03 00:31:49 | 45.48687 | 16.57060 | 256° | 11km/h | 22403m | 6.4m/s | -52.1°C | 3.5% | 0hPa | 2.5V | 00:00:00 | 01:27:27 | 00:00:00 | |
| PG1ADW-2 | 2026-09-03 00:31:46 | 45.48690 | 16.57067 | 230° | 9km/h | 22386m | 6.2m/s | 0°C | 0% | 0hPa | 2.5V | 00:00:00 | 00:00:00 | 00:00:00 | |
| PETON7-10 | 2026-09-03 00:31:43 | 45.48698 | 16.57077 | 206° | 9km/h | 22370m | 5.9m/s | -52.0°C | 3.4% | 0hPa | 2.5V | 00:00:00 | 00:00:00 | 00:00:00 | |
| OE5DRO-10 | 2026-09-03 00:31:41 | 45.48706 | 16.57081 | 201° | 9km/h | 22358m | 6.4m/s | -51.9°C | 3.3% | 0hPa | 2.5V | 00:00:00 | 00:00:00 | 00:00:00 | |
| 9A1FER-3 | 2026-09-03 00:31:36 | 45.48721 | 16.57085 | 161° | 7km/h | 22330m | 6.4m/s | -51.7°C | 3.3% | 0hPa | 2.6V | 00:00:00 | 01:27:14 | 00:00:00 | |
| 9A1FER-10 | 2026-09-03 00:31:34 | 45.48722 | 16.57085 | 338° | 9km/h | 22319m | 4.7m/s | -51.7°C | 3.3% | 0hPa | 2.6V | 00:00:00 | 01:27:12 | 08:30:00 | |
| PETON7-10 | 2026-09-03 00:31:28 | 45.48726 | 16.57091 | 213° | 9km/h | 22286m | 5.6m/s | -51.6°C | 3.2% | 0hPa | 2.6V | 00:00:00 | 00:00:00 | 00:00:00 | |
| OE5DXL-15 | 2026-09-03 00:31:27 | 45.48729 | 16.57093 | 193° | 7km/h | 22280m | 5.7m/s | -51.6°C | 3.2% | 0hPa | 2.6V | 00:00:00 | 00:00:00 | 00:00:00 | |
| OE5DRO-10 | 2026-09-03 00:31:22 | 45.48743 | 16.57092 | 144° | 7km/h | 22254m | 5.2m/s | -51.9°C | 3.3% | 0hPa | 2.6V | 00:00:00 | 00:00:00 | 00:00:00 | |
| 9A1FER-3 | 2026-09-03 00:31:21 | 45.48744 | 16.57090 | 99° | 9km/h | 22248m | 6.4m/s | -51.9°C | 3.3% | 0hPa | 2.6V | 00:00:00 | 01:26:59 | 08:30:00 | |
| 9A1FER-10 | 2026-09-03 00:31:19 | 45.48742 | 16.57084 | 50° | 7km/h | 22238m | 5.5m/s | -52.0°C | 3.3% | 0hPa | 2.6V | 00:00:00 | 01:26:57 | 00:00:00 | |
| PETON7-10 | 2026-09-03 00:31:13 | 45.48732 | 16.57077 | 158° | 7km/h | 22202m | 7.0m/s | -52.4°C | 3.4% | 0hPa | 2.6V | 00:00:00 | 01:26:51 | 00:00:00 | |
| 9A1FER-3 | 2026-09-03 00:31:06 | 45.48740 | 16.57063 | 52° | 5km/h | 22163m | 5.0m/s | -52.3°C | 3.4% | 0hPa | 2.6V | 00:00:00 | 01:26:44 | 00:00:00 | |
| 9A1FER-10 | 2026-09-03 00:31:04 | 45.48737 | 16.57060 | 24° | 5km/h | 22152m | 6.5m/s | -52.3°C | 3.4% | 0hPa | 2.6V | 00:00:00 | 01:26:42 | 00:00:00 | |
| OE5DRO-10 | 2026-09-03 00:31:03 | 45.48735 | 16.57059 | 19° | 5km/h | 22146m | 4.5m/s | -52.3°C | 3.4% | 0hPa | 2.6V | 00:00:00 | 00:00:00 | 00:00:00 | |
| PETON7-10 | 2026-09-03 00:30:58 | 45.48730 | 16.57059 | 76° | 5km/h | 22120m | 6.0m/s | -52.3°C | 3.3% | 0hPa | 2.6V | 00:00:00 | 00:00:00 | 00:00:00 | |
| OE5DXL-15 | 2026-09-03 00:30:57 | 45.48730 | 16.57058 | 69° | 7km/h | 22115m | 4.9m/s | -52.3°C | 3.3% | 0hPa | 2.5V | 00:00:00 | 00:00:00 | 00:00:00 | |
| 9A1FER-3 | 2026-09-03 00:30:51 | 45.48728 | 16.57048 | 58° | 5km/h | 22080m | 5.1m/s | -52.7°C | 3.4% | 0hPa | 2.5V | 00:00:00 | 01:26:29 | 00:00:00 | |
| 9A1FER-10 | 2026-09-03 00:30:49 | 45.48726 | 16.57043 | 60° | 5km/h | 22069m | 5.9m/s | -52.8°C | 3.5% | 0hPa | 2.5V | 00:00:00 | 01:26:27 | 00:00:00 | |
| PETON7-10 | 2026-09-03 00:30:43 | 45.48719 | 16.57036 | 348° | 7km/h | 22036m | 4.9m/s | -52.8°C | 3.5% | 0hPa | 2.5V | 00:00:00 | 00:00:00 | 00:00:00 | |
| 9A1FER-3 | 2026-09-03 00:30:36 | 45.48712 | 16.57030 | 79° | 7km/h | 21997m | 6.7m/s | -52.7°C | 3.5% | 0hPa | 2.5V | 00:00:00 | 01:26:14 | 00:00:00 | |
| 9A1FER-10 | 2026-09-03 00:30:34 | 45.48710 | 16.57024 | 58° | 7km/h | 21986m | 4.6m/s | -52.8°C | 3.5% | 0hPa | 2.5V | 00:00:00 | 01:26:12 | 00:00:00 | |
| PETON7-10 | 2026-09-03 00:30:28 | 45.48697 | 16.57020 | 350° | 4km/h | 21953m | 5.5m/s | -52.9°C | 3.4% | 0hPa | 2.5V | 00:00:00 | 01:26:06 | 00:00:00 | |
| OE5DXL-15 | 2026-09-03 00:30:27 | 45.48695 | 16.57021 | 335° | 5km/h | 21948m | 5.6m/s | -52.9°C | 3.4% | 0hPa | 2.5V | 00:00:00 | 00:00:00 | 00:00:00 | |
| OE5DRO-10 | 2026-09-03 00:30:24 | 45.48694 | 16.57022 | 153° | 5km/h | 21932m | 4.9m/s | -52.9°C | 3.4% | 0hPa | 2.5V | 00:00:00 | 00:00:00 | 00:00:00 | |
| 9A1FER-3 | 2026-09-03 00:30:21 | 45.48697 | 16.57024 | 208° | 5km/h | 21915m | 5.2m/s | -52.9°C | 3.3% | 0hPa | 2.5V | 00:00:00 | 01:25:59 | 00:00:00 | |
| 9A1FER-10 | 2026-09-03 00:30:20 | 45.48698 | 16.57025 | 267° | 5km/h | 21905m | 4.2m/s | -53.0°C | 3.4% | 0hPa | 2.5V | 00:00:00 | 01:25:57 | 00:00:00 | |
| PETON7-10 | 2026-09-03 00:30:13 | 45.48698 | 16.57026 | 114° | 7km/h | 21872m | 6.5m/s | -53.8°C | 3.6% | 0hPa | 2.5V | 00:00:00 | 00:00:00 | 08:30:00 | |
| 9A1FER-3 | 2026-09-03 00:30:06 | 45.48691 | 16.57016 | 348° | 7km/h | 21836m | 4.6m/s | -54.1°C | 3.7% | 0hPa | 2.6V | 00:00:00 | 01:25:44 | 00:00:00 | |
| OE5DRO-10 | 2026-09-03 00:30:05 | 45.48689 | 16.57017 | 340° | 7km/h | 21831m | 4.8m/s | -54.1°C | 3.7% | 0hPa | 2.6V | 00:00:00 | 00:00:00 | 00:00:00 | |
| 9A1FER-10 | 2026-09-03 00:30:04 | 45.48687 | 16.57017 | 352° | 7km/h | 21826m | 5.3m/s | -54.2°C | 3.7% | 0hPa | 2.6V | 00:00:00 | 01:25:42 | 00:00:00 | |
| PETON7-10 | 2026-09-03 00:29:58 | 45.48679 | 16.57019 | 358° | 9km/h | 21793m | 6.0m/s | -54.3°C | 3.8% | 0hPa | 2.6V | 00:00:00 | 00:00:00 | 00:00:00 | |
| OE5DXL-15 | 2026-09-03 00:29:57 | 45.48678 | 16.57019 | 340° | 15km/h | 21786m | 6.4m/s | -54.2°C | 3.8% | 0hPa | 2.6V | 00:00:00 | 00:00:00 | 00:00:00 | |
| 9A1FER-3 | 2026-09-03 00:29:51 | 45.48680 | 16.57036 | 261° | 11km/h | 21752m | 5.1m/s | -54.1°C | 3.7% | 0hPa | 2.6V | 00:00:00 | 01:25:29 | 00:00:00 | |
| 9A1FER-10 | 2026-09-03 00:29:49 | 45.48682 | 16.57045 | 227° | 13km/h | 21740m | 6.1m/s | -54.0°C | 3.7% | 0hPa | 2.6V | 00:00:00 | 01:25:27 | 00:00:00 | |
| OE5DRO-10 | 2026-09-03 00:29:47 | 45.48691 | 16.57053 | 202° | 18km/h | 21722m | 6.4m/s | -53.8°C | 3.6% | 0hPa | 2.6V | 00:00:00 | 00:00:00 | 00:00:00 | |
| PETON7-10 | 2026-09-03 00:29:43 | 45.48699 | 16.57053 | 176° | 18km/h | 21704m | 6.7m/s | -53.9°C | 3.6% | 0hPa | 2.6V | 00:00:00 | 01:25:21 | 00:00:00 | |
| 9A1FER-3 | 2026-09-03 00:29:36 | 45.48714 | 16.57068 | 229° | 24km/h | 21663m | 6.3m/s | -54.2°C | 3.7% | 0hPa | 2.6V | 00:00:00 | 01:25:14 | 00:00:00 | |
| 9A1FER-10 | 2026-09-03 00:29:34 | 45.48724 | 16.57080 | 218° | 24km/h | 21652m | 5.2m/s | -54.1°C | 3.7% | 0hPa | 2.6V | 00:00:00 | 01:25:12 | 00:00:00 | |
| PETON7-10 | 2026-09-03 00:29:28 | 45.48756 | 16.57096 | 175° | 24km/h | 21618m | 6.6m/s | -54.2°C | 3.7% | 0hPa | 2.6V | 00:00:00 | 00:00:00 | 00:00:00 | |
| OE5DXL-15 | 2026-09-03 00:29:27 | 45.48762 | 16.57095 | 168° | 24km/h | 21612m | 4.6m/s | -54.2°C | 3.7% | 0hPa | 2.5V | 00:00:00 | 00:00:00 | 00:00:00 | |
| 9A1FER-3 | 2026-09-03 00:29:21 | 45.48797 | 16.57092 | 186° | 26km/h | 21580m | 5.5m/s | -54.2°C | 3.7% | 0hPa | 2.5V | 00:00:00 | 01:24:59 | 00:00:00 | |
| 9A1FER-10 | 2026-09-03 00:29:20 | 45.48810 | 16.57094 | 189° | 24km/h | 21569m | 4.5m/s | -54.3°C | 3.7% | 0hPa | 2.5V | 00:00:00 | 01:24:57 | 08:30:00 | |
| PETON7-10 | 2026-09-03 00:29:13 | 45.48849 | 16.57089 | 164° | 26km/h | 21536m | 5.5m/s | -54.4°C | 3.8% | 0hPa | 2.5V | 00:00:00 | 00:00:00 | 00:00:00 | |
| OE5DRO-10 | 2026-09-03 00:29:08 | 45.48877 | 16.57082 | 182° | 26km/h | 21509m | 5.4m/s | -54.4°C | 3.8% | 0hPa | 2.5V | 00:00:00 | 00:00:00 | 00:00:00 | |
| 9A1FER-3 | 2026-09-03 00:29:06 | 45.48889 | 16.57083 | 181° | 26km/h | 21497m | 5.0m/s | -54.3°C | 3.8% | 0hPa | 2.5V | 00:00:00 | 01:24:44 | 08:30:00 | |
| 9A1FER-10 | 2026-09-03 00:29:04 | 45.48902 | 16.57082 | 176° | 26km/h | 21487m | 4.2m/s | -54.3°C | 3.8% | 0hPa | 2.5V | 00:00:00 | 01:24:42 | 00:00:00 | |
| OE5DXL-15 | 2026-09-03 00:28:57 | 45.48942 | 16.57054 | 141° | 22km/h | 21448m | 5.6m/s | 0°C | 0% | 0hPa | 2.5V | 00:00:00 | 01:24:35 | 00:00:00 | |
| PETON7-10 | 2026-09-03 00:28:56 | 45.48947 | 16.57049 | 143° | 24km/h | 21442m | 4.6m/s | -54.1°C | 3.7% | 0hPa | 2.5V | 00:00:00 | 01:24:34 | 00:00:00 | |
| 9A1FER-3 | 2026-09-03 00:28:51 | 45.48976 | 16.57029 | 162° | 22km/h | 21416m | 5.5m/s | -54.2°C | 3.8% | 0hPa | 2.5V | 00:00:00 | 01:24:29 | 00:00:00 | |
| 9A1FER-10 | 2026-09-03 00:28:49 | 45.48986 | 16.57025 | 164° | 20km/h | 21405m | 6.3m/s | -54.1°C | 3.8% | 0hPa | 2.5V | 00:00:00 | 01:24:27 | 00:00:00 | |
| PETON7-10 | 2026-09-03 00:28:41 | 45.49026 | 16.57000 | 158° | 22km/h | 21363m | 6.2m/s | -54.1°C | 3.7% | 0hPa | 2.5V | 00:00:00 | 00:00:00 | 00:00:00 | |
| 9A1FER-3 | 2026-09-03 00:28:36 | 45.49049 | 16.56986 | 157° | 24km/h | 21335m | 5.7m/s | -54.1°C | 3.7% | 0hPa | 2.6V | 00:00:00 | 01:24:14 | 00:00:00 | |
| 9A1FER-10 | 2026-09-03 00:28:34 | 45.49058 | 16.56982 | 164° | 26km/h | 21324m | 5.8m/s | -54.1°C | 3.7% | 0hPa | 2.6V | 00:00:00 | 01:24:12 | 00:00:00 | |
| OE5DRO-10 | 2026-09-03 00:28:30 | 45.49080 | 16.56972 | 164° | 26km/h | 21302m | 5.7m/s | -54.0°C | 3.7% | 0hPa | 2.6V | 00:00:00 | 00:00:00 | 00:00:00 | |
| OE5DXL-15 | 2026-09-03 00:28:27 | 45.49096 | 16.56963 | 155° | 26km/h | 21286m | 4.8m/s | 0°C | 0% | 0hPa | 2.6V | 00:00:00 | 00:00:00 | 00:00:00 | |
| PETON7-10 | 2026-09-03 00:28:26 | 45.49102 | 16.56959 | 154° | 26km/h | 21281m | 5.2m/s | -54.1°C | 3.7% | 0hPa | 2.6V | 00:00:00 | 00:00:00 | 00:00:00 | |
| 9A1FER-3 | 2026-09-03 00:28:21 | 45.49133 | 16.56934 | 151° | 24km/h | 21254m | 5.6m/s | -54.0°C | 3.6% | 0hPa | 2.6V | 00:00:00 | 01:23:59 | 00:00:00 | |
| 9A1FER-10 | 2026-09-03 00:28:19 | 45.49144 | 16.56926 | 150° | 24km/h | 21243m | 4.3m/s | -53.9°C | 3.7% | 0hPa | 2.5V | 00:00:00 | 01:23:57 | 00:00:00 | |
| PETON7-10 | 2026-09-03 00:28:11 | 45.49183 | 16.56888 | 144° | 24km/h | 21201m | 3.6m/s | -54.0°C | 3.6% | 0hPa | 2.5V | 00:00:00 | 01:23:49 | 00:00:00 | |
| 9A1FER-3 | 2026-09-03 00:28:06 | 45.49208 | 16.56861 | 141° | 24km/h | 21176m | 4.2m/s | -54.3°C | 3.7% | 0hPa | 2.5V | 00:00:00 | 01:23:44 | 00:00:00 | |
| 9A1FER-10 | 2026-09-03 00:28:04 | 45.49216 | 16.56853 | 148° | 24km/h | 21165m | 5.1m/s | -54.2°C | 3.7% | 0hPa | 2.5V | 00:00:00 | 01:23:42 | 00:00:00 | |
| PETON7-10 | 2026-09-03 00:27:56 | 45.49252 | 16.56811 | 131° | 22km/h | 21121m | 5.4m/s | -54.4°C | 3.7% | 0hPa | 2.5V | 00:00:00 | 00:00:00 | 08:30:00 | |
| OE5DRO-10 | 2026-09-03 00:27:52 | 45.49268 | 16.56784 | 134° | 20km/h | 21101m | 4.5m/s | -54.5°C | 3.7% | 0hPa | 2.6V | 00:00:00 | 00:00:00 | 08:30:00 | |
| 9A1FER-3 | 2026-09-03 00:27:51 | 45.49272 | 16.56778 | 139° | 20km/h | 21096m | 4.3m/s | -54.5°C | 3.7% | 0hPa | 2.5V | 00:00:00 | 01:23:29 | 00:00:00 | |
| 9A1FER-10 | 2026-09-03 00:27:49 | 45.49282 | 16.56766 | 141° | 20km/h | 21086m | 5.6m/s | -54.5°C | 3.8% | 0hPa | 2.5V | 00:00:00 | 01:23:27 | 00:00:00 | |
| PETON7-10 | 2026-09-03 00:27:41 | 45.49311 | 16.56725 | 144° | 18km/h | 21046m | 6.2m/s | -54.7°C | 3.8% | 0hPa | 2.6V | 00:00:00 | 00:00:00 | 00:00:00 | |
| 9A1FER-3 | 2026-09-03 00:27:36 | 45.49325 | 16.56699 | 114° | 16km/h | 21020m | 5.7m/s | -54.9°C | 3.8% | 0hPa | 2.6V | 00:00:00 | 01:23:14 | 00:00:00 | |
| 9A1FER-10 | 2026-09-03 00:27:34 | 45.49329 | 16.56686 | 113° | 16km/h | 21010m | 5.4m/s | -54.9°C | 3.9% | 0hPa | 2.5V | 00:00:00 | 01:23:12 | 00:00:00 | |
| OE5DRO-10 | 2026-09-03 00:27:33 | 45.49330 | 16.56680 | 116° | 16km/h | 21004m | 5.0m/s | -54.8°C | 3.8% | 0hPa | 2.5V | 00:00:00 | 00:00:00 | 00:00:00 | |
| PETON7-10 | 2026-09-03 00:27:26 | 45.49353 | 16.56654 | 155° | 18km/h | 20968m | 6.6m/s | -54.8°C | 3.8% | 0hPa | 2.5V | 00:00:00 | 01:23:04 | 00:00:00 | |
| 9A1FER-3 | 2026-09-03 00:27:21 | 45.49372 | 16.56644 | 161° | 20km/h | 20942m | 6.3m/s | -54.9°C | 3.8% | 0hPa | 2.5V | 00:00:00 | 01:22:59 | 00:00:00 | |
| 9A1FER-10 | 2026-09-03 00:27:19 | 45.49380 | 16.56640 | 166° | 20km/h | 20930m | 6.6m/s | -54.9°C | 3.8% | 0hPa | 2.5V | 00:00:00 | 01:22:57 | 00:00:00 | |
| OE5DRO-10 | 2026-09-03 00:27:14 | 45.49404 | 16.56633 | 169° | 20km/h | 20904m | 5.2m/s | -54.8°C | 3.9% | 0hPa | 2.5V | 00:00:00 | 00:00:00 | 00:00:00 | |
| PETON7-10 | 2026-09-03 00:27:11 | 45.49419 | 16.56631 | 182° | 20km/h | 20889m | 4.7m/s | -54.8°C | 3.9% | 0hPa | 2.5V | 00:00:00 | 00:00:00 | 00:00:00 | |
| 9A1FER-3 | 2026-09-03 00:27:06 | 45.49443 | 16.56624 | 154° | 20km/h | 20863m | 4.5m/s | -54.8°C | 3.8% | 0hPa | 2.5V | 00:00:00 | 01:22:44 | 00:00:00 | |
| 9A1FER-10 | 2026-09-03 00:27:04 | 45.49452 | 16.56617 | 151° | 20km/h | 20853m | 4.8m/s | -54.7°C | 3.8% | 0hPa | 2.5V | 00:00:00 | 01:22:42 | 08:30:00 | |
| PETON7-10 | 2026-09-03 00:26:56 | 45.49490 | 16.56603 | 171° | 22km/h | 20811m | 4.3m/s | -55.0°C | 3.9% | 0hPa | 2.6V | 00:00:00 | 00:00:00 | 00:00:00 | |
| OE5DRO-10 | 2026-09-03 00:26:55 | 45.49494 | 16.56602 | 163° | 24km/h | 20807m | 5.2m/s | -55.1°C | 3.9% | 0hPa | 2.6V | 00:00:00 | 00:00:00 | 00:00:00 | |
| 9A1FER-3 | 2026-09-03 00:26:51 | 45.49510 | 16.56584 | 123° | 24km/h | 20785m | 5.8m/s | -55.0°C | 3.9% | 0hPa | 2.5V | 00:00:00 | 01:22:29 | 08:30:00 | |
| 9A1FER-10 | 2026-09-03 00:26:49 | 45.49516 | 16.56569 | 119° | 24km/h | 20774m | 6.2m/s | -54.9°C | 3.9% | 0hPa | 2.6V | 00:00:00 | 01:22:27 | 00:00:00 | |
| PETON7-10 | 2026-09-03 00:26:41 | 45.49547 | 16.56515 | 142° | 22km/h | 20732m | 5.4m/s | -54.7°C | 3.8% | 0hPa | 2.6V | 00:00:00 | 01:22:19 | 00:00:00 | |
| 9A1FER-3 | 2026-09-03 00:26:36 | 45.49571 | 16.56492 | 150° | 22km/h | 20705m | 5.6m/s | -54.8°C | 3.8% | 0hPa | 2.6V | 00:00:00 | 01:22:14 | 00:00:00 | |
| 9A1FER-10 | 2026-09-03 00:26:34 | 45.49580 | 16.56484 | 146° | 22km/h | 20694m | 4.4m/s | -54.9°C | 3.9% | 0hPa | 2.6V | 00:00:00 | 01:22:12 | 00:00:00 | |
| PETON7-10 | 2026-09-03 00:26:26 | 45.49615 | 16.56444 | 160° | 22km/h | 20651m | 5.6m/s | -54.8°C | 3.9% | 0hPa | 2.6V | 00:00:00 | 00:00:00 | 00:00:00 | |
| 9A1FER-3 | 2026-09-03 00:26:21 | 45.49641 | 16.56437 | 161° | 24km/h | 20625m | 4.6m/s | -54.8°C | 3.8% | 0hPa | 2.6V | 00:00:00 | 01:21:59 | 00:00:00 | |
| 9A1FER-10 | 2026-09-03 00:26:19 | 45.49650 | 16.56432 | 157° | 26km/h | 20614m | 5.8m/s | -54.8°C | 3.8% | 0hPa | 2.6V | 00:00:00 | 01:21:57 | 00:00:00 | |
| OE5DRO-10 | 2026-09-03 00:26:17 | 45.49659 | 16.56427 | 151° | 26km/h | 20603m | 6.4m/s | -54.8°C | 3.9% | 0hPa | 2.5V | 00:00:00 | 00:00:00 | 00:00:00 | |
| PETON7-10 | 2026-09-03 00:26:11 | 45.49697 | 16.56416 | 181° | 26km/h | 20572m | 5.8m/s | -54.6°C | 3.7% | 0hPa | 2.5V | 00:00:00 | 00:00:00 | 00:00:00 | |
| 9A1FER-3 | 2026-09-03 00:26:06 | 45.49731 | 16.56415 | 168° | 24km/h | 20546m | 6.1m/s | -54.5°C | 3.7% | 0hPa | 2.5V | 00:00:00 | 01:21:44 | 00:00:00 | |
| 9A1FER-10 | 2026-09-03 00:26:04 | 45.49742 | 16.56408 | 148° | 24km/h | 20535m | 4.4m/s | -54.6°C | 3.7% | 0hPa | 2.6V | 00:00:00 | 01:21:42 | 00:00:00 | |
| OE5DRO-10 | 2026-09-03 00:25:58 | 45.49773 | 16.56384 | 164° | 24km/h | 20503m | 6.0m/s | -54.9°C | 3.8% | 0hPa | 2.6V | 00:00:00 | 00:00:00 | 00:00:00 | |
| PETON7-10 | 2026-09-03 00:25:56 | 45.49787 | 16.56380 | 170° | 24km/h | 20493m | 5.0m/s | -54.9°C | 3.8% | 0hPa | 2.6V | 00:00:00 | 01:21:34 | 00:00:00 | |
| 9A1FER-3 | 2026-09-03 00:25:51 | 45.49815 | 16.56365 | 144° | 24km/h | 20468m | 4.8m/s | -54.9°C | 3.8% | 0hPa | 2.6V | 00:00:00 | 01:21:29 | 00:00:00 | |
| 9A1FER-10 | 2026-09-03 00:25:49 | 45.49824 | 16.56355 | 140° | 24km/h | 20457m | 5.0m/s | -54.9°C | 3.8% | 0hPa | 2.6V | 00:00:00 | 01:21:27 | 00:00:00 | |
| PETON7-10 | 2026-09-03 00:25:41 | 45.49863 | 16.56315 | 140° | 20km/h | 20416m | 5.4m/s | -55.0°C | 3.9% | 0hPa | 2.6V | 00:00:00 | 00:00:00 | 08:30:00 | |
| OE5DRO-10 | 2026-09-03 00:25:39 | 45.49872 | 16.56304 | 138° | 16km/h | 20405m | 4.8m/s | -55.0°C | 3.8% | 0hPa | 2.5V | 00:00:00 | 00:00:00 | 00:00:00 | |
| 9A1FER-3 | 2026-09-03 00:25:36 | 45.49884 | 16.56288 | 134° | 16km/h | 20389m | 6.5m/s | -55.0°C | 3.9% | 0hPa | 2.5V | 00:00:00 | 01:21:14 | 00:00:00 | |
| 9A1FER-10 | 2026-09-03 00:25:34 | 45.49891 | 16.56276 | 124° | 15km/h | 20378m | 5.9m/s | -55.0°C | 3.9% | 0hPa | 2.5V | 00:00:00 | 01:21:12 | 00:00:00 | |
| PETON7-10 | 2026-09-03 00:25:26 | 45.49906 | 16.56235 | 125° | 16km/h | 20337m | 4.8m/s | -54.8°C | 3.8% | 0hPa | 2.5V | 00:00:00 | 00:00:00 | 00:00:00 | |
| 9A1FER-3 | 2026-09-03 00:25:21 | 45.49912 | 16.56217 | 122° | 18km/h | 20312m | 5.4m/s | -54.8°C | 3.8% | 0hPa | 2.5V | 00:00:00 | 01:20:59 | 00:00:00 | |
| OE5DRO-10 | 2026-09-03 00:25:20 | 45.49914 | 16.56213 | 131° | 18km/h | 20307m | 5.4m/s | -54.7°C | 3.8% | 0hPa | 2.5V | 00:00:00 | 00:00:00 | 00:00:00 | |
| 9A1FER-10 | 2026-09-03 00:25:19 | 45.49917 | 16.56210 | 134° | 18km/h | 20302m | 5.0m/s | -54.7°C | 3.8% | 0hPa | 2.5V | 00:00:00 | 01:20:57 | 00:00:00 | |
| PETON7-10 | 2026-09-03 00:25:11 | 45.49936 | 16.56164 | 102° | 20km/h | 20258m | 6.0m/s | -54.7°C | 3.8% | 0hPa | 2.5V | 00:00:00 | 01:20:49 | 00:00:00 | |
| 9A1FER-3 | 2026-09-03 00:25:06 | 45.49940 | 16.56131 | 114° | 22km/h | 20232m | 5.8m/s | -54.7°C | 3.8% | 0hPa | 2.5V | 00:00:00 | 01:20:44 | 00:00:00 | |
| 9A1FER-10 | 2026-09-03 00:25:04 | 45.49944 | 16.56122 | 126° | 22km/h | 20222m | 5.1m/s | -54.7°C | 3.7% | 0hPa | 2.5V | 00:00:00 | 01:20:42 | 00:00:00 | |
| OE5DRO-10 | 2026-09-03 00:25:01 | 45.49951 | 16.56107 | 128° | 24km/h | 20206m | 6.5m/s | -54.7°C | 3.7% | 0hPa | 2.5V | 00:00:00 | 00:00:00 | 08:30:00 | |
| PETON7-10 | 2026-09-03 00:24:56 | 45.49969 | 16.56067 | 121° | 24km/h | 20178m | 6.1m/s | -54.9°C | 3.7% | 0hPa | 2.5V | 00:00:00 | 00:00:00 | 00:00:00 | |
| 9A1FER-3 | 2026-09-03 00:24:51 | 45.49983 | 16.56029 | 118° | 26km/h | 20153m | 5.4m/s | -55.0°C | 3.7% | 0hPa | 2.5V | 00:00:00 | 01:20:29 | 00:00:00 | |
| 9A1FER-10 | 2026-09-03 00:24:49 | 45.49988 | 16.56019 | 129° | 26km/h | 20143m | 5.0m/s | -55.1°C | 3.7% | 0hPa | 2.5V | 00:00:00 | 01:20:27 | 08:30:00 | |
| OE5DRO-10 | 2026-09-03 00:24:42 | 45.50014 | 16.55966 | 116° | 31km/h | 20105m | 4.6m/s | -55.5°C | 3.9% | 0hPa | 2.6V | 00:00:00 | 00:00:00 | 00:00:00 | |
| PETON7-10 | 2026-09-03 00:24:41 | 45.50018 | 16.55956 | 117° | 29km/h | 20100m | 5.5m/s | -55.5°C | 3.9% | 0hPa | 2.6V | 00:00:00 | 00:00:00 | 00:00:00 | |
| 9A1FER-3 | 2026-09-03 00:24:36 | 45.50034 | 16.55912 | 125° | 31km/h | 20074m | 6.0m/s | -55.7°C | 3.8% | 0hPa | 2.6V | 00:00:00 | 01:20:14 | 08:30:00 | |
| 9A1FER-10 | 2026-09-03 00:24:34 | 45.50042 | 16.55900 | 137° | 33km/h | 20063m | 4.8m/s | -55.9°C | 3.9% | 0hPa | 2.5V | 00:00:00 | 01:20:12 | 00:00:00 | |
| PETON7-10 | 2026-09-03 00:24:26 | 45.50080 | 16.55828 | 111° | 31km/h | 20021m | 4.8m/s | -56.0°C | 3.9% | 0hPa | 2.5V | 00:00:00 | 01:20:04 | 00:00:00 | |
| OE5DRO-10 | 2026-09-03 00:24:23 | 45.50089 | 16.55788 | 104° | 31km/h | 20005m | 6.3m/s | -55.9°C | 4.0% | 0hPa | 2.5V | 00:00:00 | 00:00:00 | 00:00:00 | |
| 9A1FER-3 | 2026-09-03 00:24:21 | 45.50092 | 16.55766 | 104° | 29km/h | 19995m | 4.8m/s | -56.0°C | 4.0% | 0hPa | 2.5V | 00:00:00 | 01:19:59 | 00:00:00 | |
| 9A1FER-10 | 2026-09-03 00:24:19 | 45.50097 | 16.55745 | 111° | 29km/h | 19984m | 3.7m/s | -56.0°C | 4.0% | 0hPa | 2.5V | 00:00:00 | 01:19:57 | 00:00:00 | |
| PETON7-10 | 2026-09-03 00:24:11 | 45.50112 | 16.55673 | 93° | 29km/h | 19939m | 7.5m/s | -56.2°C | 4.1% | 0hPa | 2.5V | 00:00:00 | 00:00:00 | 00:00:00 | |
| 9A1FER-3 | 2026-09-03 00:24:06 | 45.50108 | 16.55611 | 84° | 26km/h | 19911m | 6.1m/s | -56.2°C | 4.2% | 0hPa | 2.6V | 00:00:00 | 01:19:44 | 00:00:00 | |
| 9A1FER-10 | 2026-09-03 00:24:04 | 45.50106 | 16.55590 | 80° | 26km/h | 19900m | 6.5m/s | -56.1°C | 4.1% | 0hPa | 2.6V | 00:00:00 | 01:19:42 | 00:00:00 | |
| PETON7-10 | 2026-09-03 00:23:56 | 45.50094 | 16.55523 | 78° | 26km/h | 19858m | 5.4m/s | -55.9°C | 4.1% | 0hPa | 2.6V | 00:00:00 | 00:00:00 | 00:00:00 | |
| 9A1FER-3 | 2026-09-03 00:23:51 | 45.50085 | 16.55475 | 73° | 24km/h | 19831m | 5.9m/s | -55.8°C | 4.0% | 0hPa | 2.6V | 00:00:00 | 01:19:29 | 00:00:00 | |
| 9A1FER-10 | 2026-09-03 00:23:49 | 45.50080 | 16.55458 | 66° | 22km/h | 19820m | 6.5m/s | -55.7°C | 4.0% | 0hPa | 2.7V | 00:00:00 | 01:19:27 | 00:00:00 | |
| OE5DRO-10 | 2026-09-03 00:23:45 | 45.50069 | 16.55425 | 67° | 22km/h | 19799m | 4.7m/s | -55.6°C | 4.0% | 0hPa | 2.7V | 00:00:00 | 00:00:00 | 00:00:00 | |
| PETON7-10 | 2026-09-03 00:23:41 | 45.50060 | 16.55395 | 71° | 22km/h | 19778m | 5.8m/s | -55.5°C | 4.0% | 0hPa | 2.7V | 00:00:00 | 01:19:19 | 00:00:00 | |
| 9A1FER-3 | 2026-09-03 00:23:36 | 45.50051 | 16.55361 | 65° | 18km/h | 19753m | 4.9m/s | -55.5°C | 3.9% | 0hPa | 2.7V | 00:00:00 | 01:19:14 | 00:00:00 | |
| 9A1FER-10 | 2026-09-03 00:23:34 | 45.50046 | 16.55347 | 68° | 18km/h | 19742m | 5.1m/s | -55.5°C | 3.9% | 0hPa | 2.7V | 00:00:00 | 01:19:12 | 00:00:00 | |
| PETON7-10 | 2026-09-03 00:23:26 | 45.50022 | 16.55298 | 43° | 13km/h | 19699m | 6.4m/s | -55.4°C | 3.9% | 0hPa | 2.7V | 00:00:00 | 00:00:00 | 08:30:00 | |
| 9A1FER-3 | 2026-09-03 00:23:21 | 45.50014 | 16.55277 | 81° | 11km/h | 19673m | 5.6m/s | -55.4°C | 3.9% | 0hPa | 2.7V | 00:00:00 | 01:18:59 | 00:00:00 | |
| 9A1FER-10 | 2026-09-03 00:23:19 | 45.50013 | 16.55264 | 91° | 11km/h | 19663m | 4.5m/s | -55.4°C | 3.9% | 0hPa | 2.7V | 00:00:00 | 01:18:57 | 00:00:00 | |
| PETON7-10 | 2026-09-03 00:23:11 | 45.50001 | 16.55240 | 5° | 7km/h | 19621m | 3.8m/s | -55.3°C | 4.0% | 0hPa | 2.6V | 00:00:00 | 00:00:00 | 00:00:00 | |
| OE5DRO-10 | 2026-09-03 00:23:07 | 45.50000 | 16.55234 | 102° | 9km/h | 19600m | 5.9m/s | -55.2°C | 3.9% | 0hPa | 2.6V | 00:00:00 | 00:00:00 | 00:00:00 | |
| 9A1FER-3 | 2026-09-03 00:23:06 | 45.50000 | 16.55230 | 90° | 9km/h | 19595m | 5.1m/s | -55.2°C | 3.9% | 0hPa | 2.6V | 00:00:00 | 01:18:44 | 00:00:00 | |
| 9A1FER-10 | 2026-09-03 00:23:04 | 45.50000 | 16.55222 | 89° | 9km/h | 19584m | 5.4m/s | -55.1°C | 3.9% | 0hPa | 2.6V | 00:00:00 | 01:18:42 | 00:00:00 | |
| PETON7-10 | 2026-09-03 00:22:56 | 45.50003 | 16.55205 | 158° | 13km/h | 19542m | 5.2m/s | -54.8°C | 3.8% | 0hPa | 2.6V | 00:00:00 | 01:18:34 | 00:00:00 | |
| 9A1FER-3 | 2026-09-03 00:22:51 | 45.50010 | 16.55193 | 98° | 16km/h | 19515m | 3.7m/s | -54.8°C | 3.7% | 0hPa | 2.6V | 00:00:00 | 01:18:29 | 00:00:00 | |
| 9A1FER-10 | 2026-09-03 00:22:49 | 45.50010 | 16.55183 | 102° | 18km/h | 19504m | 5.0m/s | -54.9°C | 3.7% | 0hPa | 2.6V | 00:00:00 | 01:18:27 | 00:00:00 | |
| OE5DRO-10 | 2026-09-03 00:22:48 | 45.50011 | 16.55178 | 107° | 20km/h | 19499m | 4.2m/s | -55.1°C | 3.7% | 0hPa | 2.6V | 00:00:00 | 00:00:00 | 00:00:00 | |
| PETON7-10 | 2026-09-03 00:22:41 | 45.50033 | 16.55151 | 151° | 20km/h | 19460m | 4.7m/s | -55.2°C | 3.9% | 0hPa | 2.6V | 00:00:00 | 00:00:00 | 00:00:00 | |
| 9A1FER-3 | 2026-09-03 00:22:36 | 45.50053 | 16.55131 | 134° | 18km/h | 19434m | 4.0m/s | -55.3°C | 3.9% | 0hPa | 2.7V | 00:00:00 | 01:18:14 | 00:00:00 | |
| 9A1FER-10 | 2026-09-03 00:22:34 | 45.50061 | 16.55119 | 133° | 18km/h | 19423m | 4.1m/s | -55.3°C | 3.9% | 0hPa | 2.7V | 00:00:00 | 01:18:12 | 08:30:00 | |
| OE5DRO-10 | 2026-09-03 00:22:29 | 45.50075 | 16.55085 | 113° | 18km/h | 19397m | 4.8m/s | -55.3°C | 3.9% | 0hPa | 2.6V | 00:00:00 | 00:00:00 | 00:00:00 | |
| PETON7-10 | 2026-09-03 00:22:26 | 45.50079 | 16.55069 | 115° | 20km/h | 19382m | 6.1m/s | -55.2°C | 3.9% | 0hPa | 2.6V | 00:00:00 | 00:00:00 | 00:00:00 | |
| 9A1FER-3 | 2026-09-03 00:22:21 | 45.50090 | 16.55045 | 114° | 22km/h | 19358m | 5.1m/s | -55.1°C | 3.9% | 0hPa | 2.6V | 00:00:00 | 01:17:59 | 08:30:00 | |
| 9A1FER-10 | 2026-09-03 00:22:19 | 45.50095 | 16.55031 | 118° | 22km/h | 19347m | 5.0m/s | -55.1°C | 3.9% | 0hPa | 2.6V | 00:00:00 | 01:17:57 | 00:00:00 | |
| PETON7-10 | 2026-09-03 00:22:11 | 45.50112 | 16.54970 | 114° | 24km/h | 19307m | 4.3m/s | -55.0°C | 3.8% | 0hPa | 2.6V | 00:00:00 | 01:17:49 | 00:00:00 | |
| OE5DRO-10 | 2026-09-03 00:22:10 | 45.50114 | 16.54962 | 118° | 22km/h | 19302m | 5.5m/s | -54.9°C | 3.8% | 0hPa | 2.6V | 00:00:00 | 00:00:00 | 08:30:00 | |
| 9A1FER-3 | 2026-09-03 00:22:06 | 45.50122 | 16.54933 | 99° | 26km/h | 19282m | 4.0m/s | -54.8°C | 3.8% | 0hPa | 2.6V | 00:00:00 | 01:17:44 | 00:00:00 | |
| 9A1FER-10 | 2026-09-03 00:22:04 | 45.50124 | 16.54917 | 98° | 26km/h | 19272m | 3.9m/s | -54.8°C | 3.8% | 0hPa | 2.6V | 00:00:00 | 01:17:42 | 00:00:00 | |
| PETON7-10 | 2026-09-03 00:21:56 | 45.50129 | 16.54844 | 93° | 31km/h | 19231m | 6.4m/s | -54.9°C | 3.8% | 0hPa | 2.6V | 00:00:00 | 00:00:00 | 00:00:00 | |
| 9A1FER-3 | 2026-09-03 00:21:51 | 45.50129 | 16.54799 | 95° | 33km/h | 19205m | 4.5m/s | -55.0°C | 3.9% | 0hPa | 2.7V | 00:00:00 | 01:17:29 | 00:00:00 | |
| 9A1FER-10 | 2026-09-03 00:21:49 | 45.50131 | 16.54776 | 94° | 33km/h | 19194m | 6.0m/s | -54.9°C | 3.8% | 0hPa | 2.7V | 00:00:00 | 01:17:27 | 00:00:00 | |
| PETON7-10 | 2026-09-03 00:21:41 | 45.50134 | 16.54680 | 87° | 29km/h | 19156m | 5.5m/s | -54.8°C | 3.8% | 0hPa | 2.6V | 00:00:00 | 00:00:00 | 00:00:00 | |
| 9A1FER-3 | 2026-09-03 00:21:36 | 45.50136 | 16.54625 | 101° | 27km/h | 19132m | 5.9m/s | -54.8°C | 3.9% | 0hPa | 2.6V | 00:00:00 | 01:17:14 | 00:00:00 | |
| 9A1FER-10 | 2026-09-03 00:21:34 | 45.50139 | 16.54604 | 99° | 26km/h | 19122m | 4.8m/s | -54.8°C | 4.0% | 0hPa | 2.7V | 00:00:00 | 01:17:12 | 00:00:00 | |
| OE5DRO-10 | 2026-09-03 00:21:32 | 45.50141 | 16.54583 | 95° | 26km/h | 19111m | 4.2m/s | -54.8°C | 3.9% | 0hPa | 2.7V | 00:00:00 | 00:00:00 | 00:00:00 | |
| PETON7-10 | 2026-09-03 00:21:26 | 45.50140 | 16.54524 | 96° | 24km/h | 19085m | 4.2m/s | -54.6°C | 3.9% | 0hPa | 2.7V | 00:00:00 | 01:17:04 | 00:00:00 | |
| 9A1FER-3 | 2026-09-03 00:21:21 | 45.50146 | 16.54485 | 99° | 26km/h | 19060m | 4.0m/s | -54.4°C | 3.8% | 0hPa | 2.7V | 00:00:00 | 01:16:59 | 00:00:00 | |
| 9A1FER-10 | 2026-09-03 00:21:19 | 45.50148 | 16.54469 | 99° | 26km/h | 19050m | 4.4m/s | -54.3°C | 3.8% | 0hPa | 2.7V | 00:00:00 | 01:16:57 | 00:00:00 | |
| OE5DRO-10 | 2026-09-03 00:21:13 | 45.50153 | 16.54411 | 101° | 27km/h | 19020m | 6.0m/s | -54.1°C | 3.7% | 0hPa | 2.7V | 00:00:00 | 00:00:00 | 00:00:00 | |
| PETON7-10 | 2026-09-03 00:21:11 | 45.50156 | 16.54395 | 110° | 27km/h | 19010m | 6.0m/s | -54.0°C | 3.7% | 0hPa | 2.6V | 00:00:00 | 00:00:00 | 08:30:00 | |
| 9A1FER-3 | 2026-09-03 00:21:06 | 45.50171 | 16.54354 | 114° | 29km/h | 18986m | 6.0m/s | -53.8°C | 3.5% | 0hPa | 2.7V | 00:00:00 | 01:16:44 | 00:00:00 | |
| 9A1FER-10 | 2026-09-03 00:21:04 | 45.50176 | 16.54333 | 108° | 31km/h | 18975m | 5.3m/s | -53.8°C | 3.5% | 0hPa | 2.7V | 00:00:00 | 01:16:42 | 00:00:00 | |
| PETON7-10 | 2026-09-03 00:20:56 | 45.50200 | 16.54264 | 127° | 31km/h | 18936m | 5.0m/s | -54.2°C | 3.6% | 0hPa | 2.6V | 00:00:00 | 00:00:00 | 00:00:00 | |
| OE5DRO-10 | 2026-09-03 00:20:54 | 45.50209 | 16.54247 | 126° | 31km/h | 18926m | 5.9m/s | -54.3°C | 3.6% | 0hPa | 2.6V | 00:00:00 | 00:00:00 | 00:00:00 | |
| 9A1FER-3 | 2026-09-03 00:20:51 | 45.50223 | 16.54213 | 117° | 29km/h | 18912m | 5.7m/s | -54.6°C | 3.7% | 0hPa | 2.6V | 00:00:00 | 01:16:29 | 00:00:00 | |
| 9A1FER-10 | 2026-09-03 00:20:49 | 45.50231 | 16.54191 | 118° | 31km/h | 18902m | 6.0m/s | -54.6°C | 3.7% | 0hPa | 2.6V | 00:00:00 | 01:16:27 | 00:00:00 | |
| PETON7-10 | 2026-09-03 00:20:41 | 45.50260 | 16.54122 | 122° | 38km/h | 18862m | 5.9m/s | -55.0°C | 3.8% | 0hPa | 2.6V | 00:00:00 | 01:16:19 | 00:00:00 | |
| 9A1FER-3 | 2026-09-03 00:20:36 | 45.50280 | 16.54074 | 128° | 44km/h | 18838m | 3.4m/s | -55.4°C | 3.9% | 0hPa | 2.6V | 00:00:00 | 01:16:14 | 00:00:00 | |
| OE5DRO-10 | 2026-09-03 00:20:35 | 45.50286 | 16.54063 | 125° | 46km/h | 18834m | 5.3m/s | -55.4°C | 3.9% | 0hPa | 2.6V | 00:00:00 | 00:00:00 | 00:00:00 | |
| 9A1FER-10 | 2026-09-03 00:20:34 | 45.50291 | 16.54051 | 119° | 46km/h | 18828m | 5.9m/s | -55.4°C | 3.9% | 0hPa | 2.6V | 00:00:00 | 01:16:12 | 00:00:00 | |
| PETON7-10 | 2026-09-03 00:20:26 | 45.50331 | 16.53936 | 120° | 47km/h | 18788m | 3.9m/s | -55.6°C | 3.9% | 0hPa | 2.6V | 00:00:00 | 00:00:00 | 00:00:00 | |
| 9A1FER-3 | 2026-09-03 00:20:21 | 45.50357 | 16.53859 | 115° | 49km/h | 18763m | 4.0m/s | -55.7°C | 4.0% | 0hPa | 2.7V | 00:00:00 | 01:15:59 | 00:00:00 | |
| 9A1FER-10 | 2026-09-03 00:20:19 | 45.50367 | 16.53826 | 110° | 47km/h | 18752m | 4.3m/s | -55.7°C | 3.9% | 0hPa | 2.7V | 00:00:00 | 01:15:57 | 08:30:00 | |
| OE5DRO-10 | 2026-09-03 00:20:16 | 45.50379 | 16.53777 | 109° | 46km/h | 18736m | 5.9m/s | -55.7°C | 4.0% | 0hPa | 2.6V | 00:00:00 | 00:00:00 | 00:00:00 | |
| PETON7-10 | 2026-09-03 00:20:11 | 45.50397 | 16.53694 | 107° | 44km/h | 18711m | 6.0m/s | -55.7°C | 3.9% | 0hPa | 2.6V | 00:00:00 | 00:00:00 | 00:00:00 | |
| 9A1FER-3 | 2026-09-03 00:20:06 | 45.50416 | 16.53612 | 105° | 40km/h | 18685m | 5.4m/s | -55.6°C | 3.9% | 0hPa | 2.6V | 00:00:00 | 01:15:44 | 08:30:00 | |
| 9A1FER-10 | 2026-09-03 00:20:04 | 45.50421 | 16.53583 | 104° | 40km/h | 18674m | 6.3m/s | -55.6°C | 3.9% | 0hPa | 2.6V | 00:00:00 | 01:15:42 | 00:00:00 | |
| OE5DRO-10 | 2026-09-03 00:19:57 | 45.50435 | 16.53477 | 100° | 37km/h | 18641m | 4.5m/s | -55.8°C | 4.0% | 0hPa | 2.6V | 00:00:00 | 00:00:00 | 00:00:00 | |
| PETON7-10 | 2026-09-03 00:19:56 | 45.50437 | 16.53463 | 100° | 38km/h | 18635m | 5.7m/s | -55.9°C | 4.0% | 0hPa | 2.6V | 00:00:00 | 01:15:34 | 00:00:00 | |
| 9A1FER-3 | 2026-09-03 00:19:51 | 45.50447 | 16.53399 | 101° | 35km/h | 18611m | 3.6m/s | -56.0°C | 4.1% | 0hPa | 2.6V | 00:00:00 | 01:15:29 | 00:00:00 | |
| PETON7-10 | 2026-09-03 00:19:41 | 45.50451 | 16.53263 | 82° | 29km/h | 18561m | 5.1m/s | -55.9°C | 4.0% | 0hPa | 2.6V | 00:00:00 | 00:00:00 | 00:00:00 | |
| OE5DRO-10 | 2026-09-03 00:19:38 | 45.50449 | 16.53232 | 90° | 27km/h | 18545m | 4.6m/s | -55.9°C | 4.0% | 0hPa | 2.7V | 00:00:00 | 00:00:00 | 00:00:00 | |
| 9A1FER-3 | 2026-09-03 00:19:36 | 45.50448 | 16.53211 | 86° | 27km/h | 18535m | 4.5m/s | -56.0°C | 4.1% | 0hPa | 2.7V | 00:00:00 | 01:15:14 | 00:00:00 | |
| 9A1FER-10 | 2026-09-03 00:19:34 | 45.50447 | 16.53188 | 90° | 27km/h | 18525m | 5.0m/s | -56.1°C | 4.1% | 0hPa | 2.7V | 00:00:00 | 01:15:12 | 00:00:00 | |
| PETON7-10 | 2026-09-03 00:19:26 | 45.50439 | 16.53108 | 68° | 26km/h | 18485m | 5.0m/s | -55.9°C | 4.1% | 0hPa | 2.6V | 00:00:00 | 00:00:00 | 00:00:00 | |
| 9A1FER-3 | 2026-09-03 00:19:21 | 45.50427 | 16.53070 | 60° | 26km/h | 18460m | 5.0m/s | -55.7°C | 4.1% | 0hPa | 2.6V | 00:00:00 | 01:14:59 | 00:00:00 | |
| 9A1FER-10 | 2026-09-03 00:19:19 | 45.50421 | 16.53054 | 65° | 26km/h | 18450m | 5.7m/s | -55.6°C | 4.1% | 0hPa | 2.6V | 00:00:00 | 01:14:57 | 00:00:00 | |
| PETON7-10 | 2026-09-03 00:19:11 | 45.50398 | 16.52988 | 56° | 26km/h | 18409m | 4.8m/s | -55.4°C | 4.0% | 0hPa | 2.6V | 00:00:00 | 01:14:49 | 00:00:00 | |
| 9A1FER-3 | 2026-09-03 00:19:06 | 45.50382 | 16.52950 | 62° | 26km/h | 18382m | 4.2m/s | -55.5°C | 4.0% | 0hPa | 2.6V | 00:00:00 | 01:14:44 | 00:00:00 | |
| 9A1FER-10 | 2026-09-03 00:19:04 | 45.50377 | 16.52932 | 70° | 26km/h | 18372m | 5.8m/s | -55.4°C | 4.0% | 0hPa | 2.6V | 00:00:00 | 01:14:42 | 00:00:00 | |
| OE5DRO-10 | 2026-09-03 00:19:00 | 45.50364 | 16.52895 | 56° | 22km/h | 18352m | 4.2m/s | -55.3°C | 4.0% | 0hPa | 2.6V | 00:00:00 | 00:00:00 | 00:00:00 | |
| PETON7-10 | 2026-09-03 00:18:56 | 45.50347 | 16.52868 | 35° | 22km/h | 18332m | 5.2m/s | -55.2°C | 4.0% | 0hPa | 2.6V | 00:00:00 | 00:00:00 | 08:30:00 | |
| 9A1FER-3 | 2026-09-03 00:18:51 | 45.50321 | 16.52844 | 41° | 20km/h | 18305m | 4.8m/s | -55.0°C | 3.9% | 0hPa | 2.7V | 00:00:00 | 01:14:29 | 00:00:00 | |
| 9A1FER-10 | 2026-09-03 00:18:49 | 45.50312 | 16.52831 | 54° | 18km/h | 18294m | 5.7m/s | -54.9°C | 3.9% | 0hPa | 2.7V | 00:00:00 | 01:14:27 | 00:00:00 | |
| OE5DRO-10 | 2026-09-03 00:18:41 | 45.50286 | 16.52794 | 30° | 16km/h | 18253m | 5.3m/s | -54.6°C | 3.8% | 0hPa | 2.6V | 00:00:00 | 00:00:00 | 00:00:00 | |
| 9A1FER-3 | 2026-09-03 00:18:36 | 45.50268 | 16.52778 | 43° | 15km/h | 18227m | 4.6m/s | -54.4°C | 3.8% | 0hPa | 2.6V | 00:00:00 | 01:14:14 | 00:00:00 | |
| 9A1FER-10 | 2026-09-03 00:18:34 | 45.50260 | 16.52768 | 42° | 15km/h | 18217m | 5.7m/s | -54.4°C | 3.9% | 0hPa | 2.6V | 00:00:00 | 01:14:12 | 00:00:00 | |
| PETON7-10 | 2026-09-03 00:18:26 | 45.50238 | 16.52742 | 28° | 13km/h | 18177m | 6.7m/s | -54.1°C | 3.8% | 0hPa | 2.6V | 00:00:00 | 01:14:04 | 00:00:00 | |
| OE5DRO-10 | 2026-09-03 00:18:22 | 45.50225 | 16.52732 | 34° | 11km/h | 18156m | 5.7m/s | -54.1°C | 3.7% | 0hPa | 2.6V | 00:00:00 | 00:00:00 | 00:00:00 | |
| 9A1FER-3 | 2026-09-03 00:18:21 | 45.50222 | 16.52729 | 44° | 11km/h | 18151m | 4.9m/s | -54.1°C | 3.7% | 0hPa | 2.6V | 00:00:00 | 01:13:59 | 00:00:00 | |
| 9A1FER-10 | 2026-09-03 00:18:19 | 45.50217 | 16.52722 | 46° | 11km/h | 18140m | 5.5m/s | -54.1°C | 3.7% | 0hPa | 2.6V | 00:00:00 | 01:13:57 | 00:00:00 | |
| PETON7-10 | 2026-09-03 00:18:11 | 45.50205 | 16.52693 | 60° | 11km/h | 18095m | 4.8m/s | -53.8°C | 3.7% | 0hPa | 2.6V | 00:00:00 | 00:00:00 | 00:00:00 | |
| 9A1FER-3 | 2026-09-03 00:18:06 | 45.50201 | 16.52676 | 97° | 11km/h | 18069m | 5.2m/s | -53.7°C | 3.7% | 0hPa | 2.7V | 00:00:00 | 01:13:44 | 00:00:00 | |
| 9A1FER-10 | 2026-09-03 00:18:04 | 45.50203 | 16.52669 | 114° | 13km/h | 18057m | 4.9m/s | -53.7°C | 3.7% | 0hPa | 2.7V | 00:00:00 | 01:13:42 | 08:30:00 | |
| OE5DRO-10 | 2026-09-03 00:18:03 | 45.50204 | 16.52666 | 107° | 15km/h | 18052m | 5.3m/s | -53.6°C | 3.6% | 0hPa | 2.6V | 00:00:00 | 00:00:00 | 00:00:00 | |
| PETON7-10 | 2026-09-03 00:17:56 | 45.50203 | 16.52637 | 91° | 16km/h | 18017m | 5.2m/s | -53.8°C | 3.6% | 0hPa | 2.6V | 00:00:00 | 00:00:00 | 00:00:00 | |
| 9A1FER-3 | 2026-09-03 00:17:51 | 45.50205 | 16.52614 | 110° | 22km/h | 17991m | 6.0m/s | -53.7°C | 3.7% | 0hPa | 2.6V | 00:00:00 | 01:13:29 | 08:30:00 | |
| 9A1FER-10 | 2026-09-03 00:17:49 | 45.50209 | 16.52602 | 123° | 22km/h | 17981m | 5.4m/s | -53.7°C | 3.7% | 0hPa | 2.6V | 00:00:00 | 01:13:27 | 00:00:00 | |
| OE5DRO-10 | 2026-09-03 00:17:44 | 45.50225 | 16.52576 | 133° | 26km/h | 17954m | 6.0m/s | -53.8°C | 3.7% | 0hPa | 2.6V | 00:00:00 | 00:00:00 | 00:00:00 | |
| PETON7-10 | 2026-09-03 00:17:41 | 45.50237 | 16.52558 | 129° | 26km/h | 17939m | 5.7m/s | -53.8°C | 3.7% | 0hPa | 2.6V | 00:00:00 | 01:13:19 | 00:00:00 | |
| 9A1FER-3 | 2026-09-03 00:17:36 | 45.50257 | 16.52525 | 132° | 27km/h | 17913m | 5.3m/s | -53.7°C | 3.6% | 0hPa | 2.6V | 00:00:00 | 01:13:14 | 00:00:00 | |
| 9A1FER-10 | 2026-09-03 00:17:34 | 45.50266 | 16.52511 | 136° | 29km/h | 17903m | 5.8m/s | -53.8°C | 3.7% | 0hPa | 2.6V | 00:00:00 | 01:13:12 | 00:00:00 | |
| PETON7-10 | 2026-09-03 00:17:26 | 45.50300 | 16.52453 | 129° | 33km/h | 17863m | 4.6m/s | -53.8°C | 3.7% | 0hPa | 2.6V | 00:00:00 | 00:00:00 | 00:00:00 | |
| OE5DRO-10 | 2026-09-03 00:17:25 | 45.50305 | 16.52444 | 130° | 33km/h | 17858m | 5.9m/s | -53.8°C | 3.7% | 0hPa | 2.6V | 00:00:00 | 00:00:00 | 00:00:00 | |
| 9A1FER-3 | 2026-09-03 00:17:21 | 45.50325 | 16.52407 | 128° | 33km/h | 17837m | 5.5m/s | -53.9°C | 3.7% | 0hPa | 2.7V | 00:00:00 | 01:12:59 | 00:00:00 | |
| 9A1FER-10 | 2026-09-03 00:17:19 | 45.50335 | 16.52390 | 129° | 35km/h | 17827m | 4.7m/s | -53.8°C | 3.7% | 0hPa | 2.7V | 00:00:00 | 01:12:57 | 00:00:00 | |
| PETON7-10 | 2026-09-03 00:17:11 | 45.50372 | 16.52306 | 120° | 35km/h | 17788m | 4.6m/s | -53.8°C | 3.7% | 0hPa | 2.6V | 00:00:00 | 00:00:00 | 00:00:00 | |
| 9A1FER-3 | 2026-09-03 00:17:06 | 45.50393 | 16.52253 | 120° | 37km/h | 17764m | 5.4m/s | -53.8°C | 3.6% | 0hPa | 2.6V | 00:00:00 | 01:12:44 | 00:00:00 | |
| 9A1FER-10 | 2026-09-03 00:17:04 | 45.50402 | 16.52233 | 122° | 38km/h | 17754m | 4.1m/s | -54.0°C | 3.6% | 0hPa | 2.6V | 00:00:00 | 01:12:42 | 00:00:00 | |
| PETON7-10 | 2026-09-03 00:16:56 | 45.50428 | 16.52136 | 110° | 40km/h | 17715m | 5.6m/s | -54.0°C | 3.6% | 0hPa | 2.6V | 00:00:00 | 01:12:34 | 00:00:00 | |
| 9A1FER-3 | 2026-09-03 00:16:51 | 45.50447 | 16.52066 | 116° | 42km/h | 17689m | 4.0m/s | -54.1°C | 3.7% | 0hPa | 2.6V | 00:00:00 | 01:12:29 | 00:00:00 | |
| OE5DRO-10 | 2026-09-03 00:16:47 | 45.50464 | 16.52011 | 117° | 42km/h | 17669m | 4.3m/s | -54.2°C | 3.7% | 0hPa | 2.6V | 00:00:00 | 00:00:00 | 00:00:00 | |
| PETON7-10 | 2026-09-03 00:16:41 | 45.50488 | 16.51931 | 111° | 44km/h | 17640m | 5.4m/s | -54.4°C | 3.7% | 0hPa | 2.6V | 00:00:00 | 00:00:00 | 08:30:00 | |
| 9A1FER-3 | 2026-09-03 00:16:36 | 45.50511 | 16.51860 | 118° | 47km/h | 17616m | 4.7m/s | -54.5°C | 3.7% | 0hPa | 2.7V | 00:00:00 | 01:12:14 | 00:00:00 | |
| 9A1FER-10 | 2026-09-03 00:16:34 | 45.50523 | 16.51832 | 122° | 49km/h | 17606m | 4.1m/s | -54.7°C | 3.8% | 0hPa | 2.7V | 00:00:00 | 01:12:12 | 00:00:00 | |
| OE5DRO-10 | 2026-09-03 00:16:29 | 45.50553 | 16.51747 | 116° | 57km/h | 17578m | 4.4m/s | -54.9°C | 3.8% | 0hPa | 2.7V | 00:00:00 | 00:00:00 | 08:30:00 | |
| PETON7-10 | 2026-09-03 00:16:26 | 45.50562 | 16.51716 | 113° | 57km/h | 17568m | 4.0m/s | -55.0°C | 3.8% | 0hPa | 2.7V | 00:00:00 | 00:00:00 | 00:00:00 | |
| 9A1FER-3 | 2026-09-03 00:16:21 | 45.50592 | 16.51632 | 118° | 60km/h | 17545m | 3.4m/s | -55.2°C | 3.8% | 0hPa | 2.7V | 00:00:00 | 01:11:59 | 00:00:00 | |
| 9A1FER-10 | 2026-09-03 00:16:19 | 45.50606 | 16.51596 | 118° | 62km/h | 17536m | 4.2m/s | -55.3°C | 3.9% | 0hPa | 2.7V | 00:00:00 | 01:11:57 | 00:00:00 | |
| OE3JTB-15 | 2026-09-03 00:16:16 | 45.50625 | 16.51536 | 113° | 60km/h | 17521m | 4.2m/s | -55.6°C | 4.0% | 0hPa | 2.7V | 00:00:00 | 01:11:54 | 00:00:00 | |
| PETON7-10 | 2026-09-03 00:16:11 | 45.50656 | 16.51432 | 115° | 62km/h | 17495m | 6.5m/s | -55.9°C | 4.0% | 0hPa | 2.7V | 00:00:00 | 01:11:49 | 00:00:00 | |
| OE5DRO-10 | 2026-09-03 00:16:09 | 45.50669 | 16.51392 | 113° | 60km/h | 17485m | 6.2m/s | -56.0°C | 4.1% | 0hPa | 2.7V | 00:00:00 | 00:00:00 | 00:00:00 | |
| 9A1FER-3 | 2026-09-03 00:16:06 | 45.50687 | 16.51330 | 112° | 60km/h | 17470m | 4.0m/s | -55.9°C | 4.1% | 0hPa | 2.7V | 00:00:00 | 01:11:44 | 00:00:00 | |
| 9A1FER-10 | 2026-09-03 00:16:04 | 45.50697 | 16.51287 | 109° | 58km/h | 17460m | 4.1m/s | -55.9°C | 4.1% | 0hPa | 2.7V | 00:00:00 | 01:11:42 | 00:00:00 | |
| PETON7-10 | 2026-09-03 00:15:56 | 45.50738 | 16.51124 | 108° | 53km/h | 17422m | 5.8m/s | -56.0°C | 4.1% | 0hPa | 2.7V | 00:00:00 | 00:00:00 | 00:00:00 | |
| 9A1FER-3 | 2026-09-03 00:15:51 | 45.50759 | 16.51025 | 107° | 49km/h | 17398m | 4.2m/s | -56.0°C | 4.1% | 0hPa | 2.6V | 00:00:00 | 01:11:29 | 00:00:00 | |
| OE5DRO-10 | 2026-09-03 00:15:50 | 45.50763 | 16.51007 | 110° | 47km/h | 17393m | 5.2m/s | -56.0°C | 4.1% | 0hPa | 2.6V | 00:00:00 | 00:00:00 | 00:00:00 | |
| 9A1FER-10 | 2026-09-03 00:15:49 | 45.50768 | 16.50988 | 112° | 47km/h | 17388m | 4.4m/s | -56.0°C | 4.1% | 0hPa | 2.6V | 00:00:00 | 01:11:27 | 08:30:00 | |
| PETON7-10 | 2026-09-03 00:15:41 | 45.50802 | 16.50859 | 107° | 46km/h | 17349m | 5.3m/s | -56.4°C | 4.2% | 0hPa | 2.7V | 00:00:00 | 00:00:00 | 00:00:00 | |
| 9A1FER-3 | 2026-09-03 00:15:36 | 45.50819 | 16.50780 | 115° | 47km/h | 17326m | 4.4m/s | -56.3°C | 4.2% | 0hPa | 2.7V | 00:00:00 | 01:11:14 | 08:30:00 | |
| 9A1FER-10 | 2026-09-03 00:15:34 | 45.50829 | 16.50752 | 116° | 47km/h | 17316m | 5.2m/s | -56.3°C | 4.2% | 0hPa | 2.7V | 00:00:00 | 01:11:12 | 00:00:00 | |
| OE5DRO-10 | 2026-09-03 00:15:31 | 45.50843 | 16.50708 | 113° | 51km/h | 17302m | 5.0m/s | -56.2°C | 4.2% | 0hPa | 2.7V | 00:00:00 | 00:00:00 | 00:00:00 | |
| PETON7-10 | 2026-09-03 00:15:26 | 45.50861 | 16.50625 | 107° | 49km/h | 17278m | 4.6m/s | -56.1°C | 4.1% | 0hPa | 2.7V | 00:00:00 | 01:11:04 | 00:00:00 | |
| 9A1FER-3 | 2026-09-03 00:15:21 | 45.50880 | 16.50542 | 108° | 53km/h | 17254m | 3.5m/s | -56.1°C | 4.2% | 0hPa | 2.7V | 00:00:00 | 01:10:59 | 00:00:00 | |
| 9A1FER-10 | 2026-09-03 00:15:19 | 45.50887 | 16.50507 | 105° | 53km/h | 17245m | 4.9m/s | -56.1°C | 4.1% | 0hPa | 2.7V | 00:00:00 | 01:10:57 | 00:00:00 | |
| OE3JTB-15 | 2026-09-03 00:15:18 | 45.50890 | 16.50490 | 107° | 58km/h | 17240m | 4.1m/s | -56.1°C | 4.2% | 0hPa | 2.7V | 00:00:00 | 00:00:00 | 00:00:00 | |
| PETON7-10 | 2026-09-03 00:15:09 | 45.50927 | 16.50324 | 109° | 62km/h | 17195m | 5.6m/s | -56.3°C | 4.2% | 0hPa | 2.7V | 00:00:00 | 00:00:00 | 00:00:00 | |
| 9A1FER-3 | 2026-09-03 00:15:06 | 45.50938 | 16.50268 | 106° | 62km/h | 17182m | 5.3m/s | -56.4°C | 4.2% | 0hPa | 2.7V | 00:00:00 | 01:10:44 | 00:00:00 | |
| 9A1FER-10 | 2026-09-03 00:15:04 | 45.50946 | 16.50230 | 108° | 62km/h | 17172m | 5.6m/s | -56.4°C | 4.2% | 0hPa | 2.7V | 00:00:00 | 01:10:42 | 00:00:00 | |
| PETON7-10 | 2026-09-03 00:14:54 | 45.50977 | 16.50004 | 98° | 60km/h | 17123m | 4.2m/s | -56.1°C | 4.3% | 0hPa | 2.6V | 00:00:00 | 00:00:00 | 00:00:00 | |
| OE5DRO-10 | 2026-09-03 00:14:53 | 45.50979 | 16.49982 | 97° | 58km/h | 17119m | 3.7m/s | -56.1°C | 4.2% | 0hPa | 2.6V | 00:00:00 | 00:00:00 | 00:00:00 | |
| 9A1FER-3 | 2026-09-03 00:14:51 | 45.50982 | 16.49940 | 95° | 60km/h | 17109m | 4.8m/s | -56.1°C | 4.2% | 0hPa | 2.6V | 00:00:00 | 01:10:29 | 00:00:00 | |
| 9A1FER-10 | 2026-09-03 00:14:49 | 45.50985 | 16.49899 | 97° | 60km/h | 17100m | 3.9m/s | -56.0°C | 4.2% | 0hPa | 2.7V | 00:00:00 | 01:10:27 | 00:00:00 | |
| PETON7-10 | 2026-09-03 00:14:39 | 45.50999 | 16.49684 | 98° | 53km/h | 17051m | 3.7m/s | -56.2°C | 4.3% | 0hPa | 2.7V | 00:00:00 | 01:10:17 | 00:00:00 | |
| 9A1FER-3 | 2026-09-03 00:14:36 | 45.51002 | 16.49619 | 93° | 53km/h | 17038m | 4.4m/s | -56.2°C | 4.3% | 0hPa | 2.7V | 00:00:00 | 01:10:14 | 00:00:00 | |
| 9A1FER-10 | 2026-09-03 00:14:34 | 45.51004 | 16.49580 | 93° | 51km/h | 17027m | 5.0m/s | -56.2°C | 4.3% | 0hPa | 2.7V | 00:00:00 | 01:10:12 | 00:00:00 | |
| PETON7-10 | 2026-09-03 00:14:24 | 45.51018 | 16.49396 | 99° | 47km/h | 16976m | 4.3m/s | -56.1°C | 4.4% | 0hPa | 2.7V | 00:00:00 | 00:00:00 | 08:30:00 | |
| 9A1FER-3 | 2026-09-03 00:14:21 | 45.51026 | 16.49340 | 105° | 47km/h | 16962m | 3.5m/s | -56.0°C | 4.3% | 0hPa | 2.6V | 00:00:00 | 01:09:59 | 00:00:00 | |
| OE3JTB-15 | 2026-09-03 00:14:20 | 45.51029 | 16.49322 | 104° | 46km/h | 16957m | 5.4m/s | -56.0°C | 4.3% | 0hPa | 2.6V | 00:00:00 | 00:00:00 | 00:00:00 | |
| 9A1FER-10 | 2026-09-03 00:14:19 | 45.51032 | 16.49304 | 102° | 46km/h | 16952m | 4.8m/s | -56.0°C | 4.3% | 0hPa | 2.7V | 00:00:00 | 01:09:57 | 00:00:00 | |
| OE5DRO-10 | 2026-09-03 00:14:15 | 45.51039 | 16.49239 | 95° | 46km/h | 16931m | 5.7m/s | -55.9°C | 4.3% | 0hPa | 2.7V | 00:00:00 | 00:00:00 | 00:00:00 | |
| PETON7-10 | 2026-09-03 00:14:09 | 45.51055 | 16.49146 | 115° | 46km/h | 16900m | 6.2m/s | -55.7°C | 4.2% | 0hPa | 2.7V | 00:00:00 | 00:00:00 | 00:00:00 | |
| 9A1FER-3 | 2026-09-03 00:14:07 | 45.51073 | 16.49099 | 118° | 46km/h | 16884m | 5.1m/s | -55.7°C | 4.2% | 0hPa | 2.7V | 00:00:00 | 01:09:44 | 00:00:00 | |
| 9A1FER-10 | 2026-09-03 00:14:04 | 45.51084 | 16.49068 | 116° | 44km/h | 16873m | 5.1m/s | -55.7°C | 4.1% | 0hPa | 2.7V | 00:00:00 | 01:09:42 | 00:00:00 | |
| PETON7-10 | 2026-09-03 00:13:54 | 45.51128 | 16.48927 | 127° | 49km/h | 16824m | 4.7m/s | -55.7°C | 4.3% | 0hPa | 2.7V | 00:00:00 | 01:09:32 | 00:00:00 | |
| 9A1FER-3 | 2026-09-03 00:13:51 | 45.51149 | 16.48885 | 123° | 51km/h | 16809m | 4.2m/s | -55.8°C | 4.3% | 0hPa | 2.7V | 00:00:00 | 01:09:29 | 00:00:00 | |
| 9A1FER-10 | 2026-09-03 00:13:49 | 45.51161 | 16.48856 | 123° | 53km/h | 16799m | 4.8m/s | -55.9°C | 4.3% | 0hPa | 2.7V | 00:00:00 | 01:09:27 | 00:00:00 | |
| PETON7-10 | 2026-09-03 00:13:39 | 45.51229 | 16.48703 | 127° | 60km/h | 16749m | 4.3m/s | -55.8°C | 4.3% | 0hPa | 2.7V | 00:00:00 | 00:00:00 | 00:00:00 | |
| OE5DRO-10 | 2026-09-03 00:13:37 | 45.51246 | 16.48668 | 126° | 62km/h | 16738m | 4.2m/s | -55.8°C | 4.3% | 0hPa | 2.6V | 00:00:00 | 00:00:00 | 08:30:00 | |
| 9A1FER-3 | 2026-09-03 00:13:36 | 45.51255 | 16.48650 | 126° | 62km/h | 16733m | 5.3m/s | -55.8°C | 4.3% | 0hPa | 2.7V | 00:00:00 | 01:09:14 | 00:00:00 | |
| 9A1FER-10 | 2026-09-03 00:13:34 | 45.51273 | 16.48612 | 122° | 62km/h | 16723m | 6.6m/s | -55.8°C | 4.3% | 0hPa | 2.7V | 00:00:00 | 01:09:12 | 08:30:00 | |
| PETON7-10 | 2026-09-03 00:13:24 | 45.51345 | 16.48419 | 122° | 64km/h | 16672m | 5.5m/s | -55.7°C | 4.2% | 0hPa | 2.7V | 00:00:00 | 00:00:00 | 00:00:00 | |
| OE3JTB-15 | 2026-09-03 00:13:22 | 45.51362 | 16.48381 | 125° | 62km/h | 16661m | 5.1m/s | -55.7°C | 4.2% | 0hPa | 2.7V | 00:00:00 | 01:09:00 | 00:00:00 | |
| 9A1FER-3 | 2026-09-03 00:13:21 | 45.51372 | 16.48361 | 126° | 62km/h | 16656m | 5.3m/s | -55.7°C | 4.2% | 0hPa | 2.7V | 00:00:00 | 01:08:59 | 08:30:00 | |
| 9A1FER-10 | 2026-09-03 00:13:19 | 45.51391 | 16.48322 | 125° | 62km/h | 16646m | 5.2m/s | -55.7°C | 4.2% | 0hPa | 2.6V | 00:00:00 | 01:08:57 | 00:00:00 | |
| OE5DRO-10 | 2026-09-03 00:13:18 | 45.51401 | 16.48301 | 123° | 62km/h | 16641m | 3.8m/s | -55.7°C | 4.2% | 0hPa | 2.6V | 00:00:00 | 00:00:00 | 00:00:00 | |
| PETON7-10 | 2026-09-03 00:13:09 | 45.51460 | 16.48122 | 113° | 62km/h | 16597m | 3.8m/s | -55.6°C | 4.2% | 0hPa | 2.6V | 00:00:00 | 01:08:47 | 00:00:00 | |
| 9A1FER-3 | 2026-09-03 00:13:06 | 45.51478 | 16.48062 | 114° | 62km/h | 16582m | 6.0m/s | -55.6°C | 4.1% | 0hPa | 2.6V | 00:00:00 | 01:08:44 | 00:00:00 | |
| OE5DRO-10 | 2026-09-03 00:12:59 | 45.51521 | 16.47918 | 110° | 64km/h | 16548m | 3.9m/s | -55.9°C | 4.2% | 0hPa | 2.6V | 00:00:00 | 00:00:00 | 00:00:00 | |
| PETON7-10 | 2026-09-03 00:12:54 | 45.51546 | 16.47810 | 110° | 64km/h | 16524m | 4.3m/s | -56.0°C | 4.2% | 0hPa | 2.6V | 00:00:00 | 00:00:00 | 00:00:00 | |
| OE3JTB-15 | 2026-09-03 00:12:53 | 45.51551 | 16.47788 | 109° | 66km/h | 16519m | 5.4m/s | -56.0°C | 4.2% | 0hPa | 2.6V | 00:00:00 | 00:00:00 | 00:00:00 | |
| 9A1FER-3 | 2026-09-03 00:12:51 | 45.51561 | 16.47745 | 110° | 66km/h | 16508m | 6.1m/s | -56.0°C | 4.2% | 0hPa | 2.6V | 00:00:00 | 01:08:29 | 00:00:00 | |
| 9A1FER-10 | 2026-09-03 00:12:49 | 45.51572 | 16.47703 | 109° | 66km/h | 16499m | 4.6m/s | -56.0°C | 4.2% | 0hPa | 2.6V | 00:00:00 | 01:08:27 | 00:00:00 | |
| OE5DRO-10 | 2026-09-03 00:12:40 | 45.51611 | 16.47500 | 108° | 66km/h | 16454m | 3.0m/s | -56.6°C | 4.4% | 0hPa | 2.7V | 00:00:00 | 00:00:00 | 00:00:00 | |
| PETON7-10 | 2026-09-03 00:12:39 | 45.51616 | 16.47477 | 107° | 68km/h | 16450m | 5.0m/s | -56.7°C | 4.4% | 0hPa | 2.6V | 00:00:00 | 00:00:00 | 00:00:00 | |
| 9A1FER-3 | 2026-09-03 00:12:36 | 45.51628 | 16.47406 | 103° | 66km/h | 16436m | 4.5m/s | -56.7°C | 4.4% | 0hPa | 2.6V | 00:00:00 | 01:08:14 | 00:00:00 | |
| 9A1FER-10 | 2026-09-03 00:12:34 | 45.51636 | 16.47358 | 101° | 64km/h | 16428m | 3.6m/s | -56.8°C | 4.5% | 0hPa | 2.7V | 00:00:00 | 01:08:12 | 00:00:00 | |
| PETON7-10 | 2026-09-03 00:12:24 | 45.51659 | 16.47121 | 98° | 60km/h | 16382m | 3.8m/s | -56.8°C | 4.4% | 0hPa | 2.7V | 00:00:00 | 01:08:02 | 00:00:00 | |
| 9A1FER-3 | 2026-09-03 00:12:21 | 45.51662 | 16.47053 | 92° | 58km/h | 16368m | 4.5m/s | -56.8°C | 4.4% | 0hPa | 2.7V | 00:00:00 | 01:07:59 | 00:00:00 | |
| 9A1FER-10 | 2026-09-03 00:12:19 | 45.51663 | 16.47012 | 92° | 58km/h | 16359m | 4.2m/s | -56.8°C | 4.4% | 0hPa | 2.7V | 00:00:00 | 01:07:57 | 00:00:00 | |
| PETON7-10 | 2026-09-03 00:12:09 | 45.51661 | 16.46798 | 89° | 57km/h | 16313m | 5.0m/s | -56.5°C | 4.4% | 0hPa | 2.7V | 00:00:00 | 00:00:00 | 08:30:00 | |
| 9A1FER-3 | 2026-09-03 00:12:06 | 45.51658 | 16.46736 | 87° | 55km/h | 16300m | 5.0m/s | -56.4°C | 4.5% | 0hPa | 2.6V | 00:00:00 | 01:07:44 | 00:00:00 | |
| 9A1FER-10 | 2026-09-03 00:12:04 | 45.51656 | 16.46699 | 84° | 55km/h | 16291m | 5.0m/s | -56.4°C | 4.4% | 0hPa | 2.6V | 00:00:00 | 01:07:42 | 00:00:00 | |
| OE5DRO-10 | 2026-09-03 00:12:02 | 45.51653 | 16.46662 | 84° | 53km/h | 16282m | 5.0m/s | -56.4°C | 4.3% | 0hPa | 2.6V | 00:00:00 | 00:00:00 | 00:00:00 | |
| OE3JTB-15 | 2026-09-03 00:11:55 | 45.51647 | 16.46517 | 90° | 49km/h | 16250m | 5.3m/s | -56.6°C | 4.3% | 0hPa | 2.6V | 00:00:00 | 01:07:33 | 00:00:00 | |
| PETON7-10 | 2026-09-03 00:11:54 | 45.51647 | 16.46496 | 90° | 51km/h | 16246m | 4.1m/s | -56.6°C | 4.3% | 0hPa | 2.6V | 00:00:00 | 00:00:00 | 00:00:00 | |
| 9A1FER-3 | 2026-09-03 00:11:51 | 45.51647 | 16.46439 | 89° | 49km/h | 16232m | 4.5m/s | -56.5°C | 4.4% | 0hPa | 2.6V | 00:00:00 | 01:07:29 | 00:00:00 | |
| 9A1FER-10 | 2026-09-03 00:11:49 | 45.51646 | 16.46406 | 89° | 47km/h | 16222m | 3.9m/s | -56.4°C | 4.4% | 0hPa | 2.7V | 00:00:00 | 01:07:27 | 00:00:00 | |
| OE5DRO-10 | 2026-09-03 00:11:43 | 45.51654 | 16.46299 | 101° | 47km/h | 16194m | 5.1m/s | -56.4°C | 4.3% | 0hPa | 2.7V | 00:00:00 | 00:00:00 | 00:00:00 | |
| PETON7-10 | 2026-09-03 00:11:39 | 45.51663 | 16.46226 | 96° | 47km/h | 16176m | 4.3m/s | 0°C | 0% | 0hPa | 2.6V | 00:00:00 | 01:07:17 | 00:00:00 | |
| 9A1FER-3 | 2026-09-03 00:11:36 | 45.51667 | 16.46180 | 100° | 47km/h | 16162m | 4.2m/s | -56.5°C | 4.3% | 0hPa | 2.6V | 00:00:00 | 01:07:14 | 00:00:00 | |
| 9A1FER-10 | 2026-09-03 00:11:34 | 45.51670 | 16.46151 | 103° | 47km/h | 16153m | 4.1m/s | -56.5°C | 4.3% | 0hPa | 2.6V | 00:00:00 | 01:07:12 | 00:00:00 | |
| OE3JTB-15 | 2026-09-03 00:11:26 | 45.51704 | 16.46018 | 111° | 51km/h | 16116m | 4.4m/s | -56.4°C | 4.3% | 0hPa | 2.6V | 00:00:00 | 00:00:00 | 08:30:00 | |
| PETON7-10 | 2026-09-03 00:11:24 | 45.51712 | 16.45986 | 111° | 49km/h | 16108m | 4.7m/s | 0°C | 0% | 0hPa | 2.6V | 00:00:00 | 00:00:00 | 00:00:00 | |
| 9A1FER-3 | 2026-09-03 00:11:21 | 45.51724 | 16.45940 | 108° | 49km/h | 16095m | 5.2m/s | -56.4°C | 4.3% | 0hPa | 2.6V | 00:00:00 | 01:06:59 | 00:00:00 | |
| 9A1FER-10 | 2026-09-03 00:11:19 | 45.51731 | 16.45907 | 107° | 51km/h | 16087m | 4.6m/s | -56.5°C | 4.3% | 0hPa | 2.6V | 00:00:00 | 01:06:57 | 08:30:00 | |
| PETON7-10 | 2026-09-03 00:11:09 | 45.51771 | 16.45734 | 109° | 46km/h | 16042m | 4.1m/s | 0°C | 0% | 0hPa | 2.6V | 00:00:00 | 00:00:00 | 00:00:00 | |
| 9A1FER-3 | 2026-09-03 00:11:06 | 45.51780 | 16.45683 | 101° | 55km/h | 16030m | 4.2m/s | -57.3°C | 4.5% | 0hPa | 2.6V | 00:00:00 | 01:06:44 | 08:30:00 | |
| OE5DRO-10 | 2026-09-03 00:11:05 | 45.51783 | 16.45665 | 102° | 55km/h | 16026m | 4.2m/s | -57.3°C | 4.6% | 0hPa | 2.7V | 00:00:00 | 00:00:00 | 00:00:00 | |
| 9A1FER-10 | 2026-09-03 00:11:04 | 45.51786 | 16.45646 | 104° | 55km/h | 16022m | 4.1m/s | -57.3°C | 4.5% | 0hPa | 2.7V | 00:00:00 | 01:06:42 | 00:00:00 | |
| OE3JTB-15 | 2026-09-03 00:10:57 | 45.51812 | 16.45506 | 105° | 47km/h | 15993m | 3.2m/s | -57.4°C | 4.7% | 0hPa | 2.7V | 00:00:00 | 00:00:00 | 00:00:00 | |
| 9A1FER-3 | 2026-09-03 00:10:51 | 45.51828 | 16.45395 | 99° | 47km/h | 15968m | 5.3m/s | -57.3°C | 4.6% | 0hPa | 2.7V | 00:00:00 | 01:06:29 | 00:00:00 | |
| 9A1FER-10 | 2026-09-03 00:10:49 | 45.51832 | 16.45358 | 100° | 46km/h | 15958m | 4.7m/s | -57.3°C | 4.6% | 0hPa | 2.7V | 00:00:00 | 01:06:27 | 00:00:00 | |
| OE5DRO-10 | 2026-09-03 00:10:46 | 45.51841 | 16.45303 | 105° | 46km/h | 15945m | 4.2m/s | -57.2°C | 4.6% | 0hPa | 2.7V | 00:00:00 | 00:00:00 | 08:30:00 | |
| 9A1FER-3 | 2026-09-03 00:10:36 | 45.51864 | 16.45149 | 106° | 42km/h | 15901m | 5.6m/s | -57.0°C | 4.7% | 0hPa | 2.7V | 00:00:00 | 01:06:14 | 00:00:00 | |
| 9A1FER-10 | 2026-09-03 00:10:34 | 45.51871 | 16.45117 | 111° | 44km/h | 15892m | 5.7m/s | -56.9°C | 4.7% | 0hPa | 2.7V | 00:00:00 | 01:06:12 | 00:00:00 | |
| PETON7-10 | 2026-09-03 00:10:32 | 45.51880 | 16.45083 | 112° | 58km/h | 15882m | 4.6m/s | 0°C | 0% | 0hPa | 2.6V | 00:00:00 | 01:06:10 | 00:00:00 | |
| OE3JTB-15 | 2026-09-03 00:10:28 | 45.51895 | 16.45018 | 102° | 44km/h | 15864m | 5.3m/s | -56.8°C | 4.6% | 0hPa | 2.6V | 00:00:00 | 01:06:06 | 00:00:00 | |
| OE5DRO-10 | 2026-09-03 00:10:27 | 45.51896 | 16.45006 | 97° | 46km/h | 15860m | 2.9m/s | -56.7°C | 4.5% | 0hPa | 2.6V | 00:00:00 | 00:00:00 | 00:00:00 | |
| 9A1FER-3 | 2026-09-03 00:10:21 | 45.51914 | 16.44933 | 126° | 49km/h | 15829m | 7.2m/s | -56.4°C | 4.4% | 0hPa | 2.6V | 00:00:00 | 01:05:59 | 00:00:00 | |
| 9A1FER-10 | 2026-09-03 00:10:19 | 45.51931 | 16.44897 | 123° | 46km/h | 15817m | 5.3m/s | -56.3°C | 4.4% | 0hPa | 2.7V | 00:00:00 | 01:05:57 | 00:00:00 | |
| OE5DRO-10 | 2026-09-03 00:10:08 | 45.51998 | 16.44735 | 123° | 44km/h | 15755m | 6.2m/s | -56.0°C | 4.4% | 0hPa | 2.7V | 00:00:00 | 00:00:00 | 00:00:00 | |
| 9A1FER-3 | 2026-09-03 00:10:06 | 45.52008 | 16.44713 | 126° | 44km/h | 15744m | 5.1m/s | -56.0°C | 4.4% | 0hPa | 2.7V | 00:00:00 | 01:05:44 | 00:00:00 | |
| 9A1FER-10 | 2026-09-03 00:10:04 | 45.52020 | 16.44690 | 127° | 46km/h | 15733m | 4.7m/s | -56.0°C | 4.4% | 0hPa | 2.7V | 00:00:00 | 01:05:42 | 00:00:00 | |
| OE3JTB-15 | 2026-09-03 00:09:59 | 45.52049 | 16.44625 | 122° | 53km/h | 15707m | 4.5m/s | -55.9°C | 4.4% | 0hPa | 2.7V | 00:00:00 | 00:00:00 | 00:00:00 | |
| OE5DRO-10 | 2026-09-03 00:09:50 | 45.52122 | 16.44493 | 127° | 55km/h | 15658m | 5.8m/s | -55.9°C | 4.4% | 0hPa | 2.6V | 00:00:00 | 00:00:00 | 00:00:00 | |
| 9A1FER-10 | 2026-09-03 00:09:49 | 45.52122 | 16.44493 | 127° | 55km/h | 15658m | 5.8m/s | -55.9°C | 4.4% | 0hPa | 2.6V | 00:00:00 | 01:05:27 | 00:00:00 | |
| 9A1FER-3 | 2026-09-03 00:09:36 | 45.52223 | 16.44286 | 120° | 58km/h | 15593m | 4.7m/s | -55.7°C | 4.4% | 0hPa | 2.7V | 00:00:00 | 01:05:14 | 00:00:00 | |
| 9A1FER-10 | 2026-09-03 00:09:34 | 45.52238 | 16.44251 | 123° | 60km/h | 15583m | 4.4m/s | -55.7°C | 4.4% | 0hPa | 2.6V | 00:00:00 | 01:05:12 | 00:00:00 | |
| OE5DRO-10 | 2026-09-03 00:09:30 | 45.52270 | 16.44176 | 122° | 62km/h | 15564m | 5.2m/s | 0°C | 0% | 0hPa | 2.6V | 00:00:00 | 00:00:00 | 00:00:00 | |
| 9A1FER-3 | 2026-09-03 00:09:21 | 45.52333 | 16.44010 | 120° | 62km/h | 15520m | 4.1m/s | -56.0°C | 4.4% | 0hPa | 2.6V | 00:00:00 | 01:04:59 | 00:00:00 | |
| 9A1FER-10 | 2026-09-03 00:09:19 | 45.52349 | 16.43970 | 120° | 62km/h | 15509m | 3.7m/s | -55.9°C | 4.4% | 0hPa | 2.6V | 00:00:00 | 01:04:57 | 00:00:00 | |
| PETON7-10 | 2026-09-03 00:09:17 | 45.52366 | 16.43928 | 121° | 62km/h | 15501m | 4.8m/s | 0°C | 0% | 0hPa | 2.6V | 00:00:00 | 00:00:00 | 00:00:00 | |
| OE5DRO-10 | 2026-09-03 00:09:11 | 45.52404 | 16.43803 | 108° | 60km/h | 15473m | 4.5m/s | 0°C | 0% | 0hPa | 2.6V | 00:00:00 | 00:00:00 | 00:00:00 | |
| 9A1FER-3 | 2026-09-03 00:09:06 | 45.52425 | 16.43702 | 109° | 62km/h | 15449m | 4.2m/s | -56.4°C | 4.7% | 0hPa | 2.6V | 00:00:00 | 01:04:44 | 00:00:00 | |
| 9A1FER-10 | 2026-09-03 00:09:04 | 45.52436 | 16.43660 | 110° | 62km/h | 15440m | 4.0m/s | -56.4°C | 4.7% | 0hPa | 2.6V | 00:00:00 | 01:04:42 | 08:30:00 | |
| PETON7-10 | 2026-09-03 00:09:02 | 45.52447 | 16.43618 | 112° | 66km/h | 15430m | 4.2m/s | 0°C | 0% | 0hPa | 2.6V | 00:00:00 | 00:00:00 | 00:00:00 | |
| OE3JTB-15 | 2026-09-03 00:09:01 | 45.52453 | 16.43597 | 112° | 64km/h | 15425m | 4.9m/s | -56.5°C | 4.7% | 0hPa | 2.6V | 00:00:00 | 01:04:39 | 00:00:00 | |
| OE5DRO-10 | 2026-09-03 00:08:52 | 45.52499 | 16.43412 | 111° | 68km/h | 15384m | 4.7m/s | 0°C | 0% | 0hPa | 2.6V | 00:00:00 | 00:00:00 | 00:00:00 | |
| 9A1FER-3 | 2026-09-03 00:08:51 | 45.52505 | 16.43391 | 111° | 66km/h | 15379m | 4.6m/s | -56.7°C | 4.7% | 0hPa | 2.6V | 00:00:00 | 01:04:29 | 08:30:00 | |
| 9A1FER-10 | 2026-09-03 00:08:49 | 45.52516 | 16.43350 | 113° | 69km/h | 15370m | 4.6m/s | -56.9°C | 4.7% | 0hPa | 2.6V | 00:00:00 | 01:04:27 | 00:00:00 | |
| PETON7-10 | 2026-09-03 00:08:38 | 45.52574 | 16.43107 | 109° | 62km/h | 15319m | 4.4m/s | 0°C | 0% | 0hPa | 2.6V | 00:00:00 | 01:04:16 | 00:00:00 | |
| 9A1FER-3 | 2026-09-03 00:08:36 | 45.52586 | 16.43058 | 110° | 68km/h | 15309m | 4.1m/s | -57.1°C | 5.0% | 0hPa | 2.6V | 00:00:00 | 01:04:14 | 00:00:00 | |
| OE3JTB-15 | 2026-09-03 00:08:32 | 45.52611 | 16.42963 | 110° | 68km/h | 15291m | 3.6m/s | -57.1°C | 5.1% | 0hPa | 2.6V | 00:00:00 | 00:00:00 | 00:00:00 | |
| 9A1FER-10 | 2026-09-03 00:08:30 | 45.52623 | 16.42916 | 109° | 68km/h | 15282m | 4.8m/s | -57.0°C | 5.0% | 0hPa | 2.7V | 00:00:00 | 01:04:08 | 00:00:00 | |
| OE5DRO-10 | 2026-09-03 00:08:28 | 45.52632 | 16.42871 | 105° | 68km/h | 15274m | 4.9m/s | 0°C | 0% | 0hPa | 2.7V | 00:00:00 | 00:00:00 | 00:00:00 | |
| 9A1FER-3 | 2026-09-03 00:08:21 | 45.52660 | 16.42705 | 106° | 68km/h | 15240m | 6.0m/s | -56.8°C | 4.9% | 0hPa | 2.7V | 00:00:00 | 01:03:59 | 00:00:00 | |
| 9A1FER-10 | 2026-09-03 00:08:15 | 45.52682 | 16.42564 | 99° | 68km/h | 15210m | 5.4m/s | -56.7°C | 5.0% | 0hPa | 2.7V | 00:00:00 | 01:03:53 | 00:00:00 | |
| 9A1FER-3 | 2026-09-03 00:08:06 | 45.52708 | 16.42348 | 103° | 66km/h | 15168m | 4.6m/s | -56.4°C | 4.8% | 0hPa | 2.6V | 00:00:00 | 01:03:44 | 00:00:00 | |
| OE3JTB-15 | 2026-09-03 00:08:03 | 45.52718 | 16.42275 | 102° | 62km/h | 15154m | 5.2m/s | -56.2°C | 4.8% | 0hPa | 2.6V | 00:00:00 | 00:00:00 | 00:00:00 | |
| 9A1FER-10 | 2026-09-03 00:08:00 | 45.52725 | 16.42204 | 96° | 64km/h | 15140m | 4.9m/s | -56.2°C | 4.8% | 0hPa | 2.6V | 00:00:00 | 01:03:38 | 00:00:00 | |
| 9A1FER-3 | 2026-09-03 00:07:51 | 45.52744 | 16.42002 | 101° | 62km/h | 15097m | 4.1m/s | -56.3°C | 4.8% | 0hPa | 2.6V | 00:00:00 | 01:03:29 | 00:00:00 | |
| OE5DRO-10 | 2026-09-03 00:07:48 | 45.52754 | 16.41933 | 102° | 66km/h | 15084m | 3.0m/s | 0°C | 0% | 0hPa | 2.6V | 00:00:00 | 00:00:00 | 00:00:00 | |
| 9A1FER-10 | 2026-09-03 00:07:45 | 45.52762 | 16.41863 | 97° | 58km/h | 15071m | 4.2m/s | -56.6°C | 4.9% | 0hPa | 2.6V | 00:00:00 | 01:03:23 | 00:00:00 | |
| 9A1FER-3 | 2026-09-03 00:07:36 | 45.52780 | 16.41669 | 94° | 53km/h | 15031m | 5.7m/s | -56.5°C | 5.0% | 0hPa | 2.6V | 00:00:00 | 01:03:14 | 00:00:00 | |
| OE3JTB-15 | 2026-09-03 00:07:34 | 45.52781 | 16.41630 | 90° | 49km/h | 15021m | 5.7m/s | -56.5°C | 5.0% | 0hPa | 2.6V | 00:00:00 | 01:03:12 | 00:00:00 | |
| 9A1FER-10 | 2026-09-03 00:07:30 | 45.52783 | 16.41554 | 96° | 51km/h | 15003m | 3.9m/s | -56.4°C | 5.0% | 0hPa | 2.6V | 00:00:00 | 01:03:08 | 00:00:00 | |
| 9A1FER-3 | 2026-09-03 00:07:21 | 45.52796 | 16.41385 | 97° | 47km/h | 14960m | 4.4m/s | -56.3°C | 5.0% | 0hPa | 2.7V | 00:00:00 | 01:02:59 | 00:00:00 | |
| 9A1FER-10 | 2026-09-03 00:07:15 | 45.52808 | 16.41283 | 104° | 44km/h | 14930m | 4.0m/s | -56.1°C | 4.9% | 0hPa | 2.6V | 00:00:00 | 01:02:53 | 00:00:00 | |
| 9A1FER-3 | 2026-09-03 00:07:06 | 45.52825 | 16.41138 | 100° | 46km/h | 14886m | 5.6m/s | -55.7°C | 4.8% | 0hPa | 2.6V | 00:00:00 | 01:02:44 | 00:00:00 | |
| OE3JTB-15 | 2026-09-03 00:07:05 | 45.52827 | 16.41124 | 102° | 46km/h | 14880m | 4.5m/s | -55.7°C | 4.8% | 0hPa | 2.6V | 00:00:00 | 00:00:00 | 08:30:00 | |
| 9A1FER-10 | 2026-09-03 00:07:00 | 45.52841 | 16.41046 | 110° | 46km/h | 14857m | 4.1m/s | -55.5°C | 4.7% | 0hPa | 2.7V | 00:00:00 | 01:02:38 | 00:00:00 | |
| 9A1FER-3 | 2026-09-03 00:06:51 | 45.52877 | 16.40902 | 113° | 46km/h | 14814m | 3.7m/s | -55.3°C | 4.7% | 0hPa | 2.7V | 00:00:00 | 01:02:29 | 00:00:00 | |
| 9A1FER-10 | 2026-09-03 00:06:45 | 45.52903 | 16.40814 | 112° | 46km/h | 14786m | 4.9m/s | -55.6°C | 4.7% | 0hPa | 2.7V | 00:00:00 | 01:02:23 | 08:30:00 | |
| OE3JTB-15 | 2026-09-03 00:06:36 | 45.52947 | 16.40682 | 121° | 55km/h | 14747m | 4.2m/s | -55.9°C | 4.7% | 0hPa | 2.6V | 00:00:00 | 00:00:00 | 00:00:00 | |
| 9A1FER-10 | 2026-09-03 00:06:30 | 45.52988 | 16.40595 | 127° | 53km/h | 14720m | 3.9m/s | -56.2°C | 4.9% | 0hPa | 2.6V | 00:00:00 | 01:02:08 | 00:00:00 | |
| 9A1FER-3 | 2026-09-03 00:06:21 | 45.53053 | 16.40457 | 127° | 60km/h | 14681m | 4.1m/s | -56.5°C | 4.9% | 0hPa | 2.6V | 00:00:00 | 01:01:59 | 00:00:00 | |
| 9A1FER-10 | 2026-09-03 00:06:15 | 45.53103 | 16.40358 | 123° | 64km/h | 14654m | 3.8m/s | -56.5°C | 4.9% | 0hPa | 2.6V | 00:00:00 | 01:01:53 | 00:00:00 | |
| OE3JTB-15 | 2026-09-03 00:06:07 | 45.53176 | 16.40209 | 131° | 64km/h | 14621m | 3.4m/s | -56.7°C | 5.1% | 0hPa | 2.6V | 00:00:00 | 01:01:45 | 00:00:00 | |
| 9A1FER-3 | 2026-09-03 00:06:06 | 45.53186 | 16.40192 | 130° | 68km/h | 14617m | 4.4m/s | -56.7°C | 5.1% | 0hPa | 2.6V | 00:00:00 | 01:01:44 | 00:00:00 | |
| 9A1FER-10 | 2026-09-03 00:06:00 | 45.53245 | 16.40075 | 124° | 66km/h | 14591m | 3.6m/s | -56.8°C | 5.1% | 0hPa | 2.6V | 00:00:00 | 01:01:38 | 00:00:00 | |
| 9A1FER-3 | 2026-09-03 00:05:51 | 45.53330 | 16.39895 | 123° | 62km/h | 14552m | 4.7m/s | -56.6°C | 5.0% | 0hPa | 2.6V | 00:00:00 | 01:01:29 | 00:00:00 | |
| 9A1FER-10 | 2026-09-03 00:05:45 | 45.53384 | 16.39776 | 125° | 60km/h | 14525m | 3.4m/s | -56.6°C | 5.2% | 0hPa | 2.6V | 00:00:00 | 01:01:23 | 00:00:00 | |
| OE3JTB-15 | 2026-09-03 00:05:38 | 45.53441 | 16.39649 | 124° | 53km/h | 14496m | 4.8m/s | -56.5°C | 5.0% | 0hPa | 2.6V | 00:00:00 | 00:00:00 | 00:00:00 | |
| 9A1FER-3 | 2026-09-03 00:05:36 | 45.53457 | 16.39614 | 122° | 55km/h | 14487m | 4.5m/s | -56.5°C | 5.0% | 0hPa | 2.7V | 00:00:00 | 01:01:14 | 00:00:00 | |
| 9A1FER-10 | 2026-09-03 00:05:30 | 45.53502 | 16.39503 | 120° | 53km/h | 14460m | 4.3m/s | -56.5°C | 5.1% | 0hPa | 2.7V | 00:00:00 | 01:01:08 | 00:00:00 | |
| 9A1FER-3 | 2026-09-03 00:05:21 | 45.53564 | 16.39361 | 119° | 51km/h | 14419m | 4.1m/s | -56.3°C | 5.1% | 0hPa | 2.7V | 00:00:00 | 01:00:59 | 00:00:00 | |
| 9A1FER-10 | 2026-09-03 00:05:15 | 45.53601 | 16.39259 | 118° | 53km/h | 14393m | 4.8m/s | -56.2°C | 5.1% | 0hPa | 2.7V | 00:00:00 | 01:00:53 | 00:00:00 | |
| OE3JTB-15 | 2026-09-03 00:05:09 | 45.53641 | 16.39169 | 125° | 69km/h | 14367m | 5.2m/s | 0°C | 0% | 0hPa | 2.7V | 00:00:00 | 00:00:00 | 00:00:00 | |
| 9A1FER-3 | 2026-09-03 00:05:06 | 45.53662 | 16.39120 | 121° | 55km/h | 14353m | 5.1m/s | -56.0°C | 5.1% | 0hPa | 2.7V | 00:00:00 | 01:00:44 | 00:00:00 | |
| 9A1FER-10 | 2026-09-03 00:05:00 | 45.53706 | 16.39019 | 125° | 57km/h | 14325m | 4.3m/s | -55.8°C | 5.0% | 0hPa | 2.6V | 00:00:00 | 01:00:38 | 00:00:00 | |
| 9A1FER-3 | 2026-09-03 00:04:51 | 45.53780 | 16.38872 | 124° | 58km/h | 14283m | 4.6m/s | -55.6°C | 4.9% | 0hPa | 2.6V | 00:00:00 | 01:00:29 | 00:00:00 | |
| 9A1FER-10 | 2026-09-03 00:04:46 | 45.53827 | 16.38769 | 125° | 62km/h | 14255m | 3.2m/s | -55.6°C | 5.0% | 0hPa | 2.6V | 00:00:00 | 01:00:23 | 00:00:00 | |
| 9A1FER-3 | 2026-09-03 00:04:36 | 45.53912 | 16.38613 | 127° | 62km/h | 14213m | 5.7m/s | -55.7°C | 5.1% | 0hPa | 2.6V | 00:00:00 | 01:00:14 | 00:00:00 | |
| 9A1FER-10 | 2026-09-03 00:04:31 | 45.53964 | 16.38501 | 123° | 62km/h | 14185m | 4.1m/s | -55.7°C | 5.1% | 0hPa | 2.6V | 00:00:00 | 01:00:08 | 08:30:00 | |
| PETON7-10 | 2026-09-03 00:04:24 | 45.54021 | 16.38396 | 133° | 64km/h | 14157m | 5.6m/s | 0°C | 0% | 0hPa | 2.6V | 00:00:00 | 00:00:00 | 00:00:00 | |
| 9A1FER-3 | 2026-09-03 00:04:21 | 45.54054 | 16.38345 | 131° | 66km/h | 14144m | 4.9m/s | -55.6°C | 5.1% | 0hPa | 2.6V | 00:00:00 | 00:59:59 | 08:30:00 | |
| 9A1FER-10 | 2026-09-03 00:04:16 | 45.54112 | 16.38236 | 128° | 69km/h | 14114m | 5.1m/s | -55.5°C | 5.2% | 0hPa | 2.6V | 00:00:00 | 00:59:53 | 00:00:00 | |
| 9A1FER-3 | 2026-09-03 00:04:07 | 45.54210 | 16.38062 | 128° | 71km/h | 14069m | 5.7m/s | -55.4°C | 5.2% | 0hPa | 2.6V | 00:00:00 | 00:59:44 | 00:00:00 | |
| 9A1FER-10 | 2026-09-03 00:04:00 | 45.54277 | 16.37940 | 130° | 73km/h | 14038m | 5.0m/s | -55.5°C | 5.2% | 0hPa | 2.6V | 00:00:00 | 00:59:38 | 00:00:00 | |
| 9A1FER-3 | 2026-09-03 00:03:51 | 45.54375 | 16.37754 | 126° | 75km/h | 13992m | 5.6m/s | -55.8°C | 5.4% | 0hPa | 2.6V | 00:00:00 | 00:59:29 | 00:00:00 | |
| 9A1FER-10 | 2026-09-03 00:03:45 | 45.54445 | 16.37626 | 130° | 71km/h | 13962m | 5.4m/s | -56.0°C | 5.5% | 0hPa | 2.6V | 00:00:00 | 00:59:23 | 00:00:00 | |
| 9A1FER-3 | 2026-09-03 00:03:38 | 45.54543 | 16.37432 | 124° | 69km/h | 13920m | 4.0m/s | -55.8°C | 5.5% | 0hPa | 2.6V | 00:00:00 | 00:59:14 | 00:00:00 | |
| 9A1FER-10 | 2026-09-03 00:03:30 | 45.54602 | 16.37310 | 125° | 71km/h | 13892m | 3.7m/s | -55.6°C | 5.5% | 0hPa | 2.7V | 00:00:00 | 00:59:08 | 00:00:00 | |
| 9A1FER-3 | 2026-09-03 00:03:22 | 45.54695 | 16.37121 | 127° | 75km/h | 13848m | 5.3m/s | -55.6°C | 5.5% | 0hPa | 2.7V | 00:00:00 | 00:58:59 | 00:00:00 | |
| 9A1FER-10 | 2026-09-03 00:03:16 | 45.54762 | 16.36994 | 127° | 77km/h | 13818m | 5.0m/s | -55.5°C | 5.6% | 0hPa | 2.7V | 00:00:00 | 00:58:53 | 00:00:00 | |
| OE3JTB-15 | 2026-09-03 00:03:08 | 45.54840 | 16.36835 | 124° | 77km/h | 13785m | 4.9m/s | 0°C | 0% | 0hPa | 2.7V | 00:00:00 | 00:58:46 | 00:00:00 | |
| 9A1FER-3 | 2026-09-03 00:03:06 | 45.54861 | 16.36787 | 123° | 77km/h | 13775m | 4.1m/s | -55.3°C | 5.4% | 0hPa | 2.7V | 00:00:00 | 00:58:44 | 00:00:00 | |
| 9A1FER-10 | 2026-09-03 00:02:59 | 45.55209 | 16.35963 | 119° | 77km/h | 13613m | 4.8m/s | -55.1°C | 5.7% | 0hPa | 2.7V | 00:00:00 | 00:58:08 | 00:00:00 | |
| 9A1FER-3 | 2026-09-03 00:02:46 | 45.55284 | 16.35741 | 114° | 78km/h | 13572m | 5.9m/s | -55.1°C | 5.9% | 0hPa | 2.7V | 00:00:00 | 00:57:59 | 00:00:00 | |
| 9A1FER-10 | 2026-09-03 00:02:38 | 45.55332 | 16.35583 | 113° | 75km/h | 13544m | 5.3m/s | -55.0°C | 5.9% | 0hPa | 2.7V | 00:00:00 | 00:57:53 | 08:30:00 | |
| 9A1FER-3 | 2026-09-03 00:02:27 | 45.55399 | 16.35355 | 115° | 73km/h | 13506m | 5.3m/s | !°C | 5.8% | 0hPa | 2.6V | 00:00:00 | 00:57:44 | 08:30:00 | |
| 9A1FER-10 | 2026-09-03 00:02:18 | 45.55444 | 16.35210 | 113° | 71km/h | 13479m | 4.7m/s | -54.7°C | 5.7% | 0hPa | 2.6V | 00:00:00 | 00:57:38 | 00:00:00 | |
| 9A1FER-3 | 2026-09-03 00:02:06 | 45.55520 | 16.35002 | 120° | 69km/h | 13440m | 4.3m/s | -54.4°C | 5.7% | 0hPa | 2.6V | 00:00:00 | 00:57:29 | 00:00:00 | |
| 9A1FER-10 | 2026-09-03 00:01:58 | 45.55569 | 16.34874 | 120° | 69km/h | 13415m | 3.5m/s | -54.2°C | 5.6% | 0hPa | 2.6V | 00:00:00 | 00:57:23 | 00:00:00 | |
| 9A1FER-3 | 2026-09-03 00:01:48 | 45.55652 | 16.34683 | 125° | 66km/h | 13374m | 3.8m/s | -54.0°C | 5.5% | 0hPa | 2.6V | 00:00:00 | 00:57:14 | 00:00:00 | |
| 9A1FER-10 | 2026-09-03 00:01:42 | 45.55703 | 16.34557 | 119° | 64km/h | 13347m | 5.9m/s | -54.1°C | 5.5% | 0hPa | 2.6V | 00:00:00 | 00:57:08 | 00:00:00 | |
| 9A1FER-3 | 2026-09-03 00:01:33 | 45.55788 | 16.34390 | 127° | 60km/h | 13307m | 4.0m/s | -54.0°C | 5.9% | 0hPa | 2.6V | 00:00:00 | 00:56:59 | 00:00:00 | |
| 9A1FER-3 | 2026-09-03 00:01:11 | 45.55918 | 16.34130 | 134° | 71km/h | 13235m | 6.2m/s | -53.4°C | 5.6% | 0hPa | 2.7V | 00:00:00 | 00:56:44 | 00:00:00 | |
| OE3JTB-15 | 2026-09-03 00:00:56 | 45.56008 | 16.33929 | 127° | 104km/h | 13175m | 8.3m/s | 0°C | 0% | 0hPa | 2.7V | 00:00:00 | 00:00:00 | 00:00:00 | |
| 9A1FER-10 | 2026-09-03 00:00:53 | 45.56050 | 16.33864 | 137° | 80km/h | 13151m | 7.9m/s | -52.9°C | 5.5% | 0hPa | 2.7V | 00:00:00 | 00:56:31 | 00:00:00 | |
| 9A1FER-3 | 2026-09-03 00:00:51 | 45.56080 | 16.33822 | 135° | 80km/h | 13136m | 6.4m/s | -53.3°C | 5.7% | 0hPa | 2.7V | 00:00:00 | 00:56:29 | 00:00:00 | |
| 9A1FER-10 | 2026-09-03 00:00:45 | 45.56256 | 16.33546 | 131° | 78km/h | 13064m | 4.0m/s | -52.9°C | 5.6% | 0hPa | 2.7V | 00:00:00 | 00:56:16 | 00:00:00 | |
| 9A1FER-3 | 2026-09-03 00:00:43 | 45.56284 | 16.33502 | 133° | 78km/h | 13055m | 4.1m/s | -52.8°C | 5.6% | 0hPa | 2.7V | 00:00:00 | 00:56:14 | 00:00:00 | |
| 9A1FER-10 | 2026-09-03 00:00:26 | 45.56455 | 16.33226 | 131° | 80km/h | 12995m | 3.8m/s | -52.9°C | 6.0% | 0hPa | 2.6V | 00:00:00 | 00:56:01 | 00:00:00 | |
| 9A1FER-3 | 2026-09-03 00:00:24 | 45.56480 | 16.33182 | 128° | 80km/h | 12985m | 4.2m/s | -52.9°C | 6.1% | 0hPa | 2.6V | 00:00:00 | 00:55:59 | 00:00:00 | |
| 9A1FER-3 | 2026-09-03 00:00:08 | 45.56658 | 16.32831 | 124° | 77km/h | 12918m | 4.4m/s | -53.3°C | 6.5% | 0hPa | 2.6V | 00:00:00 | 00:55:44 | 00:00:00 | |
| 9A1FER-10 | 2026-09-02 23:59:53 | 45.56815 | 16.32554 | 129° | 77km/h | 12859m | 3.2m/s | -53.3°C | 7.0% | 0hPa | 2.6V | 00:00:00 | 00:55:31 | 08:30:00 | |
| 9A1FER-3 | 2026-09-02 23:59:51 | 45.56838 | 16.32512 | 130° | 77km/h | 12850m | 3.8m/s | -53.2°C | 7.0% | 0hPa | 2.6V | 00:00:00 | 00:55:29 | 08:30:00 | |
| 9A1FER-10 | 2026-09-02 23:59:38 | 45.57018 | 16.32260 | 139° | 89km/h | 12786m | 5.1m/s | -53.3°C | 7.4% | 0hPa | 2.7V | 00:00:00 | 00:55:16 | 00:00:00 | |
| 9A1FER-3 | 2026-09-02 23:59:36 | 45.57051 | 16.32219 | 138° | 89km/h | 12777m | 6.4m/s | -53.3°C | 7.4% | 0hPa | 2.7V | 00:00:00 | 00:55:14 | 00:00:00 | |
| 9A1FER-10 | 2026-09-02 23:59:23 | 45.57282 | 16.31961 | 147° | 89km/h | 12715m | 4.5m/s | -53.4°C | 7.9% | 0hPa | 2.7V | 00:00:00 | 00:55:01 | 00:00:00 | |
| 9A1FER-3 | 2026-09-02 23:59:21 | 45.57320 | 16.31924 | 146° | 88km/h | 12707m | 4.4m/s | -53.4°C | 7.8% | 0hPa | 2.7V | 00:00:00 | 00:54:59 | 00:00:00 | |
| 9A1FER-10 | 2026-09-02 23:59:08 | 45.57560 | 16.31693 | 148° | 91km/h | 12650m | 3.7m/s | -53.0°C | 8.1% | 0hPa | 2.7V | 00:00:00 | 00:54:46 | 00:00:00 | |
| 9A1FER-3 | 2026-09-02 23:59:06 | 45.57598 | 16.31659 | 148° | 91km/h | 12639m | 6.3m/s | -52.9°C | 8.1% | 0hPa | 2.7V | 00:00:00 | 00:54:44 | 00:00:00 | |
| 9A1FER-10 | 2026-09-02 23:58:53 | 45.57853 | 16.31432 | 148° | 97km/h | 12573m | 3.9m/s | -52.4°C | 8.0% | 0hPa | 2.6V | 00:00:00 | 00:54:31 | 00:00:00 | |
| 9A1FER-3 | 2026-09-02 23:58:51 | 45.57892 | 16.31397 | 148° | 97km/h | 12563m | 3.6m/s | -52.3°C | 8.1% | 0hPa | 2.6V | 00:00:00 | 00:54:29 | 00:00:00 | |
| 9A1FER-10 | 2026-09-02 23:58:38 | 45.58164 | 16.31162 | 146° | 102km/h | 12497m | 4.3m/s | -52.1°C | 8.5% | 0hPa | 2.6V | 00:00:00 | 00:54:16 | 00:00:00 | |
| 9A1FER-3 | 2026-09-02 23:58:36 | 45.58205 | 16.31122 | 148° | 102km/h | 12487m | 4.6m/s | -52.1°C | 8.7% | 0hPa | 2.6V | 00:00:00 | 00:54:14 | 00:00:00 | |
| 9A1FER-10 | 2026-09-02 23:58:23 | 45.58488 | 16.30857 | 145° | 111km/h | 12423m | 3.4m/s | -52.2°C | 10.0% | 0hPa | 2.6V | 00:00:00 | 00:54:01 | 00:00:00 | |
| 9A1FER-3 | 2026-09-02 23:58:21 | 45.58531 | 16.30814 | 146° | 113km/h | 12413m | 5.0m/s | -52.3°C | 10.3% | 0hPa | 2.7V | 00:00:00 | 00:53:59 | 00:00:00 | |
| 9A1FER-10 | 2026-09-02 23:58:08 | 45.58831 | 16.30508 | 143° | 119km/h | 12347m | 5.9m/s | -52.6°C | 12.0% | 0hPa | 2.7V | 00:00:00 | 00:53:46 | 00:00:00 | |
| 9A1FER-3 | 2026-09-02 23:58:06 | 45.58879 | 16.30455 | 142° | 119km/h | 12337m | 5.3m/s | -52.6°C | 12.4% | 0hPa | 2.7V | 00:00:00 | 00:53:44 | 00:00:00 | |
| 9A1FER-10 | 2026-09-02 23:57:53 | 45.59185 | 16.30114 | 143° | 119km/h | 12277m | 5.3m/s | -53.6°C | 16.2% | 0hPa | 2.7V | 00:00:00 | 00:53:31 | 00:00:00 | |
| 9A1FER-3 | 2026-09-02 23:57:51 | 45.59232 | 16.30063 | 143° | 120km/h | 12267m | 5.3m/s | -54.1°C | 16.9% | 0hPa | 2.7V | 00:00:00 | 00:53:29 | 00:00:00 | |
| 9A1FER-10 | 2026-09-02 23:57:38 | 45.59528 | 16.29693 | 136° | 126km/h | 12205m | 5.8m/s | -54.7°C | 18.5% | 0hPa | 2.7V | 00:00:00 | 00:53:16 | 08:30:00 | |
| 9A1FER-3 | 2026-09-02 23:57:36 | 45.59575 | 16.29628 | 136° | 126km/h | 12197m | 4.6m/s | -54.7°C | 18.6% | 0hPa | 2.7V | 00:00:00 | 00:53:14 | 08:30:00 | |
| OE3JTB-15 | 2026-09-02 23:57:24 | 45.59843 | 16.29240 | 136° | 122km/h | 12143m | 3.1m/s | 0°C | 0% | 0hPa | 2.7V | 00:00:00 | 00:53:02 | 00:00:00 | |
| 9A1FER-10 | 2026-09-02 23:57:23 | 45.59866 | 16.29208 | 136° | 124km/h | 12138m | 6.2m/s | -55.3°C | 20.6% | 0hPa | 2.7V | 00:00:00 | 00:53:01 | 00:00:00 | |
| 9A1FER-3 | 2026-09-02 23:57:21 | 45.59912 | 16.29147 | 138° | 124km/h | 12129m | 5.5m/s | -55.3°C | 20.7% | 0hPa | 2.7V | 00:00:00 | 00:52:59 | 00:00:00 | |
| 9A1FER-10 | 2026-09-02 23:57:08 | 45.60210 | 16.28751 | 135° | 122km/h | 12070m | 3.4m/s | -55.0°C | 21.1% | 0hPa | 2.7V | 00:00:00 | 00:52:46 | 00:00:00 | |
| 9A1FER-3 | 2026-09-02 23:57:06 | 45.60253 | 16.28689 | 135° | 122km/h | 12061m | 4.5m/s | -55.0°C | 21.0% | 0hPa | 2.7V | 00:00:00 | 00:52:44 | 00:00:00 | |
| OE3JTB-15 | 2026-09-02 23:56:55 | 45.60492 | 16.28353 | 137° | 124km/h | 12014m | 5.0m/s | 0°C | 0% | 0hPa | 2.7V | 00:00:00 | 00:00:00 | 00:00:00 | |
| 9A1FER-10 | 2026-09-02 23:56:53 | 45.60539 | 16.28291 | 138° | 120km/h | 12006m | 5.1m/s | -54.7°C | 20.7% | 0hPa | 2.7V | 00:00:00 | 00:52:31 | 00:00:00 | |
| 9A1FER-3 | 2026-09-02 23:56:51 | 45.60585 | 16.28231 | 138° | 120km/h | 11996m | 5.6m/s | -54.7°C | 20.6% | 0hPa | 2.7V | 00:00:00 | 00:52:29 | 00:00:00 | |
| 9A1FER-10 | 2026-09-02 23:56:38 | 45.60882 | 16.27859 | 142° | 119km/h | 11941m | 3.5m/s | -54.5°C | 21.5% | 0hPa | 2.7V | 00:00:00 | 00:52:16 | 00:00:00 | |
| 9A1FER-3 | 2026-09-02 23:56:36 | 45.60930 | 16.27803 | 140° | 117km/h | 11934m | 4.3m/s | -54.5°C | 21.6% | 0hPa | 2.7V | 00:00:00 | 00:52:14 | 00:00:00 | |
| 9A1FER-10 | 2026-09-02 23:56:23 | 45.61224 | 16.27451 | 140° | 113km/h | 11878m | 5.8m/s | -54.8°C | 23.7% | 0hPa | 2.7V | 00:00:00 | 00:52:01 | 00:00:00 | |
| 9A1FER-3 | 2026-09-02 23:56:21 | 45.61269 | 16.27398 | 142° | 113km/h | 11868m | 4.2m/s | -54.7°C | 24.0% | 0hPa | 2.7V | 00:00:00 | 00:51:59 | 00:00:00 | |
| 9A1FER-10 | 2026-09-02 23:56:08 | 45.61573 | 16.27090 | 145° | 115km/h | 11810m | 3.1m/s | -55.1°C | 27.2% | 0hPa | 2.7V | 00:00:00 | 00:51:46 | 00:00:00 | |
| 9A1FER-3 | 2026-09-02 23:56:06 | 45.61620 | 16.27042 | 145° | 115km/h | 11802m | 5.1m/s | -55.1°C | 27.4% | 0hPa | 2.7V | 00:00:00 | 00:51:44 | 00:00:00 | |
| 9A1FER-10 | 2026-09-02 23:55:53 | 45.61937 | 16.26751 | 148° | 120km/h | 11747m | 5.1m/s | -54.9°C | 29.7% | 0hPa | 2.7V | 00:00:00 | 00:51:31 | 00:00:00 | |
| 9A1FER-3 | 2026-09-02 23:55:51 | 45.61987 | 16.26706 | 149° | 120km/h | 11737m | 4.3m/s | -54.8°C | 30.4% | 0hPa | 2.7V | 00:00:00 | 00:51:29 | 00:00:00 | |
| 9A1FER-10 | 2026-09-02 23:55:38 | 45.62336 | 16.26438 | 151° | 126km/h | 11679m | 5.1m/s | -54.5°C | 30.7% | 0hPa | 2.7V | 00:00:00 | 00:51:16 | 00:00:00 | |
| 9A1FER-3 | 2026-09-02 23:55:36 | 45.62390 | 16.26395 | 152° | 126km/h | 11670m | 4.9m/s | -54.4°C | 30.8% | 0hPa | 2.7V | 00:00:00 | 00:51:14 | 00:00:00 | |
| 9A1FER-10 | 2026-09-02 23:55:23 | 45.62764 | 16.26133 | 153° | 130km/h | 11613m | 4.0m/s | -54.3°C | 33.9% | 0hPa | 2.7V | 00:00:00 | 00:51:01 | 08:30:00 | |
| 9A1FER-3 | 2026-09-02 23:55:21 | 45.62822 | 16.26092 | 154° | 130km/h | 11603m | 6.6m/s | -54.2°C | 32.4% | 0hPa | 2.7V | 00:00:00 | 00:50:59 | 08:30:00 | |
| 9A1FER-10 | 2026-09-02 23:55:08 | 45.63204 | 16.25825 | 156° | 130km/h | 11532m | 4.9m/s | -53.6°C | 31.7% | 0hPa | 2.7V | 00:00:00 | 00:50:46 | 00:00:00 | |
| 9A1FER-3 | 2026-09-02 23:55:06 | 45.63264 | 16.25784 | 154° | 130km/h | 11523m | 4.4m/s | -53.5°C | 31.8% | 0hPa | 2.7V | 00:00:00 | 00:50:44 | 00:00:00 | |
| 9A1FER-10 | 2026-09-02 23:54:53 | 45.63647 | 16.25512 | 155° | 130km/h | 11462m | 4.6m/s | -53.3°C | 35.0% | 0hPa | 2.7V | 00:00:00 | 00:50:31 | 00:00:00 | |
| 9A1FER-3 | 2026-09-02 23:54:51 | 45.63706 | 16.25473 | 156° | 130km/h | 11453m | 5.2m/s | -53.3°C | 36.1% | 0hPa | 2.7V | 00:00:00 | 00:50:29 | 00:00:00 | |
| 9A1FER-10 | 2026-09-02 23:54:38 | 45.64093 | 16.25212 | 157° | 133km/h | 11402m | 4.1m/s | -53.2°C | 40.5% | 0hPa | 2.7V | 00:00:00 | 00:50:16 | 00:00:00 | |
| 9A1FER-3 | 2026-09-02 23:54:36 | 45.64154 | 16.25174 | 157° | 133km/h | 11393m | 5.5m/s | -53.2°C | 41.0% | 0hPa | 2.7V | 00:00:00 | 00:50:14 | 00:00:00 | |
| 9A1FER-10 | 2026-09-02 23:54:23 | 45.64554 | 16.24916 | 155° | 135km/h | 11339m | 3.4m/s | -53.0°C | 40.6% | 0hPa | 2.7V | 00:00:00 | 00:50:01 | 00:00:00 | |
| 9A1FER-3 | 2026-09-02 23:54:21 | 45.64615 | 16.24876 | 156° | 135km/h | 11331m | 3.7m/s | -52.9°C | 40.1% | 0hPa | 2.7V | 00:00:00 | 00:49:59 | 00:00:00 | |
| 9A1FER-10 | 2026-09-02 23:54:08 | 45.65016 | 16.24599 | 155° | 135km/h | 11277m | 3.2m/s | -52.5°C | 39.3% | 0hPa | 2.7V | 00:00:00 | 00:49:46 | 00:00:00 | |
| 9A1FER-3 | 2026-09-02 23:54:06 | 45.65075 | 16.24558 | 154° | 135km/h | 11268m | 3.4m/s | -52.4°C | 39.4% | 0hPa | 2.7V | 00:00:00 | 00:49:44 | 00:00:00 | |
| 9A1FER-10 | 2026-09-02 23:53:53 | 45.65474 | 16.24274 | 152° | 137km/h | 11213m | 3.3m/s | -52.0°C | 39.6% | 0hPa | 2.7V | 00:00:00 | 00:49:31 | 00:00:00 | |
| 9A1FER-3 | 2026-09-02 23:53:51 | 45.65534 | 16.24230 | 154° | 137km/h | 11204m | 3.5m/s | -51.9°C | 40.1% | 0hPa | 2.7V | 00:00:00 | 00:49:29 | 00:00:00 | |
| 9A1FER-10 | 2026-09-02 23:53:38 | 45.65938 | 16.23948 | 156° | 135km/h | 11148m | 3.4m/s | -51.6°C | 40.8% | 0hPa | 2.7V | 00:00:00 | 00:49:16 | 00:00:00 | |
| 9A1FER-3 | 2026-09-02 23:53:36 | 45.66001 | 16.23906 | 155° | 135km/h | 11140m | 3.2m/s | -51.5°C | 40.6% | 0hPa | 2.7V | 00:00:00 | 00:49:14 | 00:00:00 | |
| 9A1FER-10 | 2026-09-02 23:53:23 | 45.66401 | 16.23628 | 156° | 137km/h | 11084m | 4.3m/s | -51.0°C | 39.0% | 0hPa | 2.7V | 00:00:00 | 00:49:01 | 00:00:00 | |
| 9A1FER-3 | 2026-09-02 23:53:21 | 45.66463 | 16.23587 | 155° | 137km/h | 11075m | 4.5m/s | -50.9°C | 38.9% | 0hPa | 2.7V | 00:00:00 | 00:48:59 | 00:00:00 | |
| 9A1FER-10 | 2026-09-02 23:53:08 | 45.66867 | 16.23307 | 154° | 137km/h | 11017m | 4.3m/s | -50.5°C | 36.1% | 0hPa | 2.7V | 00:00:00 | 00:48:46 | 08:30:00 | |
| 9A1FER-3 | 2026-09-02 23:53:06 | 45.66930 | 16.23263 | 155° | 137km/h | 11009m | 4.9m/s | -50.4°C | 35.6% | 0hPa | 2.7V | 00:00:00 | 00:48:44 | 08:30:00 | |
| 9A1FER-10 | 2026-09-02 23:52:53 | 45.67334 | 16.22979 | 154° | 139km/h | 10952m | 5.4m/s | -50.0°C | 33.9% | 0hPa | 2.7V | 00:00:00 | 00:48:31 | 00:00:00 | |
| 9A1FER-3 | 2026-09-02 23:52:51 | 45.67397 | 16.22934 | 154° | 139km/h | 10944m | 3.2m/s | -49.9°C | 33.7% | 0hPa | 2.7V | 00:00:00 | 00:48:29 | 00:00:00 | |
| 9A1FER-10 | 2026-09-02 23:52:38 | 45.67807 | 16.22659 | 155° | 139km/h | 10877m | 7.4m/s | -49.3°C | 29.2% | 0hPa | 2.7V | 00:00:00 | 00:48:16 | 00:00:00 | |
| 9A1FER-3 | 2026-09-02 23:52:36 | 45.67871 | 16.22615 | 155° | 139km/h | 10866m | 4.9m/s | -49.2°C | 28.9% | 0hPa | 2.7V | 00:00:00 | 00:48:14 | 00:00:00 | |
| 9A1FER-10 | 2026-09-02 23:52:23 | 45.68281 | 16.22332 | 155° | 137km/h | 10800m | 4.2m/s | -48.8°C | 24.8% | 0hPa | 2.7V | 00:00:00 | 00:48:01 | 00:00:00 | |
| 9A1FER-3 | 2026-09-02 23:52:21 | 45.68345 | 16.22289 | 155° | 137km/h | 10791m | 3.7m/s | -48.7°C | 24.0% | 0hPa | 2.7V | 00:00:00 | 00:47:59 | 00:00:00 | |
| 9A1FER-10 | 2026-09-02 23:52:08 | 45.68751 | 16.22006 | 153° | 137km/h | 10732m | 3.8m/s | -48.6°C | 23.5% | 0hPa | 2.7V | 00:00:00 | 00:47:46 | 00:00:00 | |
| 9A1FER-3 | 2026-09-02 23:52:06 | 45.68814 | 16.21960 | 153° | 135km/h | 10723m | 3.3m/s | -48.6°C | 23.7% | 0hPa | 2.7V | 00:00:00 | 00:47:44 | 00:00:00 | |
| 9A1FER-10 | 2026-09-02 23:51:53 | 45.69205 | 16.21659 | 150° | 128km/h | 10663m | 4.0m/s | -48.6°C | 24.1% | 0hPa | 2.7V | 00:00:00 | 00:47:31 | 00:00:00 | |
| 9A1FER-3 | 2026-09-02 23:51:51 | 45.69261 | 16.21612 | 150° | 128km/h | 10654m | 6.9m/s | -48.6°C | 24.0% | 0hPa | 2.7V | 00:00:00 | 00:47:29 | 00:00:00 | |
| 9A1FER-10 | 2026-09-02 23:51:38 | 45.69624 | 16.21314 | 151° | 124km/h | 10583m | 4.2m/s | -48.3°C | 25.2% | 0hPa | 2.7V | 00:00:00 | 00:47:16 | 00:00:00 | |
| 9A1FER-3 | 2026-09-02 23:51:36 | 45.69679 | 16.21271 | 152° | 124km/h | 10571m | 5.9m/s | -48.2°C | 25.8% | 0hPa | 2.7V | 00:00:00 | 00:47:14 | 00:00:00 | |
| 9A1FER-10 | 2026-09-02 23:51:23 | 45.70034 | 16.20980 | 151° | 126km/h | 10508m | 4.5m/s | -48.1°C | 40.5% | 0hPa | 2.7V | 00:00:00 | 00:47:01 | 00:00:00 | |
| 9A1FER-3 | 2026-09-02 23:51:21 | 45.70088 | 16.20934 | 149° | 126km/h | 10499m | 4.2m/s | -48.1°C | 41.6% | 0hPa | 2.7V | 00:00:00 | 00:46:59 | 00:00:00 | |
| 9A1FER-10 | 2026-09-02 23:51:08 | 45.70440 | 16.20613 | 150° | 122km/h | 10429m | 7.6m/s | -47.9°C | 51.6% | 0hPa | 2.7V | 00:00:00 | 00:46:46 | 00:00:00 | |
| 9A1FER-3 | 2026-09-02 23:51:06 | 45.70495 | 16.20567 | 151° | 122km/h | 10418m | 3.9m/s | -47.8°C | 51.9% | 0hPa | 2.7V | 00:00:00 | 00:46:44 | 00:00:00 | |
| 9A1FER-10 | 2026-09-02 23:50:53 | 45.70838 | 16.20265 | 145° | 122km/h | 10349m | 3.1m/s | -47.3°C | 53.3% | 0hPa | 2.7V | 00:00:00 | 00:46:31 | 08:30:00 | |
| 9A1FER-3 | 2026-09-02 23:50:51 | 45.70888 | 16.20213 | 144° | 120km/h | 10339m | 5.3m/s | -47.3°C | 54.4% | 0hPa | 2.7V | 00:00:00 | 00:46:29 | 08:30:00 | |
| 9A1FER-10 | 2026-09-02 23:50:38 | 45.71224 | 16.19902 | 146° | 115km/h | 10280m | 4.5m/s | -46.8°C | 48.1% | 0hPa | 2.7V | 00:00:00 | 00:46:16 | 00:00:00 | |
| 9A1FER-3 | 2026-09-02 23:50:36 | 45.71273 | 16.19853 | 145° | 115km/h | 10271m | 3.4m/s | -46.8°C | 47.7% | 0hPa | 2.7V | 00:00:00 | 00:46:14 | 00:00:00 | |
| 9A1FER-10 | 2026-09-02 23:50:23 | 45.71587 | 16.19560 | 149° | 113km/h | 10209m | 4.2m/s | -46.3°C | 44.0% | 0hPa | 2.7V | 00:00:00 | 00:46:01 | 00:00:00 | |
| 9A1FER-3 | 2026-09-02 23:50:21 | 45.71636 | 16.19516 | 149° | 111km/h | 10200m | 4.4m/s | -46.2°C | 43.2% | 0hPa | 2.7V | 00:00:00 | 00:45:59 | 00:00:00 | |
| 9A1FER-10 | 2026-09-02 23:50:08 | 45.71946 | 16.19230 | 151° | 104km/h | 10135m | 6.7m/s | -45.7°C | 41.0% | 0hPa | 2.7V | 00:00:00 | 00:45:46 | 00:00:00 | |
| 9A1FER-3 | 2026-09-02 23:50:06 | 45.71991 | 16.19192 | 149° | 104km/h | 10124m | 5.5m/s | -45.6°C | 42.1% | 0hPa | 2.7V | 00:00:00 | 00:45:44 | 00:00:00 | |
| 9A1FER-10 | 2026-09-02 23:49:53 | 45.72281 | 16.18927 | 147° | 102km/h | 10062m | 3.8m/s | -45.1°C | 39.7% | 0hPa | 2.7V | 00:00:00 | 00:45:31 | 00:00:00 | |
| 9A1FER-3 | 2026-09-02 23:49:51 | 45.72326 | 16.18884 | 148° | 100km/h | 10054m | 5.4m/s | -45.1°C | 39.0% | 0hPa | 2.7V | 00:00:00 | 00:45:29 | 00:00:00 | |
| 9A1FER-10 | 2026-09-02 23:49:38 | 45.72609 | 16.18634 | 148° | 97km/h | 9996m | 3.4m/s | -44.7°C | 38.3% | 0hPa | 2.7V | 00:00:00 | 00:45:16 | 00:00:00 | |
| 9A1FER-3 | 2026-09-02 23:49:36 | 45.72652 | 16.18596 | 149° | 97km/h | 9987m | 3.9m/s | -44.6°C | 38.3% | 0hPa | 2.7V | 00:00:00 | 00:45:14 | 00:00:00 | |
| 9A1FER-3 | 2026-09-02 23:49:21 | 45.72960 | 16.18319 | 148° | 91km/h | 9922m | 3.8m/s | -44.1°C | 40.5% | 0hPa | 2.7V | 00:00:00 | 00:44:59 | 00:00:00 | |
| 9A1FER-10 | 2026-09-02 23:49:08 | 45.73213 | 16.18082 | 147° | 91km/h | 9869m | 4.5m/s | -43.7°C | 41.1% | 0hPa | 2.7V | 00:00:00 | 00:44:46 | 00:00:00 | |
| 9A1FER-3 | 2026-09-02 23:49:06 | 45.73252 | 16.18046 | 147° | 93km/h | 9860m | 4.4m/s | -43.6°C | 41.1% | 0hPa | 2.7V | 00:00:00 | 00:44:44 | 00:00:00 | |
| 9A1FER-10 | 2026-09-02 23:48:53 | 45.73497 | 16.17792 | 140° | 93km/h | 9807m | 4.2m/s | -43.1°C | 45.4% | 0hPa | 2.7V | 00:00:00 | 00:44:31 | 00:00:00 | |
| 9A1FER-3 | 2026-09-02 23:48:51 | 45.73534 | 16.17750 | 142° | 93km/h | 9800m | 4.7m/s | -43.1°C | 45.0% | 0hPa | 2.7V | 00:00:00 | 00:44:29 | 00:00:00 | |
| 9A1FER-10 | 2026-09-02 23:48:38 | 45.73777 | 16.17491 | 143° | 91km/h | 9739m | 6.0m/s | -42.6°C | 50.5% | 0hPa | 2.7V | 00:00:00 | 00:44:16 | 08:30:00 | |
| 9A1FER-3 | 2026-09-02 23:48:36 | 45.73815 | 16.17451 | 145° | 91km/h | 9730m | 4.5m/s | -42.5°C | 51.5% | 0hPa | 2.7V | 00:00:00 | 00:44:14 | 08:30:00 | |
| 9A1FER-10 | 2026-09-02 23:48:23 | 45.74049 | 16.17184 | 141° | 91km/h | 9671m | 6.2m/s | -42.1°C | 55.7% | 0hPa | 2.7V | 00:00:00 | 00:44:01 | 00:00:00 | |
| 9A1FER-3 | 2026-09-02 23:48:21 | 45.74088 | 16.17139 | 143° | 88km/h | 9661m | 5.7m/s | -42.1°C | 55.9% | 0hPa | 2.7V | 00:00:00 | 00:43:59 | 00:00:00 | |
| 9A1FER-10 | 2026-09-02 23:48:08 | 45.74312 | 16.16874 | 135° | 84km/h | 9586m | 4.9m/s | -41.7°C | 60.1% | 0hPa | 2.7V | 00:00:00 | 00:43:46 | 00:00:00 | |
| 9A1FER-3 | 2026-09-02 23:48:06 | 45.74342 | 16.16831 | 135° | 84km/h | 9576m | 4.9m/s | -41.6°C | 60.1% | 0hPa | 2.7V | 00:00:00 | 00:43:44 | 00:00:00 | |
| 9A1FER-10 | 2026-09-02 23:47:53 | 45.74539 | 16.16559 | 137° | 77km/h | 9514m | 5.7m/s | -41.2°C | 62.4% | 0hPa | 2.7V | 00:00:00 | 00:43:31 | 00:00:00 | |
| 9A1FER-3 | 2026-09-02 23:47:51 | 45.74571 | 16.16519 | 141° | 75km/h | 9505m | 4.6m/s | -41.1°C | 62.4% | 0hPa | 2.7V | 00:00:00 | 00:43:29 | 00:00:00 | |
| 9A1FER-10 | 2026-09-02 23:47:38 | 45.74750 | 16.16272 | 135° | 73km/h | 9434m | 6.5m/s | -40.5°C | 61.6% | 0hPa | 2.7V | 00:00:00 | 00:43:16 | 00:00:00 | |
| 9A1FER-3 | 2026-09-02 23:47:36 | 45.74776 | 16.16233 | 134° | 73km/h | 9420m | 7.8m/s | -40.4°C | 61.4% | 0hPa | 2.7V | 00:00:00 | 00:43:14 | 00:00:00 | |
| 9A1FER-10 | 2026-09-02 23:47:23 | 45.74936 | 16.15985 | 138° | 73km/h | 9356m | 4.3m/s | -39.9°C | 62.7% | 0hPa | 2.7V | 00:00:00 | 00:43:01 | 00:00:00 | |
| 9A1FER-3 | 2026-09-02 23:47:21 | 45.74964 | 16.15948 | 136° | 73km/h | 9346m | 4.5m/s | -39.9°C | 63.8% | 0hPa | 2.7V | 00:00:00 | 00:42:59 | 00:00:00 | |
| 9A1FER-10 | 2026-09-02 23:47:08 | 45.75114 | 16.15687 | 130° | 75km/h | 9285m | 3.2m/s | -39.8°C | 69.6% | 0hPa | 2.7V | 00:00:00 | 00:42:46 | 00:00:00 | |
| 9A1FER-3 | 2026-09-02 23:47:06 | 45.75137 | 16.15645 | 128° | 75km/h | 9275m | 3.0m/s | -39.8°C | 70.2% | 0hPa | 2.7V | 00:00:00 | 00:42:44 | 00:00:00 | |
| 9A1FER-10 | 2026-09-02 23:46:53 | 45.75289 | 16.15369 | 122° | 71km/h | 9208m | 4.2m/s | -39.3°C | 71.7% | 0hPa | 2.7V | 00:00:00 | 00:42:31 | 00:00:00 | |
| 9A1FER-3 | 2026-09-02 23:46:51 | 45.75308 | 16.15327 | 124° | 71km/h | 9199m | 3.1m/s | -39.2°C | 71.1% | 0hPa | 2.7V | 00:00:00 | 00:42:29 | 00:00:00 | |
| 9A1FER-3 | 2026-09-02 23:46:36 | 45.75462 | 16.15015 | 126° | 66km/h | 9116m | 5.1m/s | -38.5°C | 65.1% | 0hPa | 2.7V | 00:00:00 | 00:42:14 | 00:00:00 | |
| 9A1FER-10 | 2026-09-02 23:46:23 | 45.75584 | 16.14763 | 120° | 64km/h | 9055m | 4.6m/s | -37.9°C | 61.4% | 0hPa | 2.7V | 00:00:00 | 00:42:01 | 08:30:00 | |
| 9A1FER-10 | 2026-09-02 23:46:08 | 45.75713 | 16.14478 | 116° | 62km/h | 8979m | 4.2m/s | -37.4°C | 53.7% | 0hPa | 2.7V | 00:00:00 | 00:41:46 | 00:00:00 | |
| 9A1FER-3 | 2026-09-02 23:46:06 | 45.75727 | 16.14439 | 120° | 62km/h | 8968m | 3.8m/s | -37.2°C | 52.3% | 0hPa | 2.7V | 00:00:00 | 00:41:44 | 00:00:00 | |
| 9A1FER-10 | 2026-09-02 23:45:53 | 45.75826 | 16.14185 | 118° | 57km/h | 8901m | 3.4m/s | -36.7°C | 51.7% | 0hPa | 2.7V | 00:00:00 | 00:41:31 | 00:00:00 | |
| 9A1FER-3 | 2026-09-02 23:45:51 | 45.75839 | 16.14149 | 119° | 57km/h | 8892m | 4.6m/s | -36.6°C | 52.0% | 0hPa | 2.7V | 00:00:00 | 00:41:29 | 00:00:00 | |
| 9A1FER-10 | 2026-09-02 23:45:38 | 45.75935 | 16.13917 | 118° | 60km/h | 8834m | 3.4m/s | -36.3°C | 67.4% | 0hPa | 2.7V | 00:00:00 | 00:41:16 | 00:00:00 | |
| 9A1FER-3 | 2026-09-02 23:45:36 | 45.75950 | 16.13879 | 120° | 60km/h | 8825m | 3.9m/s | -36.3°C | 69.0% | 0hPa | 2.7V | 00:00:00 | 00:41:14 | 00:00:00 | |
| 9A1FER-10 | 2026-09-02 23:45:23 | 45.76043 | 16.13630 | 117° | 58km/h | 8770m | 3.3m/s | -35.8°C | 70.3% | 0hPa | 2.9V | 00:00:00 | 00:41:01 | 00:00:00 | |
| 9A1FER-3 | 2026-09-02 23:45:22 | 45.76056 | 16.13593 | 118° | 60km/h | 8761m | 3.6m/s | -35.8°C | 70.8% | 0hPa | 2.9V | 00:00:00 | 00:40:59 | 00:00:00 | |
| 9A1FER-10 | 2026-09-02 23:45:08 | 45.76138 | 16.13337 | 114° | 58km/h | 8705m | 2.4m/s | -35.3°C | 68.1% | 0hPa | 2.9V | 00:00:00 | 00:40:46 | 00:00:00 | |
| 9A1FER-3 | 2026-09-02 23:45:06 | 45.76151 | 16.13297 | 117° | 57km/h | 8698m | 4.1m/s | -35.2°C | 67.1% | 0hPa | 2.9V | 00:00:00 | 00:40:44 | 00:00:00 | |
| 9A1FER-10 | 2026-09-02 23:44:53 | 45.76233 | 16.13055 | 110° | 58km/h | 8637m | 4.9m/s | -34.6°C | 64.3% | 0hPa | 2.9V | 00:00:00 | 00:40:31 | 00:00:00 | |
| 9A1FER-3 | 2026-09-02 23:44:51 | 45.76243 | 16.13018 | 113° | 58km/h | 8627m | 6.1m/s | -34.5°C | 64.3% | 0hPa | 2.7V | 00:00:00 | 00:40:29 | 00:00:00 | |
| 9A1FER-10 | 2026-09-02 23:44:38 | 45.76322 | 16.12767 | 111° | 57km/h | 8561m | 5.5m/s | -34.0°C | 62.8% | 0hPa | 2.7V | 00:00:00 | 00:40:16 | 00:00:00 | |
| 9A1FER-3 | 2026-09-02 23:44:36 | 45.76333 | 16.12725 | 109° | 55km/h | 8551m | 3.2m/s | -33.9°C | 62.5% | 0hPa | 2.7V | 00:00:00 | 00:40:14 | 00:00:00 | |
| 9A1FER-10 | 2026-09-02 23:44:23 | 45.76395 | 16.12484 | 106° | 51km/h | 8480m | 5.6m/s | -33.2°C | 58.8% | 0hPa | 2.7V | 00:00:00 | 00:40:01 | 00:00:00 | |
| 9A1FER-3 | 2026-09-02 23:44:21 | 45.76403 | 16.12448 | 109° | 49km/h | 8469m | 2.9m/s | -33.2°C | 59.4% | 0hPa | 2.7V | 00:00:00 | 00:39:59 | 00:00:00 | |
| 9A1FER-10 | 2026-09-02 23:44:08 | 45.76464 | 16.12230 | 106° | 49km/h | 8406m | 5.7m/s | -32.6°C | 53.4% | 0hPa | 2.7V | 00:00:00 | 00:39:46 | 08:30:00 | |
| 9A1FER-3 | 2026-09-02 23:44:06 | 45.76471 | 16.12198 | 113° | 49km/h | 8396m | 4.1m/s | -32.5°C | 51.7% | 0hPa | 2.9V | 00:00:00 | 00:39:44 | 08:30:00 | |
| 9A1FER-10 | 2026-09-02 23:43:53 | 45.76533 | 16.11982 | 113° | 49km/h | 8338m | 4.3m/s | -32.1°C | 51.9% | 0hPa | 2.9V | 00:00:00 | 00:39:31 | 00:00:00 | |
| 9A1FER-3 | 2026-09-02 23:43:51 | 45.76543 | 16.11951 | 116° | 49km/h | 8331m | 3.9m/s | -32.0°C | 51.3% | 0hPa | 2.9V | 00:00:00 | 00:39:29 | 00:00:00 | |
| 9A1FER-10 | 2026-09-02 23:43:38 | 45.76610 | 16.11742 | 119° | 47km/h | 8281m | 4.3m/s | -31.5°C | 50.1% | 0hPa | 2.9V | 00:00:00 | 00:39:16 | 00:00:00 | |
| 9A1FER-3 | 2026-09-02 23:43:36 | 45.76621 | 16.11712 | 115° | 47km/h | 8273m | 3.9m/s | -31.5°C | 50.4% | 0hPa | 2.9V | 00:00:00 | 00:39:14 | 00:00:00 | |
| 9A1FER-10 | 2026-09-02 23:43:23 | 45.76690 | 16.11514 | 120° | 51km/h | 8221m | 3.3m/s | -31.0°C | 51.0% | 0hPa | 2.9V | 00:00:00 | 00:39:01 | 00:00:00 | |
| 9A1FER-3 | 2026-09-02 23:43:21 | 45.76701 | 16.11482 | 114° | 51km/h | 8212m | 3.7m/s | -30.9°C | 50.4% | 0hPa | 2.9V | 00:00:00 | 00:38:59 | 00:00:00 | |
| 9A1FER-10 | 2026-09-02 23:43:08 | 45.76769 | 16.11264 | 111° | 44km/h | 8145m | 4.5m/s | -30.3°C | 47.6% | 0hPa | 2.9V | 00:00:00 | 00:38:46 | 00:00:00 | |
| 9A1FER-3 | 2026-09-02 23:43:06 | 45.76777 | 16.11231 | 109° | 44km/h | 8134m | 6.4m/s | -30.3°C | 47.8% | 0hPa | 2.9V | 00:00:00 | 00:38:44 | 00:00:00 | |
| 9A1FER-3 | 2026-09-02 23:42:51 | 45.76836 | 16.11007 | 104° | 46km/h | 8053m | 6.0m/s | -29.6°C | 51.5% | 0hPa | 2.9V | 00:00:00 | 00:38:29 | 00:00:00 | |
| 9A1FER-10 | 2026-09-02 23:42:38 | 45.76891 | 16.10806 | 111° | 47km/h | 7982m | 5.3m/s | -29.0°C | 55.5% | 0hPa | 2.9V | 00:00:00 | 00:38:16 | 00:00:00 | |
| 9A1FER-3 | 2026-09-02 23:42:36 | 45.76900 | 16.10772 | 108° | 49km/h | 7974m | 5.3m/s | -29.0°C | 59.4% | 0hPa | 2.7V | 00:00:00 | 00:38:14 | 00:00:00 | |
| 9A1FER-10 | 2026-09-02 23:42:23 | 45.76958 | 16.10563 | 115° | 51km/h | 7913m | 7.9m/s | -28.6°C | 65.2% | 0hPa | 2.7V | 00:00:00 | 00:38:01 | 00:00:00 | |
| 9A1FER-3 | 2026-09-02 23:42:21 | 45.76970 | 16.10528 | 116° | 51km/h | 7902m | 4.4m/s | -28.5°C | 65.9% | 0hPa | 2.7V | 00:00:00 | 00:37:59 | 00:00:00 | |
| 9A1FER-10 | 2026-09-02 23:42:08 | 45.77039 | 16.10310 | 115° | 47km/h | 7834m | 3.8m/s | -27.9°C | 67.8% | 0hPa | 2.7V | 00:00:00 | 00:37:46 | 00:00:00 | |
| 9A1FER-3 | 2026-09-02 23:42:06 | 45.77049 | 16.10275 | 112° | 47km/h | 7825m | 7.4m/s | -27.8°C | 66.5% | 0hPa | 2.7V | 00:00:00 | 00:37:44 | 00:00:00 | |
| 9A1FER-10 | 2026-09-02 23:41:36 | 45.77195 | 16.09796 | 116° | 49km/h | 7661m | 6.6m/s | -26.7°C | 71.4% | 0hPa | 2.7V | 00:00:00 | 00:37:14 | 00:00:00 | |
| 9A1FER-10 | 2026-09-02 23:41:21 | 45.77291 | 16.09567 | 119° | 53km/h | 7590m | 5.7m/s | -26.3°C | 77.2% | 0hPa | 2.7V | 00:00:00 | 00:36:59 | 00:00:00 | |
| 9A1FER-10 | 2026-09-02 23:41:06 | 45.77392 | 16.09315 | 121° | 55km/h | 7512m | 5.6m/s | -25.6°C | 74.0% | 0hPa | 2.7V | 00:00:00 | 00:36:44 | 00:00:00 | |
| 9A1FER-10 | 2026-09-02 23:40:51 | 45.77495 | 16.09062 | 125° | 51km/h | 7445m | 5.9m/s | -25.0°C | 71.2% | 0hPa | 2.9V | 00:00:00 | 00:36:29 | 00:00:00 | |
| 9A1FER-10 | 2026-09-02 23:40:36 | 45.77579 | 16.08815 | 124° | 49km/h | 7360m | 4.7m/s | -24.2°C | 65.0% | 0hPa | 2.9V | 00:00:00 | 00:36:14 | 00:00:00 | |
| 9A1FER-10 | 2026-09-02 23:40:21 | 45.77660 | 16.08578 | 117° | 47km/h | 7291m | 5.3m/s | -23.5°C | 62.3% | 0hPa | 2.9V | 00:00:00 | 00:35:59 | 00:00:00 | |
| 9A1FER-10 | 2026-09-02 23:40:06 | 45.77740 | 16.08349 | 114° | 47km/h | 7219m | 6.3m/s | -22.9°C | 60.8% | 0hPa | 2.9V | 00:00:00 | 00:35:44 | 00:00:00 | |
| 9A1FER-10 | 2026-09-02 23:39:51 | 45.77812 | 16.08110 | 121° | 49km/h | 7149m | 3.2m/s | -22.3°C | 59.3% | 0hPa | 2.9V | 00:00:00 | 00:35:29 | 00:00:00 | |
| 9A1FER-10 | 2026-09-02 23:39:36 | 45.77884 | 16.07860 | 105° | 46km/h | 7083m | 6.1m/s | -21.9°C | 59.1% | 0hPa | 2.9V | 00:00:00 | 00:35:14 | 08:30:00 | |
| 9A1FER-10 | 2026-09-02 23:39:21 | 45.77947 | 16.07636 | 105° | 46km/h | 7010m | 4.7m/s | -21.6°C | 67.3% | 0hPa | 2.9V | 00:00:00 | 00:34:59 | 00:00:00 | |
| 9A1FER-10 | 2026-09-02 23:39:06 | 45.78000 | 16.07396 | 106° | 46km/h | 6954m | 5.0m/s | -21.2°C | 66.6% | 0hPa | 2.9V | 00:00:00 | 00:34:44 | 00:00:00 | |
| 9A1FER-10 | 2026-09-02 23:38:51 | 45.78051 | 16.07158 | 107° | 46km/h | 6891m | 2.5m/s | -20.7°C | 70.3% | 0hPa | 2.9V | 00:00:00 | 00:34:29 | 00:00:00 | |
| 9A1FER-10 | 2026-09-02 23:38:36 | 45.78101 | 16.06920 | 111° | 47km/h | 6818m | 3.5m/s | -20.2°C | 68.6% | 0hPa | 2.9V | 00:00:00 | 00:34:14 | 00:00:00 | |
| 9A1FER-10 | 2026-09-02 23:38:21 | 45.78161 | 16.06674 | 117° | 47km/h | 6743m | 6.0m/s | -19.8°C | 72.5% | 0hPa | 2.9V | 00:00:00 | 00:33:59 | 00:00:00 | |
| 9A1FER-10 | 2026-09-02 23:38:06 | 45.78234 | 16.06439 | 109° | 47km/h | 6670m | 5.4m/s | -19.3°C | 76.4% | 0hPa | 2.9V | 00:00:00 | 00:33:44 | 00:00:00 | |
| 9A1FER-10 | 2026-09-02 23:37:51 | 45.78306 | 16.06209 | 114° | 46km/h | 6595m | 5.1m/s | -18.8°C | 78.4% | 0hPa | 2.9V | 00:00:00 | 00:33:29 | 00:00:00 | |
| 9A1FER-10 | 2026-09-02 23:37:36 | 45.78383 | 16.05987 | 118° | 46km/h | 6530m | 3.4m/s | -18.2°C | 75.6% | 0hPa | 2.9V | 00:00:00 | 00:33:14 | 00:00:00 | |
| 9A1FER-10 | 2026-09-02 23:37:21 | 45.78469 | 16.05769 | 115° | 49km/h | 6470m | 5.4m/s | -17.6°C | 72.0% | 0hPa | 2.9V | 00:00:00 | 00:32:59 | 08:30:00 | |
| 9A1FER-10 | 2026-09-02 23:37:06 | 45.78562 | 16.05538 | 126° | 47km/h | 6404m | 3.9m/s | -17.0°C | 69.8% | 0hPa | 2.9V | 00:00:00 | 00:32:44 | 00:00:00 | |
| 9A1FER-10 | 2026-09-02 23:36:51 | 45.78666 | 16.05328 | 119° | 44km/h | 6324m | 4.5m/s | -16.4°C | 70.8% | 0hPa | 2.9V | 00:00:00 | 00:32:29 | 00:00:00 | |
| 9A1FER-10 | 2026-09-02 23:36:36 | 45.78745 | 16.05121 | 117° | 38km/h | 6247m | 6.3m/s | -15.8°C | 69.4% | 0hPa | 2.9V | 00:00:00 | 00:32:14 | 00:00:00 | |
| 9A1FER-10 | 2026-09-02 23:36:21 | 45.78827 | 16.04949 | 128° | 35km/h | 6179m | 5.2m/s | -15.3°C | 68.5% | 0hPa | 2.7V | 00:00:00 | 00:31:59 | 00:00:00 | |
| 9A1FER-10 | 2026-09-02 23:36:06 | 45.78904 | 16.04799 | 131° | 35km/h | 6106m | 5.7m/s | -15.0°C | 70.3% | 0hPa | 2.7V | 00:00:00 | 00:31:44 | 00:00:00 | |
| 9A1FER-10 | 2026-09-02 23:35:51 | 45.78987 | 16.04658 | 128° | 38km/h | 6027m | 3.2m/s | -14.3°C | 68.7% | 0hPa | 2.7V | 00:00:00 | 00:31:29 | 00:00:00 | |
| 9A1FER-10 | 2026-09-02 23:35:36 | 45.79076 | 16.04499 | 122° | 38km/h | 5952m | 5.0m/s | -13.6°C | 65.8% | 0hPa | 2.9V | 00:00:00 | 00:31:14 | 00:00:00 | |
| 9A1FER-10 | 2026-09-02 23:35:21 | 45.79170 | 16.04338 | 126° | 40km/h | 5883m | 6.9m/s | -13.0°C | 63.7% | 0hPa | 2.9V | 00:00:00 | 00:30:59 | 00:00:00 | |
| 9A1FER-3 | 2026-09-02 23:35:06 | 45.79249 | 16.04157 | 119° | 33km/h | 5805m | 7.7m/s | -13.1°C | 68.4% | 0hPa | 2.9V | 00:00:00 | 00:30:44 | 08:30:00 | |
| 9A1FER-10 | 2026-09-02 23:34:51 | 45.79323 | 16.04019 | 138° | 29km/h | 5726m | 3.6m/s | -12.7°C | 69.2% | 0hPa | 2.9V | 00:00:00 | 00:30:29 | 00:00:00 | |
| 9A1FER-10 | 2026-09-02 23:34:36 | 45.79386 | 16.03891 | 124° | 27km/h | 5650m | 6.4m/s | -12.1°C | 67.5% | 0hPa | 2.9V | 00:00:00 | 00:30:14 | 00:00:00 | |
| 9A1FER-10 | 2026-09-02 23:34:21 | 45.79451 | 16.03775 | 99° | 27km/h | 5570m | 7.8m/s | -12.5°C | 82.0% | 0hPa | 2.9V | 00:00:00 | 00:29:59 | 00:00:00 | |
| 9A1FER-10 | 2026-09-02 23:34:06 | 45.79485 | 16.03631 | 103° | 31km/h | 5495m | 4.4m/s | -13.4°C | 93.7% | 0hPa | 2.9V | 00:00:00 | 00:29:44 | 00:00:00 | |
| 9A1FER-10 | 2026-09-02 23:33:51 | 45.79493 | 16.03459 | 90° | 31km/h | 5425m | 4.2m/s | -12.8°C | 64.3% | 0hPa | 2.9V | 00:00:00 | 00:29:29 | 00:00:00 | |
| 9A1FER-3 | 2026-09-02 23:33:36 | 45.79493 | 16.03290 | 98° | 31km/h | 5356m | 5.0m/s | -12.2°C | 62.2% | 0hPa | 2.9V | 00:00:00 | 00:29:14 | 00:00:00 | |
| 9A1FER-10 | 2026-09-02 23:33:21 | 45.79502 | 16.03120 | 94° | 31km/h | 5276m | 3.8m/s | -11.9°C | 74.2% | 0hPa | 2.9V | 00:00:00 | 00:28:59 | 00:00:00 | |
| 9A1FER-10 | 2026-09-02 23:33:06 | 45.79507 | 16.02952 | 94° | 35km/h | 5197m | 5.9m/s | -11.3°C | 82.8% | 0hPa | 2.9V | 00:00:00 | 00:28:44 | 00:00:00 | |
| 9A1FER-10 | 2026-09-02 23:32:51 | 45.79527 | 16.02771 | 103° | 31km/h | 5129m | 5.1m/s | -10.7°C | 81.6% | 0hPa | 2.9V | 00:00:00 | 00:28:29 | 08:30:00 | |
| 9A1FER-10 | 2026-09-02 23:32:36 | 45.79562 | 16.02613 | 106° | 37km/h | 5039m | 3.8m/s | -10.3°C | 80.8% | 0hPa | 2.9V | 00:00:00 | 00:28:14 | 00:00:00 | |
| 9A1FER-10 | 2026-09-02 23:32:21 | 45.79621 | 16.02433 | 107° | 35km/h | 4960m | 7.2m/s | -9.6°C | 81.9% | 0hPa | 2.9V | 00:00:00 | 00:27:59 | 00:00:00 | |
| 9A1FER-10 | 2026-09-02 23:32:06 | 45.79665 | 16.02261 | 103° | 38km/h | 4870m | 3.9m/s | -8.8°C | 82.4% | 0hPa | 2.9V | 00:00:00 | 00:27:44 | 00:00:00 | |
| 9A1FER-10 | 2026-09-02 23:31:51 | 45.79717 | 16.02069 | 112° | 33km/h | 4802m | 3.7m/s | -8.4°C | 82.4% | 0hPa | 2.9V | 00:00:00 | 00:27:29 | 00:00:00 | |
| 9A1FER-10 | 2026-09-02 23:31:36 | 45.79774 | 16.01916 | 100° | 27km/h | 4717m | 7.1m/s | -7.8°C | 80.1% | 0hPa | 2.9V | 00:00:00 | 00:27:14 | 00:00:00 | |
| 9A1FER-10 | 2026-09-02 23:31:21 | 45.79825 | 16.01790 | 117° | 29km/h | 4631m | 5.4m/s | -7.2°C | 75.6% | 0hPa | 2.9V | 00:00:00 | 00:26:59 | 00:00:00 | |
| 9A1FER-10 | 2026-09-02 23:31:06 | 45.79891 | 16.01673 | 153° | 22km/h | 4551m | 4.7m/s | -7.0°C | 77.0% | 0hPa | 2.9V | 00:00:00 | 00:26:44 | 00:00:00 | |
| 9A1FER-10 | 2026-09-02 23:30:51 | 45.79954 | 16.01605 | 153° | 18km/h | 4481m | 4.9m/s | -6.7°C | 84.2% | 0hPa | 2.9V | 00:00:00 | 00:26:29 | 00:00:00 | |
| 9A1FER-10 | 2026-09-02 23:30:36 | 45.80005 | 16.01540 | 125° | 22km/h | 4404m | 4.0m/s | -6.0°C | 80.7% | 0hPa | 2.9V | 00:00:00 | 00:26:14 | 08:30:00 | |
| 9A1FER-10 | 2026-09-02 23:30:21 | 45.80070 | 16.01478 | 132° | 18km/h | 4319m | 6.1m/s | -5.2°C | 75.0% | 0hPa | 2.9V | 00:00:00 | 00:25:59 | 00:00:00 | |
| 9A1FER-10 | 2026-09-02 23:30:06 | 45.80129 | 16.01436 | 141° | 18km/h | 4232m | 4.6m/s | -4.6°C | 79.5% | 0hPa | 2.9V | 00:00:00 | 00:25:44 | 00:00:00 | |
| 9A1FER-10 | 2026-09-02 23:29:51 | 45.80191 | 16.01394 | 192° | 13km/h | 4170m | 5.0m/s | -4.1°C | 76.3% | 0hPa | 2.9V | 00:00:00 | 00:25:29 | 00:00:00 | |
| 9A1FER-10 | 2026-09-02 23:29:36 | 45.80230 | 16.01360 | 207° | 13km/h | 4076m | 3.6m/s | -3.6°C | 77.1% | 0hPa | 2.9V | 00:00:00 | 00:25:14 | 00:00:00 | |
| 9A1FER-10 | 2026-09-02 23:29:21 | 45.80271 | 16.01344 | 179° | 15km/h | 3993m | 3.8m/s | -3.3°C | 82.7% | 0hPa | 2.9V | 00:00:00 | 00:24:59 | 00:00:00 | |
| 9A1FER-10 | 2026-09-02 23:29:06 | 45.80317 | 16.01312 | 185° | 16km/h | 3913m | 3.7m/s | -2.6°C | 64.0% | 0hPa | 2.9V | 00:00:00 | 00:24:44 | 00:00:00 | |
| 9A1FER-10 | 2026-09-02 23:28:51 | 45.80376 | 16.01309 | 199° | 16km/h | 3832m | 5.2m/s | -2.1°C | 87.2% | 0hPa | 2.9V | 00:00:00 | 00:24:29 | 00:00:00 | |
| 9A1FER-10 | 2026-09-02 23:28:36 | 45.80434 | 16.01320 | 207° | 24km/h | 3765m | 3.9m/s | -1.7°C | 86.2% | 0hPa | 2.9V | 00:00:00 | 00:24:14 | 00:00:00 | |
| 9A1FER-10 | 2026-09-02 23:28:21 | 45.80519 | 16.01349 | 201° | 27km/h | 3678m | 4.3m/s | -1.0°C | 78.3% | 0hPa | 2.9V | 00:00:00 | 00:23:59 | 08:30:00 | |
| 9A1FER-10 | 2026-09-02 23:28:06 | 45.80623 | 16.01369 | 187° | 31km/h | 3596m | 5.0m/s | -0.2°C | 59.0% | 0hPa | 2.9V | 00:00:00 | 00:23:44 | 00:00:00 | |
| 9A1FER-10 | 2026-09-02 23:27:51 | 45.80738 | 16.01375 | 192° | 24km/h | 3516m | 5.7m/s | 0.5°C | 50.4% | 0hPa | 2.9V | 00:00:00 | 00:23:29 | 00:00:00 | |
| 9A1FER-10 | 2026-09-02 23:27:36 | 45.80829 | 16.01378 | 189° | 24km/h | 3425m | 4.9m/s | 0.9°C | 70.5% | 0hPa | 2.9V | 00:00:00 | 00:23:14 | 00:00:00 | |
| 9A1FER-10 | 2026-09-02 23:27:21 | 45.80921 | 16.01375 | 191° | 16km/h | 3356m | 6.2m/s | 1.4°C | 77.3% | 0hPa | 2.9V | 00:00:00 | 00:22:59 | 00:00:00 | |
| 9A1FER-10 | 2026-09-02 23:27:06 | 45.80985 | 16.01382 | 180° | 15km/h | 3273m | 3.9m/s | 2.0°C | 84.3% | 0hPa | 2.9V | 00:00:00 | 00:22:44 | 00:00:00 | |
| 9A1FER-10 | 2026-09-02 23:26:51 | 45.81037 | 16.01388 | 154° | 18km/h | 3194m | 5.1m/s | 2.8°C | 73.1% | 0hPa | 2.9V | 00:00:00 | 00:22:29 | 00:00:00 | |
| 9A1FER-10 | 2026-09-02 23:26:36 | 45.81110 | 16.01404 | 183° | 24km/h | 3115m | 6.1m/s | 3.5°C | 70.2% | 0hPa | 2.9V | 00:00:00 | 00:22:14 | 00:00:00 | |
| 9A1FER-10 | 2026-09-02 23:26:21 | 45.81199 | 16.01405 | 181° | 18km/h | 3034m | 5.5m/s | 4.3°C | 63.8% | 0hPa | 2.9V | 00:00:00 | 00:21:59 | 00:00:00 | |
| 9A1FER-10 | 2026-09-02 23:26:06 | 45.81271 | 16.01401 | 165° | 24km/h | 2956m | 6.3m/s | 5.0°C | 64.0% | 0hPa | 2.9V | 00:00:00 | 00:21:44 | 08:30:00 | |
| 9A1FER-10 | 2026-09-02 23:25:51 | 45.81357 | 16.01413 | 185° | 24km/h | 2875m | 3.7m/s | 5.7°C | 58.2% | 0hPa | 2.9V | 00:00:00 | 00:21:29 | 00:00:00 | |
| 9A1FER-10 | 2026-09-02 23:25:36 | 45.81445 | 16.01459 | 177° | 24km/h | 2801m | 5.2m/s | 6.4°C | 56.7% | 0hPa | 2.9V | 00:00:00 | 00:21:14 | 00:00:00 | |
| 9A1FER-10 | 2026-09-02 23:25:21 | 45.81528 | 16.01464 | 180° | 22km/h | 2715m | 5.9m/s | 7.2°C | 53.1% | 0hPa | 2.9V | 00:00:00 | 00:20:59 | 00:00:00 | |
| 9A1FER-3 | 2026-09-02 23:25:06 | 45.81608 | 16.01454 | 169° | 18km/h | 2645m | 5.9m/s | 7.8°C | 54.9% | 0hPa | 2.9V | 00:00:00 | 00:20:44 | 00:00:00 | |
| 9A1FER-10 | 2026-09-02 23:24:51 | 45.81677 | 16.01472 | 211° | 24km/h | 2579m | 5.7m/s | 8.3°C | 56.6% | 0hPa | 2.9V | 00:00:00 | 00:20:29 | 00:00:00 | |
| 9A1FER-10 | 2026-09-02 23:24:36 | 45.81760 | 16.01477 | 201° | 15km/h | 2505m | 4.3m/s | 8.8°C | 57.4% | 0hPa | 2.9V | 00:00:00 | 00:20:14 | 00:00:00 | |
| 9A1FER-3 | 2026-09-02 23:24:21 | 45.81815 | 16.01497 | 170° | 11km/h | 2411m | 6.1m/s | 9.6°C | 56.6% | 0hPa | 2.9V | 00:00:00 | 00:19:59 | 00:00:00 | |
| 9A1FER-10 | 2026-09-02 23:24:06 | 45.81856 | 16.01511 | 160° | 9km/h | 2331m | 4.6m/s | 10.0°C | 64.7% | 0hPa | 2.9V | 00:00:00 | 00:19:44 | 00:00:00 | |
| 9A1FER-10 | 2026-09-02 23:23:51 | 45.81867 | 16.01528 | 285° | 7km/h | 2254m | 5.4m/s | 10.3°C | 71.8% | 0hPa | 2.9V | 00:00:00 | 00:19:29 | 08:30:00 | |
| 9A1FER-10 | 2026-09-02 23:23:36 | 45.81887 | 16.01547 | 264° | 7km/h | 2175m | 3.2m/s | 10.9°C | 69.2% | 0hPa | 2.9V | 00:00:00 | 00:19:14 | 00:00:00 | |
| 9A1FER-10 | 2026-09-02 23:23:21 | 45.81895 | 16.01582 | 245° | 9km/h | 2112m | 4.8m/s | 11.3°C | 67.8% | 0hPa | 2.9V | 00:00:00 | 00:18:59 | 00:00:00 | |
| 9A1FER-3 | 2026-09-02 23:23:06 | 45.81913 | 16.01602 | 251° | 7km/h | 2034m | 7.2m/s | 11.9°C | 66.2% | 0hPa | 2.9V | 00:00:00 | 00:18:44 | 00:00:00 | |
| 9A1FER-3 | 2026-09-02 23:22:51 | 45.81923 | 16.01627 | 79° | 5km/h | 1959m | 4.8m/s | 12.0°C | 70.8% | 0hPa | 2.9V | 00:00:00 | 00:18:29 | 00:00:00 | |
| 9A1FER-10 | 2026-09-02 23:22:51 | 45.81923 | 16.01627 | 79° | 5km/h | 1959m | 4.8m/s | 12.0°C | 70.8% | 0hPa | 2.9V | 00:00:00 | 00:18:29 | 00:00:00 | |
| 9A1FER-3 | 2026-09-02 23:22:36 | 45.81929 | 16.01618 | 325° | 5km/h | 1878m | 5.7m/s | 12.7°C | 70.7% | 0hPa | 2.9V | 00:00:00 | 00:18:14 | 00:00:00 | |
| 9A1FER-10 | 2026-09-02 23:22:36 | 45.81929 | 16.01618 | 325° | 5km/h | 1878m | 5.7m/s | 12.7°C | 70.7% | 0hPa | 2.9V | 00:00:00 | 00:18:14 | 00:00:00 | |
| 9A1FER-10 | 2026-09-02 23:22:21 | 45.81934 | 16.01631 | 56° | 5km/h | 1806m | 4.9m/s | 13.4°C | 68.1% | 0hPa | 2.9V | 00:00:00 | 00:17:59 | 00:00:00 | |
| 9A1FER-3 | 2026-09-02 23:22:21 | 45.81934 | 16.01631 | 56° | 5km/h | 1806m | 4.9m/s | 13.4°C | 68.1% | 0hPa | 2.9V | 00:00:00 | 00:17:59 | 00:00:00 | |
| 9A1FER-3 | 2026-09-02 23:22:06 | 45.81929 | 16.01632 | 315° | 9km/h | 1721m | 4.6m/s | 14.2°C | 64.1% | 0hPa | 2.9V | 00:00:00 | 00:17:44 | 00:00:00 | |
| 9A1FER-10 | 2026-09-02 23:22:06 | 45.81929 | 16.01632 | 315° | 9km/h | 1721m | 4.6m/s | 14.2°C | 64.1% | 0hPa | 2.9V | 00:00:00 | 00:17:44 | 00:00:00 | |
| 9A1FER-3 | 2026-09-02 23:21:51 | 45.81922 | 16.01674 | 321° | 7km/h | 1643m | 4.0m/s | 14.9°C | 61.3% | 0hPa | 2.9V | 00:00:00 | 00:17:29 | 00:00:00 | |
| 9A1FER-10 | 2026-09-02 23:21:51 | 45.81922 | 16.01674 | 321° | 7km/h | 1643m | 4.0m/s | 14.9°C | 61.3% | 0hPa | 2.9V | 00:00:00 | 00:17:29 | 00:00:00 | |
| 9A1FER-3 | 2026-09-02 23:21:36 | 45.81917 | 16.01699 | 11° | 13km/h | 1561m | 5.0m/s | 15.7°C | 57.6% | 0hPa | 2.9V | 00:00:00 | 00:17:14 | 08:30:00 | |
| 9A1FER-10 | 2026-09-02 23:21:36 | 45.81917 | 16.01699 | 11° | 13km/h | 1561m | 5.0m/s | 15.7°C | 57.6% | 0hPa | 2.9V | 00:00:00 | 00:17:14 | 08:30:00 | |
| 9A1FER-3 | 2026-09-02 23:21:21 | 45.81895 | 16.01752 | 293° | 15km/h | 1492m | 3.8m/s | 16.4°C | 52.6% | 0hPa | 2.9V | 00:00:00 | 00:16:59 | 00:00:00 | |
| 9A1FER-10 | 2026-09-02 23:21:21 | 45.81895 | 16.01752 | 293° | 15km/h | 1492m | 3.8m/s | 16.4°C | 52.6% | 0hPa | 2.9V | 00:00:00 | 00:16:59 | 00:00:00 | |
| 9A1FER-3 | 2026-09-02 23:21:06 | 45.81866 | 16.01803 | 295° | 16km/h | 1410m | 6.5m/s | 17.1°C | 50.2% | 0hPa | 2.9V | 00:00:00 | 00:16:44 | 00:00:00 | |
| 9A1FER-10 | 2026-09-02 23:21:06 | 45.81866 | 16.01803 | 295° | 16km/h | 1410m | 6.5m/s | 17.1°C | 50.2% | 0hPa | 2.9V | 00:00:00 | 00:16:44 | 00:00:00 | |
| 9A1FER-3 | 2026-09-02 23:20:51 | 45.81831 | 16.01864 | 341° | 16km/h | 1325m | 6.1m/s | 17.9°C | 48.5% | 0hPa | 2.9V | 00:00:00 | 00:16:29 | 00:00:00 | |
| 9A1FER-10 | 2026-09-02 23:20:51 | 45.81831 | 16.01864 | 341° | 16km/h | 1325m | 6.1m/s | 17.9°C | 48.5% | 0hPa | 2.9V | 00:00:00 | 00:16:29 | 00:00:00 | |
| 9A1FER-3 | 2026-09-02 23:20:36 | 45.81802 | 16.01936 | 338° | 15km/h | 1246m | 4.6m/s | 18.4°C | 48.0% | 0hPa | 2.9V | 00:00:00 | 00:16:14 | 00:00:00 | |
| 9A1FER-10 | 2026-09-02 23:20:36 | 45.81802 | 16.01936 | 338° | 15km/h | 1246m | 4.6m/s | 18.4°C | 48.0% | 0hPa | 2.9V | 00:00:00 | 00:16:14 | 00:00:00 | |
| 9A1FER-3 | 2026-09-02 23:20:21 | 45.81776 | 16.02010 | 289° | 18km/h | 1163m | 7.1m/s | 19.2°C | 46.7% | 0hPa | 2.9V | 00:00:00 | 00:15:59 | 00:00:00 | |
| 9A1FER-10 | 2026-09-02 23:20:21 | 45.81776 | 16.02010 | 289° | 18km/h | 1163m | 7.1m/s | 19.2°C | 46.7% | 0hPa | 2.9V | 00:00:00 | 00:15:59 | 00:00:00 | |
| 9A1FER-3 | 2026-09-02 23:20:06 | 45.81759 | 16.02100 | 307° | 18km/h | 1086m | 3.9m/s | 19.8°C | 44.7% | 0hPa | 2.9V | 00:00:00 | 00:15:44 | 00:00:00 | |
| 9A1FER-10 | 2026-09-02 23:20:06 | 45.81759 | 16.02100 | 307° | 18km/h | 1086m | 3.9m/s | 19.8°C | 44.7% | 0hPa | 2.9V | 00:00:00 | 00:15:44 | 00:00:00 | |
| 9A1FER-3 | 2026-09-02 23:19:51 | 45.81748 | 16.02190 | 279° | 22km/h | 1003m | 5.4m/s | 20.5°C | 43.4% | 0hPa | 2.9V | 00:00:00 | 00:15:29 | 00:00:00 | |
| 9A1FER-10 | 2026-09-02 23:19:51 | 45.81748 | 16.02190 | 279° | 22km/h | 1003m | 5.4m/s | 20.5°C | 43.4% | 0hPa | 2.9V | 00:00:00 | 00:15:29 | 00:00:00 | |
| 9A1FER-3 | 2026-09-02 23:19:36 | 45.81742 | 16.02304 | 303° | 16km/h | 934m | 3.4m/s | 21.0°C | 42.3% | 0hPa | 2.9V | 00:00:00 | 00:15:14 | 00:00:00 | |
| 9A1FER-10 | 2026-09-02 23:19:36 | 45.81742 | 16.02304 | 303° | 16km/h | 934m | 3.4m/s | 21.0°C | 42.3% | 0hPa | 2.9V | 00:00:00 | 00:15:14 | 00:00:00 | |
| 9A1FER-3 | 2026-09-02 23:19:21 | 45.81718 | 16.02389 | 269° | 16km/h | 854m | 4.5m/s | 21.7°C | 41.9% | 0hPa | 2.9V | 00:00:00 | 00:14:59 | 08:30:00 | |
| 9A1FER-10 | 2026-09-02 23:19:21 | 45.81718 | 16.02389 | 269° | 16km/h | 854m | 4.5m/s | 21.7°C | 41.9% | 0hPa | 2.9V | 00:00:00 | 00:14:59 | 08:30:00 | |
| 9A1FER-3 | 2026-09-02 23:19:06 | 45.81743 | 16.02467 | 225° | 20km/h | 779m | 5.3m/s | 22.2°C | 41.6% | 0hPa | 2.9V | 00:00:00 | 00:14:44 | 00:00:00 | |
| 9A1FER-10 | 2026-09-02 23:19:06 | 45.81743 | 16.02467 | 225° | 20km/h | 779m | 5.3m/s | 22.2°C | 41.6% | 0hPa | 2.9V | 00:00:00 | 00:14:44 | 00:00:00 | |
| 9A1FER-3 | 2026-09-02 23:18:51 | 45.81784 | 16.02544 | 222° | 20km/h | 711m | 4.3m/s | 22.7°C | 41.6% | 0hPa | 2.9V | 00:00:00 | 00:14:29 | 00:00:00 | |
| 9A1FER-10 | 2026-09-02 23:18:51 | 45.81784 | 16.02544 | 222° | 20km/h | 711m | 4.3m/s | 22.7°C | 41.6% | 0hPa | 2.9V | 00:00:00 | 00:14:29 | 00:00:00 | |
| 9A1FER-3 | 2026-09-02 23:18:36 | 45.81846 | 16.02618 | 222° | 29km/h | 653m | 3.7m/s | 0°C | 0% | 0hPa | 2.9V | 00:00:00 | 00:14:14 | 00:00:00 | |
| 9A1FER-10 | 2026-09-02 23:18:36 | 45.81846 | 16.02618 | 222° | 29km/h | 653m | 3.7m/s | 22.9°C | 44.2% | 0hPa | 2.9V | 00:00:00 | 00:14:14 | 00:00:00 | |
| 9A1FER-3 | 2026-09-02 23:18:21 | 45.81880 | 16.02765 | 253° | 29km/h | 588m | 3.8m/s | 0°C | 0% | 0hPa | 0V | 00:00:00 | 00:13:59 | 00:00:00 | |
| 9A1FER-10 | 2026-09-02 23:18:21 | 45.81880 | 16.02765 | 253° | 27km/h | 588m | 3.8m/s | 0°C | 0% | 0hPa | 0V | 00:00:00 | 00:13:59 | 00:00:00 | |
| 9A1FER-3 | 2026-09-02 23:18:06 | 45.81917 | 16.02906 | 243° | 33km/h | 517m | 4.0m/s | 0°C | 0% | 0hPa | 0V | 00:00:00 | 00:13:44 | 00:00:00 | |
| 9A1FER-10 | 2026-09-02 23:18:06 | 45.81917 | 16.02906 | 243° | 33km/h | 517m | 4.0m/s | 0°C | 0% | 0hPa | 0V | 00:00:00 | 00:13:44 | 00:00:00 | |
| 9A1FER-3 | 2026-09-02 23:17:51 | 45.81951 | 16.03069 | 277° | 26km/h | 452m | 4.8m/s | 0°C | 0% | 0hPa | 0V | 00:00:00 | 00:13:29 | 00:00:00 | |
| 9A1FER-10 | 2026-09-02 23:17:51 | 45.81951 | 16.03069 | 277° | 27km/h | 452m | 4.8m/s | 0°C | 0% | 0hPa | 0V | 00:00:00 | 00:13:29 | 00:00:00 | |
| 9A1FER-3 | 2026-09-02 23:17:36 | 45.81980 | 16.03192 | 225° | 29km/h | 383m | 5.7m/s | 0°C | 0% | 0hPa | 0V | 00:00:00 | 00:13:14 | 00:00:00 | |
| 9A1FER-10 | 2026-09-02 23:17:36 | 45.81980 | 16.03192 | 225° | 29km/h | 383m | 5.7m/s | 0°C | 0% | 0hPa | 0V | 00:00:00 | 00:13:14 | 00:00:00 | |
| 9A1FER-3 | 2026-09-02 23:17:06 | 45.82056 | 16.03393 | 158° | 22km/h | 219m | 4.6m/s | 0°C | 0% | 0hPa | 0V | 00:00:00 | 00:12:44 | 00:00:00 | |
| 9A1FER-10 | 2026-09-02 23:17:06 | 45.82056 | 16.03393 | 158° | 22km/h | 219m | 4.6m/s | 0°C | 0% | 0hPa | 0V | 00:00:00 | 00:12:44 | 00:00:00 |